[[{"header":{"parameterUnit":"m.s-1","parameterCategory":1,"la1":30.6,"la2":29.2853,"lo1":-89.7004,"lo2":-87.6739,"dy":0.0162,"dx":0.0183,"nx":112,"ny":82,"refTime":"2024-07-24T06:00:00:Z","depth":0,"parameterNumber":2,"parameterNumberName":"U-component_of_WINDS"},"data":[0.0,0.0,0.0,0.0,0.0,0.0,0.0,0.0,0.0,0.0,0.0,0.0,0.0,0.0,0.0,0.0,0.0,0.0,0.0,0.0,0.0,0.0,0.0,0.0,0.0,0.0,0.0,0.0,0.0,0.0,0.0,0.0,0.0,0.0,0.0,0.0,0.0,0.0,0.0,0.0,0.0,0.0,0.0,0.0,0.0,0.0,0.0,0.0,0.0,0.0,0.0,0.0,0.0,0.0,0.0,0.0,0.0,0.0,0.0,0.0,0.0,0.0,0.0,0.0,0.0,0.0,0.0,0.0,0.0,0.0,0.0,0.0,0.0,0.0,0.0,0.0,0.0,0.0,0.0,0.0,0.0,0.0,0.0,0.0,0.0,0.0,0.0,0.0,0.0,0.0,0.0,-1.6786,-1.8908,-2.0208,-2.0208,-2.0208,-1.8747,-1.5325,0.0,0.0,0.0,0.0,0.0,0.0,0.0,0.0,0.0,0.0,0.0,0.0,0.0,0.0,0.0,0.0,0.0,0.0,0.0,0.0,0.0,0.0,0.0,0.0,0.0,0.0,0.0,0.0,0.0,0.0,0.0,0.0,0.0,0.0,0.0,0.0,0.0,0.0,0.0,0.0,0.0,0.0,0.0,0.0,0.0,0.0,0.0,0.0,0.0,0.0,0.0,0.0,0.0,0.0,0.0,0.0,0.0,0.0,0.0,0.0,0.0,0.0,0.0,0.0,0.0,0.0,0.0,0.0,0.0,0.0,0.0,0.0,0.0,0.0,0.0,0.0,0.0,0.0,0.0,0.0,0.0,0.0,0.0,0.0,0.0,0.0,0.0,0.0,0.0,0.0,0.0,0.0,0.0,0.0,0.0,0.0,0.0,0.0,0.0,0.0,0.0,0.0,0.0,0.0,-1.6124,-1.9282,-1.9971,-2.0201,-2.0201,-2.0201,-1.8745,-1.5325,0.0,0.0,0.0,0.0,0.0,0.0,0.0,0.0,0.0,0.0,0.0,0.0,0.0,0.0,0.0,0.0,0.0,0.0,0.0,0.0,0.0,0.0,0.0,0.0,0.0,0.0,0.0,0.0,0.0,0.0,0.0,0.0,0.0,0.0,0.0,0.0,0.0,0.0,0.0,0.0,0.0,0.0,0.0,0.0,0.0,0.0,0.0,0.0,0.0,0.0,0.0,0.0,0.0,0.0,0.0,0.0,0.0,0.0,0.0,0.0,0.0,0.0,0.0,0.0,0.0,0.0,0.0,0.0,0.0,0.0,0.0,0.0,0.0,0.0,0.0,0.0,0.0,0.0,0.0,0.0,0.0,0.0,0.0,0.0,0.0,0.0,0.0,0.0,0.0,0.0,0.0,0.0,0.0,0.0,0.0,0.0,0.0,0.0,0.0,0.0,0.0,0.0,0.0,-1.4852,-1.6926,-1.9829,-2.015,-2.015,-2.015,-1.9753,-1.8215,-1.522,-1.4188,0.0,0.0,0.0,0.0,0.0,0.0,0.0,0.0,0.0,0.0,0.0,0.0,0.0,0.0,0.0,0.0,0.0,0.0,0.0,0.0,0.0,0.0,0.0,0.0,0.0,0.0,0.0,0.0,0.0,0.0,0.0,0.0,0.0,0.0,0.0,0.0,0.0,0.0,0.0,0.0,0.0,0.0,0.0,0.0,0.0,0.0,0.0,0.0,0.0,0.0,0.0,0.0,0.0,0.0,0.0,0.0,0.0,0.0,0.0,0.0,0.0,0.0,0.0,0.0,0.0,0.0,0.0,0.0,0.0,0.0,0.0,0.0,0.0,0.0,0.0,0.0,0.0,0.0,0.0,0.0,0.0,0.0,0.0,0.0,0.0,0.0,0.0,0.0,0.0,0.0,0.0,0.0,0.0,0.0,0.0,0.0,0.0,0.0,0.0,0.0,0.0,0.0,-1.644,-1.7558,-1.9864,-2.0093,-2.0093,-2.0093,-1.9167,-1.7558,-1.514,-1.3218,0.0,0.0,0.0,0.0,0.0,0.0,0.0,0.0,0.0,0.0,0.0,0.0,0.0,0.0,0.0,0.0,0.0,0.0,0.0,0.0,0.0,0.0,0.0,0.0,0.0,0.0,0.0,0.0,0.0,0.0,0.0,0.0,0.0,0.0,0.0,0.0,0.0,0.0,0.0,0.0,0.0,0.0,0.0,0.0,0.0,0.0,0.0,0.0,0.0,0.0,0.0,0.0,0.0,0.0,0.0,0.0,0.0,0.0,0.0,0.0,0.0,0.0,0.0,0.0,0.0,0.0,0.0,0.0,0.0,0.0,0.0,0.0,0.0,0.0,0.0,0.0,0.0,0.0,0.0,0.0,0.0,0.0,0.0,0.0,0.0,0.0,0.0,0.0,0.0,0.0,0.0,0.0,0.0,0.0,0.0,0.0,0.0,0.0,0.0,0.0,0.0,0.0,-1.6552,-1.8177,-1.9902,-2.0093,-2.0093,-2.0093,-1.8559,-1.6848,-1.5117,-1.2617,0.0,0.0,0.0,0.0,0.0,0.0,0.0,0.0,0.0,0.0,0.0,0.0,0.0,0.0,0.0,0.0,0.0,0.0,0.0,0.0,0.0,0.0,0.0,0.0,0.0,0.0,0.0,0.0,0.0,0.0,0.0,0.0,0.0,0.0,0.0,0.0,0.0,0.0,0.0,0.0,0.0,0.0,0.0,0.0,0.0,0.0,0.0,0.0,0.0,0.0,0.0,0.0,0.0,0.0,0.0,0.0,0.0,0.0,0.0,0.0,0.0,0.0,0.0,0.0,0.0,0.0,0.0,0.0,0.0,0.0,0.0,0.0,0.0,0.0,0.0,0.0,0.0,0.0,0.0,0.0,0.0,0.0,0.0,0.0,0.0,0.0,0.0,0.0,0.0,0.0,0.0,0.0,0.0,0.0,0.0,0.0,0.0,0.0,0.0,0.0,0.0,0.0,-1.6124,-1.7691,0.0,-2.0093,-1.9902,-1.9391,-1.8251,-1.6588,-1.4277,0.0,0.0,0.0,0.0,0.0,0.0,0.0,0.0,0.0,0.0,0.0,0.0,0.0,0.0,0.0,0.0,0.0,0.0,0.0,0.0,0.0,0.0,0.0,0.0,0.0,0.0,0.0,0.0,0.0,0.0,0.0,0.0,0.0,0.0,0.0,0.0,0.0,0.0,0.0,0.0,0.0,0.0,0.0,0.0,0.0,0.0,0.0,0.0,0.0,0.0,0.0,0.0,0.0,0.0,0.0,0.0,0.0,0.0,0.0,0.0,0.0,0.0,0.0,0.0,0.0,0.0,0.0,0.0,0.0,0.0,0.0,0.0,0.0,0.0,0.0,0.0,0.0,0.0,0.0,0.0,0.0,0.0,0.0,0.0,0.0,0.0,0.0,0.0,0.0,0.0,0.0,0.0,0.0,0.0,0.0,0.0,0.0,0.0,0.0,0.0,0.0,0.0,-1.4293,-1.5914,-1.7538,0.0,-1.994,-1.9768,-1.8975,-1.7854,-1.6165,-1.3754,0.0,0.0,0.0,0.0,0.0,0.0,0.0,0.0,0.0,0.0,0.0,0.0,0.0,0.0,0.0,0.0,0.0,0.0,0.0,0.0,0.0,0.0,0.0,0.0,0.0,0.0,0.0,0.0,0.0,0.0,0.0,0.0,0.0,0.0,0.0,0.0,0.0,0.0,0.0,0.0,0.0,0.0,0.0,0.0,0.0,0.0,0.0,0.0,0.0,0.0,0.0,0.0,0.0,0.0,0.0,0.0,0.0,0.0,0.0,0.0,0.0,0.0,0.0,0.0,0.0,0.0,0.0,0.0,0.0,0.0,0.0,0.0,0.0,0.0,0.0,0.0,0.0,0.0,0.0,0.0,0.0,0.0,0.0,0.0,0.0,0.0,0.0,0.0,0.0,0.0,0.0,0.0,0.0,0.0,0.0,0.0,0.0,0.0,0.0,0.0,0.0,0.0,-1.3475,-1.6017,-1.7928,-1.8803,-1.962,-1.9749,-1.8956,-1.7306,-1.5512,0.0,0.0,0.0,0.0,0.0,0.0,0.0,0.0,0.0,0.0,0.0,0.0,0.0,0.0,0.0,0.0,0.0,0.0,0.0,0.0,0.0,0.0,0.0,0.0,0.0,0.0,0.0,0.0,0.0,0.0,0.0,0.0,0.0,0.0,0.0,0.0,0.0,0.0,0.0,0.0,0.0,0.0,0.0,0.0,0.0,0.0,0.0,0.0,0.0,0.0,0.0,0.0,0.0,0.0,0.0,0.0,0.0,0.0,0.0,0.0,0.0,0.0,0.0,0.0,0.0,0.0,0.0,0.0,0.0,0.0,0.0,0.0,0.0,0.0,0.0,0.0,0.0,0.0,0.0,0.0,0.0,0.0,0.0,0.0,0.0,0.0,0.0,0.0,0.0,0.0,0.0,0.0,0.0,0.0,0.0,0.0,0.0,0.0,0.0,0.0,0.0,0.0,0.0,-1.3475,-1.6017,-1.7928,-1.8803,-1.9104,-1.8918,-1.8062,-1.6991,-1.5335,-1.2904,0.0,0.0,0.0,0.0,0.0,0.0,0.0,0.0,0.0,0.0,0.0,0.0,0.0,0.0,0.0,0.0,0.0,0.0,0.0,0.0,0.0,0.0,0.0,0.0,0.0,0.0,0.0,0.0,0.0,0.0,0.0,0.0,0.0,0.0,0.0,0.0,0.0,0.0,0.0,0.0,0.0,0.0,0.0,0.0,0.0,0.0,0.0,0.0,0.0,0.0,0.0,0.0,0.0,0.0,0.0,0.0,0.0,0.0,0.0,0.0,0.0,0.0,0.0,0.0,0.0,0.0,0.0,0.0,0.0,0.0,0.0,0.0,0.0,0.0,0.0,0.0,0.0,0.0,0.0,0.0,0.0,0.0,0.0,0.0,0.0,0.0,0.0,0.0,0.0,0.0,0.0,0.0,0.0,0.0,0.0,0.0,0.0,0.0,0.0,0.0,0.0,0.0,-1.3045,-1.5858,-1.7846,-1.8378,-1.8701,-1.8555,-1.768,-1.685,-1.5276,-1.2614,0.0,0.0,0.0,0.0,0.0,0.0,0.0,0.0,0.0,0.0,0.0,0.0,0.0,0.0,0.0,0.0,0.0,0.0,0.0,0.0,0.0,0.0,0.0,0.0,0.0,0.0,0.0,0.0,0.0,0.0,0.0,0.0,0.0,0.0,0.0,0.0,0.0,0.0,0.0,0.0,0.0,0.0,0.0,0.0,0.0,0.0,0.0,0.0,0.0,0.0,0.0,0.0,0.0,0.0,0.0,0.0,0.0,0.0,0.0,0.0,0.0,0.0,0.0,0.0,0.0,0.0,0.0,0.0,0.0,0.0,0.0,0.0,0.0,0.0,0.0,0.0,0.0,0.0,0.0,0.0,0.0,0.0,0.0,0.0,0.0,0.0,0.0,0.0,0.0,0.0,0.0,0.0,0.0,0.0,0.0,0.0,0.0,0.0,0.0,0.0,0.0,0.0,-1.2512,-1.5638,-1.7748,-1.7818,-1.8405,-1.8468,-1.7688,-1.6807,-1.5239,-1.2785,0.0,0.0,0.0,0.0,0.0,0.0,0.0,0.0,0.0,0.0,0.0,0.0,0.0,0.0,0.0,0.0,0.0,0.0,0.0,0.0,0.0,0.0,0.0,0.0,0.0,0.0,0.0,0.0,0.0,0.0,0.0,0.0,0.0,0.0,0.0,0.0,0.0,0.0,0.0,0.0,0.0,0.0,0.0,0.0,0.0,0.0,0.0,0.0,0.0,0.0,0.0,0.0,0.0,0.0,0.0,0.0,0.0,0.0,0.0,0.0,-1.4321,0.0,0.0,0.0,0.0,0.0,0.0,0.0,0.0,0.0,0.0,0.0,0.0,0.0,0.0,0.0,0.0,0.0,0.0,0.0,0.0,0.0,0.0,0.0,0.0,0.0,0.0,0.0,0.0,0.0,0.0,0.0,0.0,0.0,0.0,0.0,0.0,0.0,0.0,0.0,0.0,0.0,-1.3412,-1.6066,-1.8024,-1.8655,-1.8259,-1.7887,-1.7688,-1.6317,-1.4938,-1.3684,-1.2206,0.0,0.0,0.0,0.0,0.0,0.0,0.0,0.0,0.0,0.0,0.0,0.0,0.0,0.0,0.0,0.0,0.0,0.0,0.0,0.0,0.0,0.0,0.0,0.0,0.0,0.0,0.0,0.0,0.0,0.0,0.0,0.0,0.0,0.0,0.0,0.0,0.0,0.0,0.0,0.0,0.0,0.0,0.0,0.0,0.0,0.0,0.0,0.0,0.0,0.0,0.0,0.0,0.0,0.0,0.0,0.0,0.0,0.0,0.0,0.0,-1.5356,0.0,0.0,0.0,0.0,0.0,0.0,0.0,0.0,0.0,0.0,0.0,0.0,0.0,0.0,0.0,0.0,0.0,0.0,0.0,0.0,0.0,0.0,0.0,0.0,0.0,0.0,0.0,0.0,0.0,0.0,0.0,0.0,0.0,0.0,0.0,0.0,0.0,0.0,0.0,0.0,-1.3735,-1.6204,-1.8119,-1.8966,-1.8268,-1.7751,-1.7748,-1.6209,-1.4873,-1.4005,-1.2736,0.0,0.0,0.0,0.0,0.0,0.0,0.0,0.0,0.0,0.0,0.0,0.0,0.0,0.0,0.0,0.0,0.0,0.0,0.0,0.0,0.0,0.0,0.0,0.0,0.0,0.0,0.0,0.0,0.0,0.0,0.0,0.0,0.0,0.0,0.0,0.0,0.0,0.0,0.0,0.0,0.0,0.0,0.0,0.0,0.0,0.0,0.0,0.0,0.0,0.0,0.0,0.0,0.0,-2.1137,-2.1137,-2.0847,-2.0982,-2.1306,-2.159,-1.8813,-1.7771,-1.7961,-1.6471,0.0,0.0,0.0,0.0,0.0,0.0,0.0,0.0,0.0,0.0,0.0,0.0,0.0,0.0,0.0,0.0,0.0,0.0,0.0,0.0,0.0,0.0,0.0,0.0,-1.7083,-1.7317,0.0,0.0,0.0,0.0,0.0,0.0,0.0,0.0,0.0,0.0,0.0,0.0,-1.4239,-1.6554,-1.8362,-1.9231,-1.8404,-1.7801,-1.7801,-1.6266,-1.4994,-1.4285,-1.3422,-1.2318,0.0,0.0,0.0,0.0,0.0,0.0,0.0,0.0,0.0,0.0,0.0,0.0,0.0,0.0,0.0,0.0,0.0,0.0,0.0,0.0,0.0,0.0,0.0,0.0,0.0,0.0,0.0,0.0,0.0,0.0,0.0,0.0,-1.2034,-1.3074,0.0,0.0,0.0,0.0,0.0,0.0,0.0,0.0,0.0,0.0,0.0,0.0,0.0,-2.1359,-2.1359,-2.29,-2.3325,-2.259,-2.4099,-2.4041,-2.259,-2.3345,-2.3341,-2.2696,-2.2196,0.0,-1.9869,-1.8892,0.0,0.0,0.0,0.0,0.0,0.0,0.0,0.0,0.0,0.0,0.0,0.0,0.0,0.0,0.0,0.0,0.0,0.0,0.0,0.0,0.0,0.0,-2.0772,-2.0775,-2.1515,-2.1978,0.0,-1.7952,-1.5039,-1.3826,-1.3063,0.0,0.0,0.0,0.0,0.0,0.0,0.0,-1.6028,-1.7873,-1.9328,-2.0142,-1.8761,-1.781,-1.7802,-1.6261,-1.5288,-1.5224,-1.4394,-1.3818,-1.3594,-1.1413,0.0,0.0,0.0,0.0,0.0,0.0,0.0,0.0,0.0,0.0,0.0,0.0,0.0,0.0,0.0,0.0,0.0,0.0,0.0,0.0,0.0,0.0,0.0,0.0,0.0,0.0,0.0,0.0,0.0,-1.1502,-1.3528,-1.486,-1.5136,-1.5227,0.0,0.0,0.0,0.0,0.0,0.0,0.0,0.0,0.0,-1.9944,-2.1989,-2.3106,-2.3116,-2.4312,-2.4737,-2.437,-2.5143,-2.5105,-2.437,-2.4757,-2.4718,-2.437,-2.4324,-2.3617,-2.2381,-2.0985,-1.95,-1.8036,0.0,0.0,0.0,0.0,-1.6986,-1.742,-1.8324,-1.8631,0.0,-1.7902,0.0,0.0,0.0,0.0,0.0,0.0,0.0,0.0,0.0,0.0,-2.171,-2.221,-2.2705,-2.2959,-2.2598,-2.106,-1.9048,0.0,-1.5957,-1.5088,-1.3234,0.0,0.0,0.0,0.0,0.0,-1.7168,-1.8425,-1.9515,-2.0368,-1.9323,-1.8384,-1.7898,-1.6738,-1.5845,-1.5428,-1.4585,-1.4103,-1.4098,-1.2535,-1.1227,0.0,0.0,0.0,0.0,0.0,0.0,0.0,0.0,0.0,0.0,0.0,0.0,0.0,0.0,0.0,0.0,0.0,0.0,0.0,0.0,0.0,0.0,0.0,0.0,0.0,0.0,0.0,0.0,-1.3323,-1.5071,-1.6612,-1.7225,-1.7494,0.0,0.0,0.0,0.0,0.0,0.0,-1.8752,-2.0962,-2.2234,-2.225,-2.3713,-2.4501,-2.4517,-2.5178,-2.5507,-2.5507,-2.5507,-2.5507,-2.5507,-2.5507,-2.5507,-2.5507,-2.5507,-2.5124,-2.4405,-2.2837,-2.1583,-2.0603,-1.9999,-1.9338,-1.8796,-1.9413,-1.9768,-2.0084,-2.1287,-2.1718,-2.1526,-2.0425,0.0,-1.9107,-1.7272,0.0,0.0,0.0,0.0,-2.0055,-2.176,-2.2234,-2.2501,-2.3348,-2.3624,-2.3704,-2.3709,-2.3563,-2.2548,0.0,-1.8923,-1.8143,-1.5806,0.0,0.0,0.0,0.0,-1.7257,-1.8127,-1.8998,-1.9774,-2.0431,-1.9722,-1.8858,-1.7978,-1.7106,-1.6262,-1.5443,-1.4794,-1.4427,-1.4433,-1.3594,-1.2558,-1.1305,0.0,0.0,0.0,0.0,0.0,0.0,0.0,0.0,0.0,0.0,0.0,0.0,0.0,0.0,0.0,0.0,0.0,0.0,0.0,0.0,0.0,0.0,0.0,0.0,0.0,0.0,0.0,0.0,0.0,-1.8262,-1.9858,0.0,0.0,0.0,0.0,-2.0038,-2.0831,-2.1312,-2.1312,-2.3011,-2.3968,-2.3972,-2.4859,-2.5343,-2.5343,-2.5441,-2.5507,-2.5507,-2.5507,-2.5507,-2.5507,-2.5507,-2.5507,-2.5507,-2.5507,-2.5488,-2.5352,-2.4443,-2.3093,-2.1627,-2.1591,-2.1549,-2.1481,-2.142,-2.1949,-2.2674,-2.2575,-2.2533,-2.2647,-2.3339,-2.2464,-2.1155,-2.1105,-1.9994,0.0,0.0,-2.1393,-2.1865,-2.3619,-2.4106,-2.4349,-2.5104,-2.5423,-2.5529,-2.5402,-2.4826,-2.379,0.0,-2.1611,-2.1043,-1.9258,0.0,-1.7752,-1.7717,-1.7775,-1.815,-1.9011,-1.9891,-2.0458,-2.0497,-1.9725,-1.8858,-1.7978,-1.7103,-1.6265,-1.5449,-1.5351,-1.5332,-1.5325,-1.4502,-1.3996,-1.3903,-1.1538,0.0,0.0,0.0,0.0,0.0,0.0,0.0,0.0,0.0,0.0,0.0,0.0,0.0,0.0,0.0,0.0,0.0,0.0,0.0,0.0,0.0,0.0,0.0,0.0,0.0,0.0,0.0,0.0,-2.0776,-2.1637,0.0,-2.1851,-2.1872,-2.1908,-2.1908,-2.2682,-2.3163,-2.3163,-2.4245,-2.4894,-2.4931,-2.5232,-2.5408,-2.5401,-2.548,-2.5507,-2.5507,-2.5507,-2.5507,-2.5507,-2.5507,-2.5507,-2.5507,-2.5507,-2.5507,-2.5488,-2.5163,-2.4679,-2.4157,-2.4157,-2.4084,-2.4014,-2.3962,-2.4138,-2.437,-2.43,-2.4279,-2.4211,-2.3906,-2.3058,-2.2149,-2.2166,-2.2151,-2.2254,-2.2867,-2.3496,-2.4122,-2.4748,-2.4954,-2.5098,-2.5386,-2.5523,-2.5578,-2.5612,-2.5426,-2.5054,-2.4438,-2.3394,-2.226,-2.1072,-2.1071,-2.0877,-1.974,-2.0055,-2.0329,-2.0068,-2.0315,-2.0506,-2.0506,-2.0225,-1.9703,-1.8861,-1.7995,-1.7142,-1.6286,-1.5175,-1.457,-1.4562,-1.372,-1.3017,-1.249,-1.1609,-1.0574,0.0,0.0,0.0,0.0,0.0,0.0,0.0,0.0,0.0,0.0,0.0,0.0,0.0,0.0,0.0,0.0,0.0,0.0,0.0,0.0,0.0,0.0,0.0,0.0,0.0,0.0,-2.0558,-2.2251,-2.3046,-2.3499,-2.363,-2.3908,-2.4082,-2.4082,-2.4625,-2.4817,-2.4529,-2.5,-2.5317,-2.5361,-2.5653,-2.5811,-2.5833,-2.5873,-2.5909,-2.5894,-2.5623,-2.5507,-2.5507,-2.5507,-2.5507,-2.5507,-2.5507,-2.5507,-2.5507,-2.5507,-2.5507,-2.5507,-2.5507,-2.5444,-2.5372,-2.5372,-2.534,-2.5288,-2.5244,-2.5219,-2.5086,-2.4448,-2.3879,-2.3443,-2.345,-2.3849,-2.432,-2.4392,-2.4846,-2.5354,-2.5418,-2.5471,-2.5496,-2.5498,-2.5538,-2.5576,-2.5612,-2.5669,-2.5699,-2.5699,-2.4775,-2.3701,-2.2828,-2.3154,-2.304,-2.1595,-2.164,-2.1621,-2.1011,-2.0678,-2.0502,-2.0502,-2.0499,-2.0169,-1.9375,-1.8492,-1.7635,-1.6768,-1.533,-1.453,-1.454,-1.37,-1.2995,-1.2443,-1.2137,-1.1273,-0.9833,0.0,0.0,0.0,0.0,0.0,0.0,0.0,0.0,0.0,0.0,0.0,0.0,0.0,0.0,0.0,0.0,0.0,0.0,0.0,0.0,0.0,0.0,0.0,-1.8708,-2.0924,-2.2565,-2.2668,-2.4126,-2.5179,-2.5336,-2.6096,-2.6621,-2.664,-2.664,-2.6269,-2.5423,-2.5385,-2.5385,-2.5385,-2.6198,-2.667,-2.6742,-2.674,-2.6743,-2.6721,-2.5913,-2.5546,-2.5546,-2.5507,-2.5507,-2.5507,-2.5507,-2.5507,-2.5507,-2.5507,-2.5507,-2.5507,-2.5507,-2.5507,-2.5507,-2.5507,-2.5507,-2.548,-2.5344,-2.5269,-2.5187,-2.5138,-2.5115,-2.5109,-2.5106,-2.5094,-2.5128,-2.5333,-2.5391,-2.5448,-2.5634,-2.5697,-2.5669,-2.5538,-2.5608,-2.5667,-2.5538,-2.5608,-2.5699,-2.5699,-2.5707,-2.5432,-2.4583,-2.444,-2.4132,-2.327,-2.2441,0.0,-2.1816,-2.1035,-2.0508,-2.0508,-2.0504,-2.0189,-1.9394,-1.8512,-1.7635,-1.6788,-1.5877,-1.537,-1.5356,-1.4517,-1.4066,-1.4058,-1.3168,-1.2321,-1.1564,0.0,0.0,0.0,0.0,0.0,0.0,0.0,0.0,0.0,0.0,0.0,0.0,0.0,0.0,0.0,0.0,0.0,0.0,0.0,0.0,0.0,0.0,-2.1124,-2.1202,-2.2495,-2.3688,-2.4345,-2.4913,-2.5508,-2.6173,-2.6467,-2.6851,-2.7505,-2.7544,-2.7448,-2.7198,-2.7198,-2.7198,-2.7198,-2.7416,-2.7547,-2.7576,-2.7619,-2.7642,-2.7627,-2.6775,-2.6377,-2.6358,-2.5778,-2.5507,-2.5507,-2.5507,-2.5507,-2.5507,-2.5507,-2.5507,-2.5507,-2.5507,-2.5507,-2.5507,-2.5507,-2.5507,-2.5488,-2.5452,-2.5363,-2.5265,-2.525,-2.5253,-2.5247,-2.5239,-2.5208,-2.5198,-2.537,-2.5391,-2.5414,-2.5526,-2.5634,-2.5695,-2.5643,-2.5671,-2.5695,-2.5643,-2.5671,-2.5701,-2.5707,-2.5691,-2.5621,-2.5386,-2.5332,-2.5045,-2.4175,-2.3312,0.0,-2.1946,-2.1107,-2.0543,-2.0508,-2.0507,-2.041,-2.0195,-1.8847,-1.7891,-1.7667,-1.5638,-1.4466,-1.446,-1.3617,-1.3156,-1.3166,-1.2865,-1.2875,0.0,0.0,0.0,0.0,0.0,0.0,0.0,0.0,0.0,0.0,0.0,0.0,0.0,0.0,0.0,0.0,0.0,0.0,0.0,0.0,0.0,0.0,-2.1399,-2.2727,-2.3105,-2.3859,-2.456,-2.5113,-2.5253,-2.5788,-2.7024,-2.714,-2.7486,-2.8338,-2.8396,-2.8261,-2.7915,-2.7895,-2.7895,-2.7895,-2.8233,-2.8417,-2.8447,-2.8473,-2.8521,-2.8526,-2.7664,-2.7054,-2.6683,-2.6223,-2.5816,-2.5507,-2.5507,-2.5507,-2.5507,-2.5507,-2.5507,0.0,0.0,0.0,0.0,0.0,-2.5507,-2.5507,-2.5507,-2.5448,-2.5372,-2.5326,-2.5298,-2.5308,-2.5298,-2.5269,-2.5264,-2.5402,-2.5441,-2.5459,-2.556,-2.5639,-2.5699,-2.5699,-2.5699,-2.5699,-2.5699,-2.5699,-2.5701,-2.5705,-2.571,0.0,-2.5707,-2.5698,-2.5515,-2.4979,-2.4173,-2.3484,-2.3002,-2.1886,-2.1123,-2.109,-2.0759,-2.0545,-2.0545,-1.9316,0.0,0.0,0.0,-1.5554,-1.5159,-1.4664,0.0,0.0,0.0,0.0,0.0,0.0,0.0,0.0,-1.4099,-1.4565,0.0,0.0,0.0,0.0,0.0,0.0,0.0,0.0,0.0,0.0,0.0,0.0,0.0,0.0,0.0,0.0,-2.2755,-2.3665,-2.4436,-2.4831,-2.5126,-2.5259,-2.5365,-2.6086,-2.7736,-2.7992,-2.8376,-2.9184,-2.9242,-2.8934,-2.8217,0.0,0.0,0.0,0.0,-2.9292,-2.9327,-2.9345,-2.9371,-2.9414,-2.8554,-2.7735,-2.6996,-2.6899,-2.6455,-2.5782,-2.5782,-2.5724,-2.5642,-2.5642,-2.5584,-2.5507,-2.5507,-2.5507,-2.5507,-2.5507,-2.5507,-2.5507,-2.5507,0.0,0.0,-2.5367,-2.533,-2.5321,-2.5317,-2.5312,-2.5346,-2.5471,-2.5502,-2.5538,-2.5663,-2.5699,-2.5699,-2.5699,-2.5699,-2.5699,-2.5699,-2.5699,-2.5699,-2.5701,-2.5707,-2.5696,-2.5707,-2.5696,-2.5674,-2.562,-2.4921,-2.4403,-2.4394,-2.3022,-2.1998,-2.1902,0.0,0.0,-2.0596,-1.9782,-1.9293,-1.9293,-1.8463,-1.7593,-1.6763,-1.6728,-1.668,-1.6545,-1.6535,-1.6957,-1.7844,-1.7784,-1.7819,-1.7903,-1.6333,-1.6387,0.0,0.0,0.0,0.0,0.0,0.0,0.0,0.0,0.0,0.0,0.0,0.0,0.0,0.0,0.0,-2.2581,-2.3483,-2.4196,-2.467,-2.4804,-2.493,-2.5126,-2.575,-2.6632,-2.7788,-2.8492,-2.9217,-3.0077,-3.0154,-3.0077,-2.9923,-2.9923,-2.9923,-2.9923,-3.0077,-3.016,-3.016,-3.0175,-3.0207,-3.0258,0.0,0.0,-2.876,-2.8064,-2.7662,-2.7527,-2.7527,-2.7116,-2.6474,-2.6474,-2.6087,-2.5507,-2.5507,-2.5507,-2.5507,-2.5507,-2.5507,-2.5507,-2.5507,-2.5507,-2.5507,-2.5476,-2.5452,-2.5456,-2.5468,-2.5429,0.0,-2.554,-2.554,-2.5538,-2.5663,-2.5699,-2.5699,-2.5699,-2.5699,-2.5699,-2.5699,-2.5699,-2.5701,-2.5708,-2.5691,-2.5696,-2.5707,-2.5696,-2.5704,-2.5676,-2.4949,-2.4399,-2.4403,-2.3503,-2.2608,-2.1894,-2.1679,-2.1289,-2.0585,-1.9722,-1.922,-1.9224,-1.8345,-1.776,-1.758,-1.7525,-1.7478,-1.7451,-1.7401,-1.7791,-1.8671,-1.8659,-1.8935,-1.9452,-1.8484,-1.8199,0.0,0.0,0.0,0.0,0.0,0.0,0.0,0.0,0.0,0.0,0.0,-1.9795,-2.1447,0.0,-2.2693,-2.3553,-2.4393,-2.5064,-2.5371,-2.5804,-2.6037,-2.5866,-2.6247,-2.7023,-2.8371,-2.8857,-2.9467,-3.0327,-3.0404,-3.0404,-3.0404,-3.0404,-3.0404,-3.0404,-3.0404,-3.0404,-3.0404,-3.04,-3.0433,-3.0504,-3.008,-2.968,-2.9287,-2.8842,-2.8416,-2.7991,-2.7991,-2.7759,-2.7329,-2.688,-2.6455,-2.6068,-2.5662,-2.5507,-2.5507,-2.5507,-2.5507,-2.5507,-2.5507,-2.5507,-2.5507,-2.5507,-2.5507,-2.5496,-2.5495,-2.5476,-2.5464,-2.5522,-2.5553,-2.5573,-2.5632,-2.5671,-2.5699,-2.5699,-2.5699,-2.5699,-2.5699,-2.5699,-2.5701,-2.5705,-2.5705,-2.5708,-2.5699,-2.5704,-2.5692,-2.5702,-2.5334,-2.5042,-2.5042,-2.4281,-2.3582,-2.3159,-2.2711,-2.2106,-2.1266,-2.033,-1.9794,-1.9803,-1.9327,-1.9033,-1.8998,-1.8976,-1.8935,-1.8911,-1.8873,-1.9066,-1.9506,-1.9506,-1.9669,-1.9991,-1.9516,-1.9249,0.0,0.0,0.0,0.0,0.0,0.0,0.0,0.0,-1.9289,-2.0896,-2.1226,-2.163,-2.2988,-2.3226,-2.352,-2.4449,-2.5215,-2.583,-2.6172,-2.6775,-2.71,-2.6853,-2.6965,-2.7522,-2.8756,-2.9165,-2.964,-3.0346,-3.0404,-3.0404,-3.0404,-3.0404,-3.0404,-3.0404,-3.0404,-3.0404,-3.0404,-3.0394,-3.0422,-3.0474,-3.05,-3.0158,-2.9529,-2.9553,-2.9171,-2.8494,-2.8339,-2.8242,-2.8184,-2.731,-2.6957,-2.6861,-2.6048,-2.572,-2.57,-2.5565,-2.5507,-2.5507,-2.5507,-2.5507,-2.5507,-2.5507,-2.5507,-2.5507,-2.5507,-2.5507,-2.5499,-2.5511,-2.5564,-2.561,-2.5627,-2.5667,-2.5699,-2.5699,-2.5699,-2.5699,-2.5699,-2.5699,-2.5699,-2.5699,-2.5699,-2.5701,-2.5708,-2.5691,-2.5699,-2.5696,-2.5702,-2.5704,-2.5704,-2.5098,-2.459,-2.4414,-2.3771,-2.3028,-2.2184,-2.1208,-2.0638,-2.0616,-2.0389,-2.0234,-2.0188,-2.0184,-2.015,-2.0093,-2.0093,-2.0093,-2.0093,-2.0093,-2.0084,-2.006,-2.0126,-2.0072,-1.7084,-1.7936,-1.888,-1.9748,-1.9494,-1.9811,0.0,0.0,-2.1849,-2.3456,-2.3786,-2.3841,-2.4025,-2.4061,-2.4328,-2.5147,-2.5514,-2.6019,-2.6937,-2.6687,-2.6727,-2.7574,-2.8248,-2.8478,-2.8077,-2.939,-3.0308,-3.0385,-3.0404,-3.0404,-3.0404,-3.0404,-3.0404,-3.0404,-3.0404,-3.0404,-3.0404,-3.0404,-3.0408,-3.0403,-3.0474,-3.0442,-3.0366,-3.0434,-3.0404,-3.0269,-2.9495,-2.9152,-2.9093,-2.8204,-2.7855,-2.7778,-2.6899,-2.6571,-2.6474,-2.5758,-2.5507,-2.5507,-2.5507,-2.5507,-2.5507,-2.5507,-2.5507,-2.5507,-2.5507,-2.5507,-2.5507,-2.5577,-2.5598,-2.5613,-2.5665,-2.5697,-2.5699,-2.5699,-2.5699,-2.5699,-2.5699,-2.5699,-2.5699,-2.5699,-2.5699,-2.5699,-2.5701,-2.5707,-2.5697,-2.5708,-2.5692,-2.5692,-2.5692,-2.5614,-2.5261,-2.4479,-2.4304,-2.3884,-2.2954,-2.2003,-2.1449,-2.1385,-2.0583,-2.0121,-2.0107,-2.0107,-2.0102,-2.0093,-2.0093,-2.0093,-2.0093,-2.0093,-2.0045,-1.9947,-2.0711,-2.0952,-1.9753,-2.0101,0.0,0.0,-2.2052,-2.2391,-2.3309,-2.3345,-2.3391,-2.4061,-2.419,-2.419,-2.419,-2.419,-2.4485,0.0,-2.6115,-2.6931,-2.7921,-2.797,-2.7847,-2.781,-2.8526,-2.8902,-2.8621,-2.9236,-2.9852,-3.0365,-3.0404,-3.0404,-3.0404,-3.0404,-3.0404,-3.0404,-3.0404,-3.0404,-3.0404,-3.0404,-3.0402,-3.0398,-3.0428,-3.0455,-3.0496,-3.0525,-3.0564,-3.0578,-3.0211,-3.0056,-2.9998,-2.9113,-2.8765,-2.8668,-2.7793,-2.7151,-2.6605,-2.5797,-2.5507,-2.5507,-2.5507,-2.5507,-2.5507,-2.5507,-2.5507,-2.5507,-2.5507,-2.5507,-2.5515,-2.5529,-2.557,-2.5607,-2.5632,-2.5678,-2.5699,-2.5699,-2.5699,-2.5699,-2.5699,-2.5699,-2.5699,-2.5699,-2.5699,-2.5699,-2.5699,-2.5703,-2.5707,-2.5692,-2.5702,-2.571,-2.571,-2.571,-2.5552,-2.5201,-2.4693,-2.4237,-2.3846,-2.2915,-2.2124,-2.1591,-2.112,-2.0633,-2.0112,-2.0093,-2.0093,-2.0093,-2.0011,-1.9981,-1.9981,-2.0486,-2.0649,-2.0508,-2.1462,-2.2015,-2.106,0.0,0.0,-2.2658,-2.3593,-2.4043,-2.3465,-2.3786,-2.419,-2.419,-2.419,-2.419,-2.419,-2.419,-2.4568,-2.5698,-2.658,-2.7522,-2.8703,-2.8698,-2.8447,-2.8089,-2.8269,-2.8588,-2.9069,-2.9319,-2.9717,-3.0346,-3.0404,-3.0404,-3.0404,-3.0404,-3.0404,-3.0404,-3.0404,-3.0404,-3.0404,-3.0404,-3.0396,-3.04,-3.0392,-3.0433,-3.0476,-3.0486,-3.0525,-3.0569,-3.0593,-3.0598,-3.0559,-2.9921,-2.965,-2.9573,-2.8707,-2.7967,-2.7286,-2.6223,-2.5681,-2.5507,-2.5507,-2.548,-2.5448,-2.5484,-2.548,-2.5448,-2.5484,-2.5507,-2.5492,-2.5503,-2.5531,-2.557,-2.5598,-2.5632,-2.5663,-2.5669,-2.5671,-2.5673,-2.5697,-2.5699,-2.5699,-2.5699,-2.5699,-2.5699,-2.5699,-2.5699,-2.5699,-2.5699,-2.5692,-2.5702,-2.5702,-2.5702,-2.5697,-2.5648,-2.5079,-2.4701,-2.4681,-2.3776,-2.2928,-2.2302,-2.1927,-2.1459,-2.0819,-2.0781,-2.0766,-2.0745,-2.0646,-2.0566,-2.0506,-2.1147,-2.1362,-2.1238,-2.2216,-2.2875,0.0,0.0,-2.2748,-2.2877,-2.3556,-2.419,-2.4171,-2.4171,-2.419,-2.419,-2.419,-2.419,-2.419,-2.419,-2.4722,-2.63,-2.6753,-2.7465,-2.9064,-2.8284,-2.7821,-2.8577,-2.7483,-2.7313,0.0,-2.9871,-3.0365,-3.0404,-3.0404,-3.0404,-3.0404,-3.0404,-3.0404,-3.0404,-3.0404,-3.0404,-3.0404,-3.0404,-3.0404,-3.0404,-3.04,-3.0398,-3.0417,-3.0471,-3.0496,-3.0515,-3.0564,-3.0598,-3.0598,-3.0578,-3.0559,-3.0462,-2.9592,-2.9248,-2.9012,-2.7305,-2.6165,-2.5507,-2.5507,-2.5412,-2.533,-2.5452,-2.5412,-2.5335,-2.5452,-2.5507,-2.5499,-2.5501,-2.5495,-2.5525,-2.5573,-2.5601,-2.5593,-2.5603,-2.5591,-2.5615,-2.5695,-2.5699,-2.5699,-2.5699,-2.5699,-2.5699,-2.5699,-2.5699,-2.5699,-2.5699,-2.5699,-2.5699,-2.5699,-2.5699,-2.5643,-2.5513,-2.5487,-2.5441,-2.5387,-2.4514,-2.3956,-2.3937,-2.3069,-2.2543,-2.2524,-2.2524,-2.2465,-2.2325,-2.2338,-2.223,-2.2025,-2.2063,-2.2082,-2.2074,-2.2951,-2.3371,0.0,0.0,-2.3858,-2.4419,-2.4777,-2.5007,-2.5007,-2.4585,-2.419,-2.419,-2.419,-2.419,-2.419,-2.419,-2.4722,-2.6337,-2.6762,-2.7474,-2.914,-2.8659,-2.8305,-2.8713,-2.8389,0.0,0.0,0.0,0.0,-3.0365,-3.0404,-3.0404,-3.0404,-3.0404,-3.0404,-3.0404,-3.0404,-3.0404,-3.0404,-3.0404,-3.0404,-3.0404,-3.04,-3.0398,-3.0398,-3.0471,-3.0496,-3.0496,-3.0564,-3.0598,-3.0598,-3.0598,-3.0598,-3.0578,-3.0288,-2.9805,-2.9171,-2.7987,-2.7039,-2.6223,-2.5681,-2.5412,-2.5302,-2.5344,-2.5303,-2.5239,-2.5284,-2.5293,-2.5308,-2.5357,-2.5394,-2.5449,-2.5518,-2.5567,-2.5604,-2.5596,-2.5595,-2.561,-2.5639,-2.5669,-2.5699,-2.5699,-2.5634,-2.5571,-2.5571,-2.5537,-2.5509,-2.5509,-2.5617,-2.5669,-2.5576,-2.5571,-2.5529,-2.5439,-2.5432,-2.5421,-2.5395,-2.508,-2.462,-2.4048,-2.3658,-2.3193,-2.262,-2.2601,-2.2541,-2.2394,-2.2312,-2.2196,-2.2028,-2.2565,-2.2781,-2.2713,-2.3634,-2.4016,0.0,-2.419,-2.4427,-2.5548,-2.5833,-2.576,-2.5466,-2.5007,-2.4548,-2.4263,-2.3969,-2.3859,-2.4153,-2.3731,-2.4061,-2.6235,-2.647,-2.7042,-2.8979,-2.8745,-2.8524,-2.8955,-2.9125,-2.9251,0.0,0.0,0.0,-3.0379,-3.0404,-3.0404,-3.0404,-3.0404,-3.0404,-3.0404,-3.0404,-3.0404,-3.0404,-3.0404,-3.0404,-3.0404,-3.0408,-3.0394,-3.04,-3.0444,-3.0476,-3.0505,-3.055,-3.0588,-3.0598,-3.0598,-3.0598,-3.0598,-3.0598,-3.025,-2.965,-2.8784,-2.8103,-2.7421,-2.599,-2.5412,-2.5297,-2.5297,-2.5245,-2.5192,-2.5192,-2.5192,-2.5203,-2.524,-2.5298,-2.533,-2.5378,-2.5445,-2.5501,-2.5515,-2.555,-2.5565,-2.5586,-2.5639,-2.5671,-2.5697,-2.5637,-2.5573,-2.5573,-2.5502,-2.5425,-2.5395,-2.5515,-2.5554,-2.5473,-2.5467,-2.5436,-2.5374,-2.5361,-2.5352,-2.534,-2.5293,-2.5027,-2.4456,-2.4383,-2.411,-2.3542,-2.3523,-2.3443,-2.3297,-2.3157,-2.303,-2.2858,-2.3319,-2.3509,-2.3437,-2.4054,-2.4284,-2.3909,-2.4232,-2.4663,-2.6261,-2.662,-2.641,-2.5631,-2.5393,-2.5099,-2.4309,-2.3538,-2.3226,0.0,0.0,-2.2905,-2.6035,-2.5944,-2.6292,-2.8675,-2.8545,-2.8517,0.0,0.0,0.0,0.0,0.0,0.0,-3.0553,0.0,-3.0462,-3.0462,-3.0462,-3.0442,-3.0404,-3.0404,-3.0404,-3.0404,-3.0404,-3.0404,-3.0404,-3.0404,-3.0404,-3.0404,-3.04,-3.0433,-3.0485,-3.0495,-3.052,-3.0583,-3.0583,-3.0564,-3.0583,-3.0583,-3.0588,-3.0472,-2.9607,-2.9297,-2.8925,-2.6474,-2.5509,-2.5374,-2.5351,-2.5293,-2.5182,-2.5182,-2.5201,-2.5201,-2.5182,-2.5187,-2.5206,-2.5192,-2.5254,-2.5302,-2.5365,-2.5441,-2.5506,-2.5568,-2.5581,-2.561,-2.5669,-2.5671,-2.5671,-2.5689,-2.5568,-2.5467,-2.5391,-2.5398,-2.5398,-2.5383,-2.5383,-2.537,-2.5288,-2.5298,-2.5262,-2.5222,-2.5191,-2.5191,-2.5191,-2.5191,-2.5191,-2.5191,-2.5191,-2.5107,-2.4895,-2.4764,-2.4602,-2.4381,-2.4266,-2.419,-2.419,-2.4208,-2.419,-2.4781,-2.591,-2.6969,-2.7383,-2.7034,-2.6557,-2.6337,-2.5364,-2.4301,-2.361,-2.3295,-2.3041,-2.2699,0.0,0.0,-2.5532,-2.6107,0.0,-2.8748,-2.9421,0.0,0.0,0.0,-3.1477,-3.1651,-3.1912,0.0,0.0,-3.1616,-3.1371,-3.1371,-3.1371,-3.1077,-3.0423,-3.0404,-3.0404,-3.0404,-3.0404,-3.0404,-3.0404,-3.0404,-3.0404,-3.0404,-3.04,-3.0398,-3.0422,-3.0321,-3.0297,-3.0303,-3.0254,-3.0235,-3.0241,-3.0349,-3.0386,-3.0277,-2.9459,-2.9115,-2.8917,-2.7754,-2.6884,-2.6256,-2.621,-2.5707,-2.5112,-2.5063,-2.5044,-2.5057,-2.5106,-2.5124,-2.5141,-2.5195,-2.5208,-2.5229,-2.5244,-2.5308,-2.5354,-2.538,-2.5414,-2.547,-2.5476,-2.5482,-2.5461,-2.5406,-2.5327,-2.5273,-2.5241,-2.5255,-2.5268,-2.5317,-2.5327,-2.5308,-2.5223,-2.5231,-2.522,-2.5191,-2.5191,-2.5191,-2.5191,-2.5191,-2.5191,-2.5191,-2.5191,-2.5063,-2.4757,-2.4723,-2.4555,-2.4257,-2.4218,-2.419,-2.419,-2.4151,-2.4132,-2.6075,-2.7079,-2.7879,-2.8246,-2.7732,-2.6943,-2.6227,-2.5089,-2.3906,-2.2875,-2.237,0.0,-2.2102,0.0,0.0,0.0,0.0,0.0,-2.8253,-2.951,-3.0309,0.0,-3.1556,0.0,-3.2116,-3.2466,-3.2789,0.0,-3.245,-3.2128,-3.2212,-3.2237,-3.2006,-3.15,-3.1154,-3.0788,-3.0404,-3.0404,-3.0404,-3.0404,-3.0404,-3.0404,-3.0404,-3.0402,-3.0371,-3.0316,0.0,-3.017,-3.0115,-3.008,-3.0059,-3.0066,-3.0181,-3.0208,-3.0157,-2.9766,-2.9607,-2.9513,-2.9143,-2.8417,-2.758,-2.7165,-2.6673,-2.6218,-2.6132,-2.5837,-2.5529,-2.5564,-2.5329,-2.5057,-2.51,-2.5122,-2.5151,-2.5151,-2.5206,-2.5259,-2.5284,-2.5326,-2.5363,-2.5364,-2.5386,-2.5363,-2.5264,-2.5252,-2.5228,-2.5197,-2.5191,-2.5214,-2.5255,-2.5261,-2.5239,-2.5197,-2.5191,-2.5191,-2.5191,-2.5191,-2.5191,-2.5191,-2.5191,-2.5191,-2.5191,-2.5119,-2.4986,-2.4794,-2.4639,-2.4451,-2.4238,-2.4209,-2.417,-2.4103,-2.4103,-2.4084,-2.7244,-2.7805,-2.8099,-2.8693,-2.8246,-2.7229,-2.5613,-2.4622,-2.3621,-2.2155,0.0,-2.0956,-2.169,0.0,-2.1514,-2.3871,0.0,-2.5864,-2.7559,-2.9182,-3.027,-3.0421,-3.1869,-3.2699,-3.2288,-3.2899,-3.3422,-3.3696,-3.3196,-3.2905,-3.3025,-3.3058,-3.2968,-3.2756,-3.2064,-3.1269,-3.0404,-3.0404,-3.0404,-3.0404,-3.0404,-3.0404,-3.0404,-3.0404,-3.0311,-3.0182,-3.0162,0.0,-2.9946,-2.9939,-2.9931,-2.9939,-3.0022,-3.0052,-3.0059,-3.0207,-3.0246,-3.024,-3.0279,-2.9794,-2.8983,-2.8128,-2.777,-2.7663,-2.7519,-2.6873,-2.6197,-2.6197,-2.561,-2.5003,-2.5003,-2.5044,-2.5088,-2.5088,-2.5136,-2.519,-2.5257,-2.5273,-2.5279,-2.5306,-2.5324,-2.5326,-2.522,-2.5229,-2.5247,-2.5191,-2.5199,-2.518,-2.518,-2.5185,-2.5191,-2.5191,-2.5191,-2.5191,-2.5191,-2.5191,-2.5191,-2.5191,-2.5191,-2.5185,-2.5168,-2.4993,-2.4862,-2.4821,-2.453,-2.4336,-2.4265,-2.4201,-2.4103,-2.3996,-2.4054,-2.4036,-2.673,-2.7776,-2.8675,-2.8136,-2.7402,-2.6392,-2.4777,-2.3786,0.0,0.0,0.0,-2.0778,-2.0503,-2.0765,0.0,-2.3303,0.0,0.0,0.0,0.0,-3.0448,0.0,0.0,0.0,0.0,0.0,0.0,0.0,0.0,-3.4103,-3.3743,-3.3888,-3.3333,-3.1948,-3.1775,-3.1269,-3.0404,-3.0404,-3.0404,-3.0404,-3.0404,-3.0404,-3.0404,-3.0404,-3.0299,-3.0115,-2.9992,0.0,-2.9681,-2.9617,-2.9589,-2.9598,-2.9709,-2.9764,-2.979,-2.9972,-2.9972,-2.9924,-3.0206,-3.0096,-2.9673,-2.8798,-2.811,-2.7591,-2.7388,-2.6794,-2.6197,-2.6197,-2.561,-2.5003,-2.5003,-2.5017,-2.5011,-2.5011,-2.5024,-2.5044,-2.505,-2.5095,-2.517,-2.5279,-2.5219,-2.5152,-2.5192,-2.5159,-2.5126,-2.512,-2.512,-2.5119,-2.5119,-2.5168,-2.5191,-2.5191,-2.5191,-2.5191,-2.5191,-2.5191,-2.5191,-2.5191,-2.5191,-2.5125,-2.4967,-2.4915,-2.4737,-2.4403,-2.4353,-2.4238,-2.4047,-2.4046,-2.4016,-2.3996,-2.3966,-2.3927,-2.7108,-2.8088,-2.8803,-2.7989,-2.72,-2.607,-2.4043,0.0,0.0,0.0,0.0,-2.0132,-2.0026,0.0,0.0,0.0,0.0,0.0,0.0,0.0,0.0,0.0,0.0,0.0,0.0,0.0,0.0,0.0,0.0,-3.4353,-3.3771,-3.3547,-3.2896,-3.1731,-3.1698,-3.1269,-3.0404,-3.0404,-3.0404,-3.0404,-3.0404,-3.0404,-3.0404,-3.0404,-3.026,-2.9992,-2.9934,0.0,-2.9492,-2.9461,-2.946,-2.947,-2.955,-2.9589,-2.9608,-2.9782,-2.979,-2.9764,-2.9934,-2.9926,-2.975,-2.9264,-2.8961,-2.8734,-2.8625,-2.773,-2.6794,-2.6865,-2.597,-2.5003,-2.5003,-2.5003,-2.5003,-2.5003,-2.5003,-2.5003,-2.5003,-2.5024,-2.5076,-2.5137,-2.51,-2.5063,-2.5087,-2.5095,-2.5101,-2.5101,-2.5095,-2.5101,-2.5101,-2.512,-2.5169,-2.5205,-2.5191,-2.5191,-2.5191,-2.5107,-2.5044,-2.5044,-2.498,-2.4872,-2.476,-2.464,-2.4497,-2.4302,-2.4201,-2.4078,-2.3955,-2.3986,-2.3958,-2.3896,-2.3896,-2.3886,-2.731,-2.8136,-2.8546,-2.7732,-2.7071,-2.5923,-2.3318,-2.2244,0.0,0.0,0.0,-1.9573,-1.9815,0.0,0.0,0.0,0.0,0.0,0.0,0.0,0.0,0.0,0.0,0.0,0.0,0.0,0.0,0.0,0.0,0.0,-3.3619,-3.2997,-3.2335,-3.1655,-3.1636,-3.1245,-3.0404,-3.0355,-3.0355,-3.0404,-3.0355,-3.0343,-3.0343,-3.0343,-3.0161,-2.9836,-2.9836,0.0,0.0,-2.9396,-2.9396,-2.9407,-2.9451,-2.9481,-2.9501,-2.9617,-2.9655,-2.9655,-2.9701,-2.9673,-2.9645,-2.9522,-2.9626,-2.9769,-2.9745,-2.8587,-2.7293,-2.7418,-2.6237,-2.4957,-2.4957,-2.4971,-2.5003,-2.5003,-2.5003,-2.5003,-2.5003,-2.5003,-2.5003,-2.5003,-2.5004,-2.5005,-2.5005,-2.5044,-2.5082,-2.5082,-2.5089,-2.507,-2.507,-2.5095,-2.512,-2.5162,-2.5187,-2.5156,-2.5113,-2.4967,-2.4867,-2.4814,-2.4716,-2.4626,-2.4534,-2.4381,-2.4265,-2.4219,-2.4066,-2.3955,-2.3886,-2.3927,-2.3907,-2.3806,-2.3847,-2.3847,-2.6484,-2.7291,-2.7714,-2.6906,-2.6638,-2.5786,-2.2639,0.0,0.0,0.0,-1.9499,-1.954,-1.9695,-1.9763,0.0,0.0,0.0,0.0,0.0,0.0,0.0,0.0,0.0,0.0,0.0,0.0,0.0,0.0,0.0,0.0,-3.3572,-3.2848,-3.2124,-3.1456,-3.1424,-3.1097,-3.0404,-3.0228,-3.0209,-3.0404,-3.0209,-3.0129,-3.0129,-3.0129,-2.9935,-2.9635,-2.9635,0.0,0.0,-2.9396,-2.9396,-2.9407,-2.9417,-2.9417,-2.9427,-2.9491,-2.9512,-2.954,-2.9655,-2.9626,-2.9512,-2.9502,-2.9598,-2.9692,-2.9551,-2.8446,-2.7213,-2.723,-2.6056,-2.4827,-2.4827,-2.4903,-2.5003,-2.5003,-2.5003,-2.5003,-2.5003,-2.5003,-2.5003,-2.5003,-2.5003,-2.501,-2.501,-2.501,-2.5017,-2.5017,-2.5018,-2.5018,-2.5018,-2.5063,-2.5101,-2.5108,-2.5108,-2.5044,-2.4847,-2.4818,-2.4727,-2.4546,-2.4522,-2.4458,-2.433,-2.4312,-2.4201,-2.3937,-2.3917,-2.3886,-2.3806,-2.3816,-2.3806,-2.3806,-2.3806,-2.3806,-2.5658,-2.6465,-2.6888,-2.609,-2.5888,-2.5154,-2.2418,0.0,-2.1333,-1.9711,-1.9376,-1.9419,-1.9547,-1.9573,-1.9665,0.0,-2.0266,-2.1022,0.0,0.0,0.0,0.0,0.0,0.0,0.0,0.0,0.0,0.0,0.0,0.0,-3.2441,-3.1816,-3.1143,-3.051,-3.0498,-3.0369,-3.0104,-3.0026,-3.0026,-3.0104,-3.0026,-2.9977,-2.9977,-2.9977,-2.9842,-2.9608,-2.9608,0.0,0.0,-2.9396,-2.9396,-2.9396,-2.9396,-2.9396,-2.9407,-2.9429,-2.944,-2.945,-2.949,-2.948,-2.944,-2.944,-2.947,-2.951,-2.9492,-2.8736,-2.7763,-2.7319,-2.6357,-2.534,-2.4877,-2.4805,-2.4903,-2.4971,-2.5003,-2.5003,-2.5003,-2.5003,-2.5003,-2.5003,-2.5003,-2.5003,-2.5003,-2.5003,-2.5003,-2.5003,-2.4998,-2.5004,-2.5004,-2.5018,-2.5043,-2.5043,-2.5076,-2.5031,-2.4811,-2.4689,-2.4556,-2.4382,-2.4266,-2.4154,-2.4057,-2.4057,-2.3988,-2.3837,-2.3837,-2.3827,-2.3806,-2.3806,-2.3806,-2.3806,-2.3806,-2.3806,-2.474,-2.5631,-2.6098,-2.554,-2.5209,-2.4475,0.0,0.0,-2.1023,-1.9591,-1.9297,-1.9335,-1.9427,-1.9448,-1.9448,-1.9448,-1.9645,-2.0266,-2.1609,0.0,0.0,0.0,0.0,0.0,0.0,0.0,0.0,0.0,0.0,0.0,-3.1342,-3.0921,-3.0433,-2.983,-2.982,-2.9845,-2.9902,-2.9845,-2.9845,-2.9894,-2.9845,-2.982,-2.982,-2.982,-2.9716,-2.9541,-2.9541,0.0,0.0,-2.9396,-2.9396,-2.9396,-2.9396,-2.9396,-2.9396,-2.9396,-2.9396,-2.9396,-2.9396,-2.9396,-2.9396,-2.9396,-2.9396,-2.9417,-2.9451,-2.8883,-2.8128,-2.7605,-2.6705,-2.5691,-2.4898,-2.4746,-2.4805,-2.491,-2.495,-2.4957,-2.4996,-2.5003,-2.5003,-2.5003,-2.5003,-2.5003,-2.5003,-2.5003,-2.5003,-2.5003,-2.5003,-2.5003,-2.5003,-2.5003,-2.5003,-2.5003,-2.4984,-2.4891,-2.4708,-2.4546,-2.4381,-2.4163,-2.4018,-2.3917,-2.3876,-2.3876,-2.3855,-2.3806,-2.3806,-2.3806,-2.3806,-2.3806,-2.3806,-2.3806,-2.3806,-2.3764,-2.3768,-2.4805,-2.5411,-2.5393,-2.4805,-2.3786,0.0,-2.1125,-2.0272,-1.9481,-1.9297,-1.9297,-1.9297,-1.9297,-1.9297,-1.9297,-1.9968,-2.0804,-2.1684,0.0,0.0,0.0,0.0,0.0,0.0,0.0,0.0,0.0,0.0,0.0,-3.0496,-3.0472,-3.0227,-2.9617,-2.9608,-2.9707,-2.9894,-2.9707,-2.9688,-2.9894,-2.9707,-2.9608,-2.9608,-2.9608,-2.9522,0.0,0.0,0.0,0.0,-2.9396,-2.9396,-2.9396,-2.9396,-2.9396,-2.9396,-2.9396,-2.9396,-2.9396,-2.9396,-2.9396,-2.9396,-2.9396,-2.9396,-2.9407,-2.9407,-2.8783,-2.8096,-2.8096,-2.6991,-2.5624,-2.489,-2.47,-2.4723,-2.4798,-2.4794,-2.4842,-2.4964,-2.5003,-2.5003,-2.5003,-2.5003,-2.5003,-2.5003,-2.5003,-2.5003,-2.5003,-2.5003,-2.5003,-2.5003,-2.5003,-2.5003,-2.5003,-2.4824,-2.4626,-2.4415,-2.4398,-2.4238,-2.3837,-2.3806,-2.3806,-2.3806,-2.3806,-2.3806,-2.3806,-2.3806,-2.3806,-2.3806,-2.3806,-2.3806,-2.3806,-2.3806,-2.3689,-2.1365,-2.2281,-2.2804,-2.2208,-2.2299,-2.2271,-2.1161,-2.0694,-2.0272,-1.9481,-1.9297,-1.9297,-1.9297,-1.9297,-1.9481,-2.0034,-2.0327,0.0,0.0,0.0,0.0,0.0,0.0,0.0,0.0,0.0,0.0,0.0,0.0,0.0,-3.0383,-2.9861,-2.9575,-2.948,-2.9461,-2.9491,-2.9569,-2.9501,-2.9501,-2.9569,-2.9491,-2.9461,-2.9461,-2.9461,-2.945,0.0,0.0,0.0,0.0,-2.9396,-2.9396,-2.9396,-2.9396,-2.9396,-2.9396,-2.9396,-2.9396,-2.9396,-2.9396,-2.9396,-2.9396,-2.9396,-2.9396,-2.9396,-2.9396,-2.9211,-2.8746,-2.7594,-2.6535,-2.5557,-2.4829,-2.4621,-2.4621,-2.4602,-2.4602,-2.4567,-2.4472,-2.4588,-2.4696,-2.4548,-2.4791,-2.495,-2.4824,-2.4783,-2.4783,-2.4783,-2.4673,-2.4583,-2.4583,-2.4583,-2.4583,-2.4583,-2.4534,-2.4476,-2.4407,-2.4275,-2.4079,-2.3816,-2.3806,-2.3806,-2.3806,-2.3806,-2.3806,-2.3806,-2.3806,-2.3806,-2.3806,-2.3806,-2.3721,-2.3587,-2.3411,-2.3295,0.0,-2.0668,-2.1253,-2.1008,-2.1118,-2.1171,-2.0623,-2.0274,-1.9908,-1.9399,-1.9297,-1.9297,-1.9297,-1.9297,-1.9462,-1.9968,-2.0309,0.0,0.0,0.0,0.0,0.0,0.0,0.0,0.0,0.0,0.0,0.0,0.0,0.0,-2.9881,-2.9411,-2.9229,-2.9365,-2.9386,-2.9396,-2.9396,-2.9396,-2.9396,-2.9396,-2.9396,-2.9396,-2.9396,-2.9396,-2.9396,0.0,0.0,0.0,0.0,-2.9396,-2.9396,-2.9396,-2.9396,-2.9396,-2.9396,-2.9396,-2.9396,-2.9396,-2.9396,-2.9396,-2.9396,-2.9396,-2.9396,-2.9396,-2.9396,-2.9396,-2.9043,-2.7371,-2.6535,-2.5903,-2.4839,-2.4515,-2.4435,-2.4434,-2.4391,-2.4319,-2.421,-2.4335,-2.4414,-2.4291,-2.4489,-2.4662,-2.4567,-2.4551,-2.4559,-2.4575,-2.4485,-2.4398,-2.4398,-2.4398,-2.4398,-2.4398,-2.4328,-2.4284,-2.4284,-2.4164,-2.4001,-2.3816,-2.3806,-2.3806,-2.3806,-2.3806,-2.3806,-2.3806,-2.3721,-2.3721,-2.3806,-2.3721,-2.3576,-2.3336,-2.3072,-2.2947,0.0,-1.9617,-2.0403,-2.1102,-2.0754,-2.025,-2.0305,-1.9748,0.0,-1.9282,-1.9289,-1.9315,-1.937,-1.9334,-1.9334,-1.9462,0.0,0.0,0.0,0.0,0.0,0.0,0.0,0.0,0.0,0.0,0.0,0.0,0.0,0.0,-2.9133,-2.9108,-2.9163,-2.9291,-2.9355,-2.9396,-2.9396,-2.9396,-2.9396,-2.9396,-2.9396,-2.9396,-2.9396,-2.9396,-2.9396,0.0,0.0,0.0,0.0,-2.9396,-2.9396,-2.9396,-2.9396,-2.9396,-2.9396,-2.9396,-2.9396,-2.9396,-2.9396,-2.9396,-2.9396,-2.9396,-2.9396,-2.9396,-2.9396,-2.9396,-2.9043,-2.7371,-2.6907,-2.6535,-2.4927,-2.4348,-2.4201,-2.4265,-2.4164,-2.4088,-2.4146,-2.4165,-2.4174,-2.4155,-2.4183,-2.421,-2.4283,-2.4283,-2.4301,-2.4363,-2.4363,-2.4355,-2.4355,-2.4355,-2.4355,-2.4355,-2.4183,-2.4087,-2.4087,-2.4087,-2.4009,-2.3816,-2.3806,-2.3806,-2.3806,-2.3806,-2.3795,-2.3774,-2.3576,-2.3565,-2.3753,-2.3542,-2.3313,-2.3072,-2.2799,-2.2672,-1.6135,0.0,-1.7585,-1.7211,-1.7391,-1.7826,0.0,-1.8439,-1.8483,0.0,0.0,-1.9497,-2.0099,-1.9711,-1.9719,0.0,0.0,0.0,0.0,0.0,0.0,0.0,0.0,0.0,0.0,0.0,0.0,0.0,0.0,-2.9861,-2.9065,-2.9067,-2.91,-2.9152,-2.9218,-2.9272,-2.9323,-2.9323,-2.9323,-2.9323,-2.9323,-2.9355,-2.9396,-2.9396,-2.9396,0.0,0.0,0.0,-2.9396,-2.9396,-2.9396,-2.9396,-2.9396,-2.9396,-2.9396,-2.9396,-2.9396,-2.9396,-2.9396,-2.9396,-2.9396,-2.9396,-2.9396,-2.9396,-2.9396,-2.9396,-2.9043,-2.7371,-2.6907,-2.6535,-2.4927,-2.4348,-2.4182,-2.4096,-2.3929,-2.3767,-2.3685,-2.3827,-2.3929,-2.3761,-2.3992,-2.4174,-2.4087,-2.4077,-2.4078,-2.408,-2.3999,-2.3937,-2.3931,-2.3941,-2.3941,-2.3941,-2.3896,-2.3873,-2.3868,-2.3878,-2.3858,-2.3806,-2.3806,-2.3806,-2.3806,-2.3806,-2.3721,-2.3576,-2.3324,-2.3212,-2.3271,-2.301,-2.285,-2.2786,-2.2511,-2.2391,-1.4919,-1.6171,-1.7337,-1.7282,-1.7851,-1.8521,-1.895,0.0,0.0,0.0,0.0,0.0,-1.9321,0.0,0.0,0.0,0.0,0.0,0.0,0.0,0.0,0.0,0.0,0.0,0.0,0.0,0.0,0.0,0.0,-2.9464,-2.9023,-2.904,-2.9074,-2.9089,-2.9152,-2.9197,-2.9251,-2.9251,-2.9251,-2.9251,-2.9291,-2.9323,-2.9355,-2.9386,-2.9396,0.0,0.0,0.0,-2.9396,-2.9396,-2.9396,-2.9396,-2.9396,-2.9396,-2.9396,-2.9396,-2.9396,-2.9396,-2.9396,-2.9344,-2.9262,-2.9262,-2.9189,-2.9123,-2.9123,-2.9123,-2.8879,-2.7777,-2.7185,-2.66,-2.5264,-2.4514,-2.4067,-2.3907,-2.3739,-2.3594,-2.3528,-2.3611,-2.3682,-2.3573,-2.3739,-2.386,-2.3821,-2.3818,-2.3821,-2.3865,-2.38,-2.3754,-2.3739,-2.375,-2.375,-2.375,-2.3747,-2.3754,-2.375,-2.375,-2.3771,-2.3795,-2.3803,-2.38,-2.38,-2.3646,-2.3422,-2.3091,-2.3037,-2.29,-2.2694,-2.2668,-2.2561,-2.2381,-2.2231,-2.2147,-1.4664,-1.6424,-1.8229,-1.8497,-1.9244,-1.9926,-1.9926,0.0,0.0,0.0,0.0,0.0,0.0,0.0,0.0,0.0,0.0,0.0,0.0,0.0,0.0,0.0,0.0,0.0,0.0,0.0,0.0,0.0,0.0,-2.9005,-2.9005,-2.9005,-2.9028,-2.9078,-2.9078,-2.91,-2.9167,-2.9178,-2.9178,-2.9178,-2.924,-2.9262,-2.9291,-2.9355,-2.9386,-2.9386,0.0,0.0,-2.9396,-2.9396,-2.9396,-2.9396,-2.9396,-2.9396,-2.9396,-2.9396,-2.9396,-2.9396,-2.9396,-2.9262,-2.9089,-2.9089,-2.8957,-2.8797,-2.8797,-2.8773,-2.8687,-2.8302,-2.7544,-2.6606,-2.5628,-2.4752,-2.407,-2.3771,-2.3694,-2.3648,-2.3523,-2.3505,-2.3505,-2.3505,-2.3505,-2.3517,-2.3573,-2.3573,-2.3607,-2.3667,-2.3678,-2.3689,-2.37,-2.37,-2.37,-2.37,-2.3689,-2.3689,-2.37,-2.3689,-2.3703,-2.3774,-2.3779,-2.3775,-2.3775,-2.3429,-2.3042,-2.2664,-2.2712,-2.256,-2.2168,-2.2398,-2.2337,-2.2013,-2.2013,-2.2013,-1.5968,-1.7607,-1.8467,-1.653,-1.7169,-1.8278,-1.8278,0.0,0.0,0.0,0.0,0.0,0.0,0.0,0.0,0.0,0.0,0.0,0.0,0.0,0.0,0.0,0.0,0.0,0.0,0.0,0.0,0.0,0.0,-2.9005,-2.9005,-2.9005,-2.9005,-2.9017,-2.9017,-2.9028,-2.904,-2.9096,-2.913,-2.913,-2.913,-2.9163,-2.9229,-2.9272,-2.9323,-2.9323,0.0,-2.9396,-2.9396,-2.9396,-2.9396,-2.9396,-2.9396,-2.9396,-2.9396,-2.9396,-2.9396,-2.9396,-2.9396,-2.9262,-2.9089,-2.9089,-2.8957,-2.8797,-2.8797,-2.8676,-2.856,-2.8669,-2.7606,-2.6289,-2.5442,-2.5002,-2.4588,-2.3866,-2.4107,-2.4326,-2.3648,-2.3505,-2.3505,-2.3505,-2.3505,-2.3505,-2.3517,-2.3517,-2.3539,-2.3607,-2.3618,-2.3641,-2.3689,-2.37,-2.37,-2.37,-2.3652,-2.3641,-2.37,-2.3652,-2.3634,-2.3721,-2.3721,-2.3711,-2.3711,-2.3242,-2.293,-2.2871,-2.2371,-2.2096,-2.2027,-2.207,-2.207,-2.2013,-2.2013,-2.2013,-1.4548,-1.6251,-1.7636,-1.6962,-1.8669,-2.0499,-2.0499,0.0,0.0,0.0,0.0,0.0,0.0,0.0,0.0,0.0,0.0,0.0,0.0,0.0,0.0,0.0,0.0,0.0,0.0,0.0,0.0,0.0,0.0,0.0,-2.9005,-2.9005,-2.9005,-2.9005,-2.9005,-2.9005,-2.9005,-2.904,-2.9051,-2.9051,-2.9078,-2.913,-2.9163,-2.9218,-2.928,-2.9302,0.0,-2.9365,-2.9396,-2.9365,-2.9344,-2.9344,-2.9304,-2.9304,-2.9355,-2.9386,-2.9396,-2.9386,-2.9272,-2.91,-2.891,-2.8803,-2.8632,-2.8453,-2.8388,-2.8304,-2.8233,-2.8201,-2.7264,-2.6254,-2.6311,-2.5615,-2.4892,-2.4854,-2.5076,-2.5087,-2.4308,-2.4147,-2.4022,-2.3577,-2.3505,-2.3505,-2.3505,-2.3505,-2.3517,-2.3539,-2.3539,-2.3562,-2.3596,-2.3589,-2.3589,-2.3589,-2.3573,-2.3562,-2.3596,-2.3573,-2.3573,-2.3652,-2.3652,-2.3567,-2.3377,-2.301,-2.2743,-2.2638,-2.2184,-2.194,-2.194,-2.194,-2.1943,-2.1899,-2.1899,-2.1899,-1.3781,-1.5146,-1.6704,-1.7881,0.0,-2.1721,-2.2282,0.0,0.0,0.0,0.0,0.0,0.0,0.0,0.0,0.0,0.0,0.0,0.0,0.0,0.0,0.0,0.0,0.0,0.0,0.0,0.0,0.0,0.0,0.0,-2.9005,-2.9005,-2.9005,-2.9005,-2.9005,-2.9005,-2.9005,-2.9005,-2.9005,-2.9005,-2.9044,-2.9085,-2.9085,-2.9163,-2.9189,-2.924,-2.9262,-2.9304,-2.9365,-2.9211,-2.9178,-2.9178,-2.903,-2.906,-2.9178,-2.9222,-2.9304,-2.9336,-2.9082,-2.8922,-2.8749,-2.8531,-2.8313,-2.8126,-2.8042,-2.7957,-2.7853,-2.773,-2.696,-2.6313,-2.6997,-2.629,-2.5458,-2.5718,-2.5943,-2.5836,-2.4908,-2.4694,-2.4462,-2.3666,-2.3505,-2.3505,-2.3505,-2.3505,-2.3505,-2.3505,-2.3505,-2.3505,-2.3505,-2.3505,-2.3505,-2.3505,-2.3505,-2.3505,-2.3505,-2.3448,-2.3436,-2.3482,-2.3494,-2.3413,-2.3205,-2.279,-2.2541,-2.248,-2.2087,-2.1884,-2.1884,-2.1884,-2.1855,-2.1812,-2.1812,-2.1812,-1.5841,-1.6026,-1.6146,-1.8435,-1.8624,0.0,-2.1079,-2.0336,0.0,0.0,0.0,0.0,0.0,0.0,0.0,0.0,0.0,0.0,0.0,0.0,0.0,0.0,0.0,0.0,0.0,0.0,0.0,0.0,0.0,0.0,-2.9005,-2.9005,-2.9005,-2.9005,-2.9005,-2.9005,-2.9005,-2.9005,-2.9005,-2.9005,-2.9005,-2.9005,-2.9017,-2.9085,-2.91,-2.913,-2.9167,-2.9251,-2.9272,-2.8902,-2.879,-2.8802,-2.8491,-2.8516,-2.8736,-2.8748,-2.8989,-2.9251,-2.8867,-2.8761,-2.8755,-2.8414,-2.8178,-2.7996,-2.7996,-2.778,-2.7572,-2.7672,-2.7017,-2.6376,-2.6741,-2.6828,-2.6683,-2.5961,-2.6371,-2.6496,-2.5015,-2.4694,-2.4462,-2.3666,-2.3505,-2.3505,-2.3505,-2.3505,-2.3505,-2.3505,-2.3505,-2.3505,-2.3505,-2.3505,-2.3505,-2.3505,-2.3505,-2.3505,-2.3505,-2.3265,-2.3132,-2.3144,-2.3144,-2.3241,-2.3471,-2.2682,-2.2375,-2.266,-2.2099,-2.1812,-2.1812,-2.1812,-2.1796,-2.1812,-2.1812,-2.1812,-1.3461,-1.4596,-1.5838,-1.7247,-1.8135,0.0,0.0,0.0,0.0,0.0,0.0,0.0,0.0,0.0,0.0,0.0,0.0,0.0,0.0,0.0,0.0,0.0,0.0,0.0,0.0,0.0,0.0,0.0,0.0,0.0,-2.9005,-2.9005,-2.9005,-2.9005,-2.9005,-2.9005,-2.9005,-2.9005,-2.9005,-2.9005,-2.9005,-2.9005,-2.9005,-2.9028,-2.9062,-2.9089,-2.9141,-2.9186,-2.9218,-2.8857,-2.8707,-2.8694,-2.8368,-2.8298,-2.8389,-2.844,-2.8559,-2.8652,-2.8368,-2.8277,-2.8255,-2.8017,-2.7879,-2.7806,-2.7721,-2.7602,-2.7496,-2.745,-2.7257,-2.7088,-2.7309,-2.7126,-2.6916,-2.7125,-2.7464,-2.7446,-2.6354,-2.6122,-2.5765,-2.4486,-2.4248,-2.4088,-2.3594,-2.3505,-2.3505,-2.3505,-2.3505,-2.3505,-2.3505,-2.3505,-2.3505,-2.3505,-2.3505,-2.3505,-2.3505,-2.3413,-2.3277,-2.3119,-2.2935,-2.2897,-2.2998,-2.2497,-2.2261,-2.2388,-2.1998,-2.1812,-2.1812,-2.1812,-2.1812,-2.1812,-2.1812,-2.1812,-1.2586,-1.4046,-1.5748,0.0,0.0,0.0,0.0,0.0,0.0,0.0,0.0,0.0,0.0,0.0,0.0,0.0,0.0,0.0,0.0,0.0,0.0,0.0,0.0,0.0,0.0,0.0,0.0,0.0,0.0,0.0,0.0,-2.9005,-2.9005,-2.9005,-2.9005,-2.9005,-2.9005,-2.9005,-2.9005,-2.9005,-2.9005,-2.9005,-2.9005,-2.9005,-2.9028,-2.9074,-2.9074,-2.9119,-2.9134,-2.87,-2.8422,-2.8237,-2.8014,-2.7968,-2.8051,-2.8102,-2.8166,-2.8232,-2.7996,-2.7957,-2.7954,-2.7716,-2.7644,-2.763,-2.7542,-2.7465,-2.7421,-2.733,-2.7376,-2.7467,-2.7539,-2.7332,-2.724,-2.7844,-2.8071,-2.794,-2.7174,-2.697,-2.648,-2.4985,-2.4646,-2.4367,-2.3636,-2.3505,-2.3505,-2.3505,-2.3505,-2.3505,-2.3505,-2.3505,-2.3494,-2.3448,-2.3464,-2.3459,-2.3313,-2.3277,-2.3109,-2.2829,-2.2567,-2.25,-2.2686,-2.2292,-2.2108,-2.2206,-2.1926,-2.1812,-2.1812,-2.1812,-2.1812,-2.1812,-2.1812,-2.1812,-1.4064,-1.4872,-1.5893,0.0,0.0,0.0,0.0,0.0,0.0,0.0,0.0,0.0,0.0,0.0,0.0,0.0,0.0,0.0,0.0,0.0,0.0,0.0,0.0,0.0,0.0,0.0,0.0,0.0,0.0,0.0,0.0,-2.8987,-2.8987,-2.8987,-2.8987,-2.8994,-2.9005,-2.9005,-2.9005,-2.9005,-2.8994,-2.8994,-2.8994,-2.8994,-2.8994,-2.8994,-2.8994,-2.904,-2.9044,-2.8368,-2.7786,-2.7299,-2.7299,-2.745,-2.7701,-2.7701,-2.7915,-2.8143,-2.7815,-2.7829,-2.7943,-2.76,-2.7496,-2.7496,-2.7496,-2.7405,-2.7299,-2.7299,-2.7299,-2.7299,-2.7299,-2.7496,-2.7745,-2.794,-2.8,-2.7812,-2.7148,-2.6894,-2.6397,-2.4979,-2.4543,-2.4215,-2.3595,-2.3505,-2.3505,-2.3505,-2.3505,-2.3505,-2.3505,-2.3505,-2.3459,-2.333,-2.3424,-2.3354,-2.2944,-2.2786,-2.2567,-2.222,-2.1955,-2.2073,-2.2677,-2.213,-2.1926,-2.2192,-2.1926,-2.1812,-2.1812,-2.1812,-2.1812,-2.1812,-2.1812,-2.1812,-1.2694,-1.4439,0.0,0.0,0.0,0.0,0.0,0.0,0.0,0.0,0.0,0.0,0.0,0.0,0.0,0.0,0.0,0.0,0.0,0.0,0.0,0.0,0.0,0.0,0.0,0.0,0.0,0.0,0.0,0.0,0.0,-2.7672,-2.7971,-2.8154,-2.8523,-2.8803,-2.9005,-2.9005,-2.9005,-2.8994,-2.8803,-2.8718,-2.8718,-2.8718,-2.8601,-2.8373,-2.8373,-2.852,-2.8713,-2.8295,-2.7786,-2.7299,-2.7299,-2.7345,-2.7421,-2.7421,-2.7481,-2.7539,-2.7434,-2.7467,-2.7481,-2.739,-2.736,-2.736,-2.736,-2.7329,-2.7299,-2.7299,-2.7299,-2.7299,-2.7299,-2.736,-2.7467,-2.7617,-2.7719,-2.7736,-2.7533,-2.7451,-2.6996,-2.5473,-2.5226,-2.484,-2.3579,-2.3448,-2.3505,-2.3505,-2.3505,-2.3505,-2.3505,-2.3987,-2.4278,-2.4085,-2.4448,-2.4462,-2.3855,-2.3619,-2.3131,-2.2323,-2.2192,-2.2124,-2.2073,-2.1899,-2.1827,-2.1855,-2.1827,-2.1783,-2.1723,-2.1783,-2.1812,-2.1812,-2.1812,-2.1812,-1.3678,0.0,0.0,0.0,0.0,0.0,0.0,0.0,0.0,0.0,0.0,0.0,0.0,0.0,0.0,0.0,0.0,0.0,0.0,0.0,0.0,0.0,0.0,0.0,0.0,0.0,0.0,0.0,0.0,0.0,0.0,-2.6749,-2.7109,-2.7476,-2.7802,-2.825,-2.8846,-2.8846,-2.8893,-2.8994,-2.8731,-2.8538,-2.8404,-2.8404,-2.8295,-2.8102,-2.8102,-2.8143,-2.8219,-2.8024,-2.7686,-2.7299,-2.7299,-2.7299,-2.7299,-2.7299,-2.7299,-2.7299,-2.7299,-2.7299,-2.7299,-2.7299,-2.7299,-2.7299,-2.7299,-2.7299,-2.7299,-2.7299,-2.7299,-2.7299,-2.7299,-2.7202,-2.7168,-2.7434,-2.7478,-2.7491,-2.7535,-2.7413,-2.6957,-2.5756,-2.5542,-2.5174,-2.3981,-2.3645,-2.3541,-2.3541,-2.3344,-2.3365,-2.391,-2.4247,-2.4486,-2.462,-2.4927,-2.4846,-2.4139,-2.3742,-2.3209,-2.2463,-2.2178,-2.1926,-2.1723,-2.1708,-2.1709,-2.1664,-2.1709,-2.1709,-2.1664,-2.1723,-2.1753,-2.1753,-2.1797,-2.1812,-1.5877,0.0,0.0,0.0,0.0,0.0,0.0,0.0,0.0,0.0,0.0,0.0,0.0,0.0,0.0,0.0,0.0,0.0,0.0,0.0,0.0,0.0,0.0,0.0,0.0,0.0,0.0,0.0,0.0,0.0,0.0,-2.6023,-2.6303,-2.6869,-2.6938,-2.7466,-2.8533,-2.8576,-2.8706,-2.8917,-2.8663,-2.8373,-2.8061,-2.8061,-2.8047,-2.8034,-2.8047,-2.7911,-2.7657,-2.7686,-2.7539,-2.7299,-2.7299,-2.7299,-2.7299,-2.7299,-2.7299,-2.7299,-2.7299,-2.7299,-2.7299,-2.7299,-2.7299,-2.7299,-2.7299,-2.7299,-2.7299,-2.7299,-2.7299,-2.7282,-2.7266,-2.7039,-2.6907,-2.7308,-2.7214,-2.7069,-2.7194,-2.6939,-2.6471,-2.5789,-2.559,-2.5273,-2.4588,-2.4045,-2.3673,-2.3673,-2.322,-2.3311,-2.4518,-2.4362,-2.4375,-2.4982,-2.5077,-2.4829,-2.41,-2.3565,-2.3085,-2.2637,-2.2047,-2.167,-2.1574,-2.1589,-2.1589,-2.1589,-2.1589,-2.1589,-2.1589,-2.1664,-2.1694,-2.1694,-2.1753,-2.1783,0.0,-1.6443,0.0,0.0,0.0,0.0,0.0,0.0,0.0,0.0,0.0,0.0,0.0,0.0,0.0,0.0,0.0,0.0,0.0,0.0,0.0,0.0,0.0,0.0,0.0,0.0,0.0,0.0,0.0,0.0,-2.4259,-2.4633,-2.5242,-2.6027,-2.6459,-2.7177,-2.8197,-2.8469,-2.8495,0.0,-2.8237,-2.8065,-2.7786,-2.7786,-2.7672,-2.7481,-2.7683,-2.7627,-2.7405,-2.7615,-2.7539,-2.7299,-2.7299,-2.7299,-2.7299,-2.7299,-2.7299,-2.7299,-2.7299,-2.7299,-2.7299,-2.7299,-2.7299,-2.7299,-2.7299,-2.7299,-2.7299,-2.7299,-2.7299,-2.7234,-2.6973,-2.6858,-2.6758,-2.6657,-2.659,-2.6573,-2.659,-2.6539,-2.6252,-2.553,-2.5445,-2.5241,-2.4481,-2.4318,-2.4307,-2.4307,-2.42,-2.4223,-2.4525,-2.4998,-2.5352,-2.5383,-2.573,-2.5681,-2.5046,-2.4696,-2.4001,-2.275,-2.2537,-2.213,-2.1388,-2.1528,-2.1542,-2.1449,-2.1542,-2.1542,-2.1449,-2.1557,-2.162,-2.162,-2.165,-2.1634,0.0,0.0,0.0,0.0,0.0,0.0,0.0,0.0,0.0,0.0,0.0,0.0,0.0,0.0,0.0,0.0,0.0,0.0,0.0,0.0,0.0,0.0,0.0,0.0,0.0,0.0,0.0,0.0,0.0,-2.3628,-2.3335,-2.3613,-2.4096,-2.4778,-2.509,-2.5764,-2.6792,-2.7362,-2.7625,-2.7576,-2.7445,-2.7046,-2.6432,-2.7163,-2.7436,-2.7315,-2.7452,-2.7436,-2.7297,-2.7434,-2.7436,-2.7299,-2.7299,-2.7299,-2.7299,-2.7299,-2.7299,-2.7299,-2.7299,-2.7299,-2.7299,-2.7299,-2.7299,-2.7299,-2.7299,-2.7299,-2.7299,-2.7299,-2.7299,-2.7218,-2.6874,-2.6691,-2.6556,-2.6261,-2.6207,-2.6207,-2.6207,-2.6118,-2.5911,-2.5515,-2.5503,-2.5406,-2.4992,-2.4713,-2.4496,-2.4335,-2.4206,-2.4355,-2.499,-2.5272,-2.5513,-2.5799,-2.6011,-2.5918,-2.5482,-2.4979,-2.4385,-2.3618,-2.3259,-2.2867,-2.2378,-2.2118,-2.1776,-2.1356,-2.1419,-2.1419,-2.1356,-2.1449,-2.1495,-2.1511,-2.1557,-2.1604,0.0,0.0,0.0,0.0,0.0,0.0,0.0,0.0,0.0,0.0,0.0,0.0,0.0,0.0,0.0,0.0,0.0,0.0,0.0,0.0,0.0,0.0,0.0,0.0,0.0,0.0,0.0,0.0,0.0,-2.3347,-2.2973,-2.2965,-2.3185,-2.3687,-2.3746,-2.4275,-2.5298,-2.6033,-2.6474,-2.6628,-2.6419,-2.5854,-2.504,-2.6316,-2.6971,-2.7092,-2.723,-2.7299,-2.7299,-2.7299,-2.7299,-2.7299,-2.7299,-2.7299,-2.7299,-2.7299,-2.7299,-2.7299,-2.7299,-2.7299,-2.7299,-2.7299,-2.7299,-2.7299,-2.7299,-2.7299,-2.7299,-2.7299,-2.725,-2.7137,-2.6808,-2.6539,-2.6261,-2.5992,-2.5936,-2.5936,-2.5936,-2.5749,-2.5597,-2.5597,-2.5597,-2.5597,-2.5597,-2.5151,-2.4677,-2.4398,-2.4181,-2.4429,-2.5545,-2.5396,-2.5404,-2.6038,-2.5994,-2.5844,-2.5616,-2.5033,-2.4646,-2.4517,-2.3982,-2.3609,-2.3496,-2.2912,-2.2232,-2.1503,-2.1358,-2.1293,-2.1293,-2.1356,-2.1386,-2.1386,-2.1496,-2.1559,0.0,0.0,0.0,0.0,0.0,0.0,0.0,0.0,0.0,0.0,0.0,0.0,0.0,0.0,0.0,0.0,0.0,0.0,0.0,0.0,0.0,0.0,0.0,0.0,0.0,0.0,0.0,0.0,-2.3609,-2.3394,-2.3163,-2.2957,-2.3097,-2.3673,-2.3721,-2.411,-2.4959,-2.5352,-2.5432,-2.5187,-2.5201,-2.5135,-2.5005,-2.5212,-2.5661,-2.6299,-2.7006,-2.7299,-2.7299,-2.7299,-2.7299,-2.7299,-2.7299,-2.7299,-2.7299,-2.7299,-2.7299,-2.7299,-2.7299,-2.7299,-2.7299,-2.7299,-2.7299,-2.7299,-2.7299,-2.7299,-2.7299,-2.7299,-2.7087,-2.6808,-2.6539,-2.6243,-2.599,-2.5712,-2.5637,-2.5637,-2.5637,-2.5635,-2.5597,-2.5597,-2.5597,-2.5597,-2.5597,-2.5535,-2.5456,-2.5415,-2.538,-2.5413,-2.5587,-2.5566,-2.5577,-2.5659,-2.5656,-2.5654,-2.5597,-2.55,-2.5179,-2.4549,-2.4419,-2.4112,-2.3512,-2.3399,-2.301,-2.2264,-2.1617,-2.1293,-2.1293,-2.1309,-2.1309,-2.1309,-2.1324,-2.1341,0.0,0.0,0.0,0.0,0.0,0.0,0.0,0.0,0.0,0.0,0.0,0.0,0.0,0.0,0.0,0.0,0.0,0.0,0.0,0.0,0.0,0.0,0.0,0.0,0.0,0.0,0.0,0.0,-2.3096,-2.2952,-2.2712,-2.2619,-2.2692,-2.2948,-2.3007,-2.3206,-2.3548,-2.4109,-2.4344,-2.4236,-2.4265,-2.407,-2.3715,-2.4104,-2.4944,-2.6111,-2.6471,-2.6885,-2.7299,-2.7299,-2.7299,-2.7299,-2.7299,-2.7299,-2.7299,-2.7299,-2.7299,-2.7299,-2.7299,-2.7299,-2.7299,-2.7299,-2.7299,-2.7266,-2.7071,-2.7023,-2.699,-2.6842,-2.6674,-2.6505,-2.626,-2.6082,-2.5936,-2.5656,-2.5597,-2.5597,-2.5597,-2.5597,-2.5597,-2.5597,-2.5597,-2.5597,-2.5597,-2.5597,-2.5597,-2.5597,-2.5597,-2.5597,-2.5597,-2.5597,-2.5597,-2.5597,-2.5597,-2.5597,-2.5597,-2.5597,-2.5451,-2.5146,-2.513,-2.4984,-2.4693,-2.429,-2.3917,-2.3576,-2.2491,-2.1714,-2.1293,-2.1293,-2.1293,-2.1293,-2.1293,-2.1293,0.0,0.0,0.0,0.0,0.0,0.0,0.0,0.0,0.0,0.0,0.0,0.0,0.0,0.0,0.0,0.0,0.0,0.0,0.0,0.0,0.0,0.0,0.0,0.0,0.0,0.0,0.0,0.0,-2.2751,-2.2605,-2.2405,-2.2377,-2.2394,-2.2391,-2.2446,-2.2474,-2.2474,-2.3019,-2.3335,-2.3405,-2.3405,-2.3124,-2.268,-2.3175,-2.4136,-2.5498,-2.5891,-2.6421,-2.7006,-2.7213,-2.7299,-2.7299,-2.7299,-2.7299,-2.7299,-2.7299,-2.7299,-2.7299,-2.7299,-2.7299,-2.7299,-2.7299,-2.7234,-2.7137,-2.6874,-2.6741,-2.6674,-2.647,-2.6349,-2.6243,-2.6046,-2.5901,-2.577,-2.5562,-2.5486,-2.5483,-2.5578,-2.5597,-2.5597,-2.5597,-2.5597,-2.5597,-2.5597,-2.5597,-2.5597,-2.5597,-2.5597,-2.5597,-2.5597,-2.5597,-2.5597,-2.5597,-2.5597,-2.5597,-2.5597,-2.5597,-2.5597,-2.5597,-2.5597,-2.5597,-2.5597,-2.5082,-2.4677,-2.45,-2.348,-2.2491,-2.1568,-2.1568,-2.1471,-2.1293,-2.1293,-2.1293,0.0,0.0,0.0,0.0,0.0,0.0,0.0,0.0,0.0,0.0,0.0,0.0,0.0,0.0,0.0,0.0,0.0,0.0,0.0,0.0,0.0,0.0,0.0,0.0,0.0,0.0,0.0,0.0,-2.2838,-2.2699,-2.2672,-2.2432,-2.2338,-2.2391,-2.2391,-2.2422,-2.2422,-2.2439,-2.25,-2.2566,-2.2566,-2.2549,-2.2515,-2.2549,-2.2993,-2.3827,-2.5354,-2.6067,-2.6214,-2.6988,-2.7299,-2.7299,-2.7299,-2.7299,-2.7299,-2.7299,-2.7299,-2.7299,-2.7299,-2.7299,-2.7299,-2.7299,-2.7105,-2.6825,-2.6808,-2.6607,-2.6418,-2.6401,-2.6225,-2.601,-2.5992,-2.5677,-2.5333,-2.5314,-2.5162,-2.5139,-2.5521,-2.5597,-2.5597,-2.5597,-2.5597,-2.5597,-2.5597,-2.5597,-2.5597,-2.5597,-2.5597,-2.5597,-2.5597,-2.5597,-2.5597,-2.5597,-2.5597,-2.5597,-2.5597,-2.5597,-2.5597,-2.5597,-2.5597,-2.5597,-2.5597,-2.5549,-2.5211,-2.4517,-2.4436,-2.3705,-2.2329,-2.2329,-2.1989,-2.1293,-2.1293,-2.1293,0.0,0.0,0.0,0.0,0.0,0.0,0.0,0.0,0.0,0.0,0.0,0.0,0.0,0.0,0.0,0.0,0.0,0.0,0.0,0.0,0.0,0.0,0.0,0.0,0.0,0.0,0.0,0.0,0.0,-2.2446,-2.2446,-2.2352,-2.231,-2.2338,-2.2338,-2.2338,-2.2338,-2.2338,-2.238,-2.2432,-2.2432,-2.246,-2.2501,-2.246,-2.2596,-2.2945,-2.3969,-2.4746,-2.5379,-2.6153,-2.6478,-2.6497,-2.6979,-2.7153,-2.7122,-2.7169,-2.7168,-2.7184,-2.7266,-2.7299,-2.7282,-2.7201,-2.6923,-2.6573,-2.635,-2.6138,-2.5905,-2.5754,-2.5715,-2.5749,-2.5749,-2.5524,-2.5275,-2.5139,-2.495,-2.4875,-2.5162,-2.5201,-2.5256,-2.5371,-2.541,-2.5448,-2.5578,-2.5597,-2.5597,-2.5597,-2.5597,-2.5597,-2.5597,-2.5597,-2.5597,-2.5597,-2.5597,-2.5597,-2.5597,-2.5597,-2.5597,-2.5597,-2.5597,-2.5597,-2.5597,-2.5597,-2.5468,-2.5211,-2.49,-2.3987,-2.2394,-2.2394,-2.2021,-2.1293,-2.1293,-2.1392,0.0,0.0,0.0,0.0,0.0,0.0,0.0,0.0,0.0,0.0,0.0,0.0,0.0,0.0,0.0,0.0,0.0,0.0,0.0,0.0,0.0,0.0,0.0,0.0,0.0,0.0,0.0,0.0,0.0,0.0,-2.2296,-2.2296,-2.2296,-2.2296,-2.2296,-2.2296,-2.2296,-2.2296,-2.2324,-2.2366,-2.2366,-2.2377,-2.2432,-2.2394,-2.2377,-2.2466,-2.2886,-2.3619,-2.455,-2.5592,-2.5989,-2.6042,-2.6811,-2.7071,-2.6991,-2.6973,-2.7006,-2.707,-2.7121,-2.7153,-2.7186,-2.7119,-2.6758,-2.6281,-2.6068,-2.574,-2.5419,-2.524,-2.5294,-2.5391,-2.5391,-2.522,-2.5005,-2.4806,-2.4655,-2.4594,-2.4746,-2.4886,-2.5025,-2.5162,-2.5217,-2.5256,-2.5429,-2.5467,-2.5467,-2.5467,-2.5355,-2.5317,-2.5391,-2.5391,-2.5391,-2.5391,-2.5391,-2.5391,-2.5391,-2.5391,-2.5391,-2.5391,-2.5317,-2.5336,-2.5486,-2.5294,-2.522,-2.5375,-2.4934,-2.4032,-2.2676,-2.2832,-2.2599,-2.2037,-2.189,-2.1796,0.0,0.0,0.0,0.0,0.0,0.0,0.0,0.0,0.0,0.0,0.0,0.0,0.0,0.0,0.0,0.0,0.0,0.0,0.0,0.0,0.0,0.0,0.0,0.0,0.0,0.0,0.0,0.0,-2.2296,-2.2296,-2.2296,-2.2296,-2.2296,-2.2296,-2.2296,-2.2296,-2.2296,-2.2296,-2.2296,-2.2296,-2.2296,-2.2296,-2.2296,-2.2296,-2.2296,-2.2296,-2.2296,-2.2785,-2.3679,-2.527,-2.5889,-2.5945,-2.6745,-2.7021,-2.6958,-2.6758,-2.6792,-2.6942,-2.6808,-2.6858,-2.6975,-2.7038,-2.6573,-2.5961,-2.5977,-2.5513,-2.4985,-2.4985,-2.4985,-2.5005,-2.4985,-2.4806,-2.4549,-2.4343,-2.4302,-2.4302,-2.4302,-2.4666,-2.4985,-2.4985,-2.4985,-2.5025,-2.5146,-2.5201,-2.5201,-2.5201,-2.4914,-2.4775,-2.4966,-2.5005,-2.5005,-2.5005,-2.5005,-2.5005,-2.5005,-2.4985,-2.4985,-2.4985,-2.4719,-2.4779,-2.524,-2.463,-2.4472,-2.4863,-2.4472,-2.3923,-2.3216,-2.3658,-2.3726,-2.3461,-2.3004,-2.2552,-0.9391,0.0,0.0,0.0,0.0,0.0,0.0,0.0,0.0,0.0,0.0,0.0,0.0,0.0,0.0,0.0,0.0,0.0,0.0,0.0,0.0,0.0,0.0,0.0,0.0,0.0,0.0,0.0,-2.2296,-2.2296,-2.2296,-2.2296,-2.2296,-2.2296,-2.2296,-2.2296,-2.2296,-2.2296,-2.2296,-2.2296,-2.2296,-2.2296,-2.2296,-2.2296,-2.2296,-2.2296,-2.2296,-2.2443,-2.2753,-2.3775,-2.449,-2.5021,-2.5801,-2.6201,-2.6349,-2.6401,-2.6261,-2.6049,-2.607,-2.6089,-2.6123,-2.6086,-2.5742,-2.5326,-2.5234,-2.4977,-2.471,-2.471,-2.4846,-2.4946,-2.4751,-2.465,-2.4549,-2.4343,-2.4302,-2.4302,-2.4302,-2.4405,-2.4528,-2.467,-2.471,-2.4751,-2.4835,-2.4855,-2.4855,-2.4855,-2.4759,-2.4775,-2.4966,-2.5005,-2.5005,-2.5005,-2.5005,-2.5005,-2.5005,-2.4719,-2.4583,-2.4583,-2.4277,-2.4152,-2.4292,-2.4105,-2.4048,-2.4158,-2.3837,-2.3676,-2.3711,-2.3506,-2.3076,-2.2484,-2.2537,-2.2506,0.0,0.0,0.0,0.0,0.0,0.0,0.0,-1.3605,0.0,0.0,0.0,0.0,0.0,0.0,0.0,0.0,0.0,0.0,0.0,0.0,0.0,0.0,0.0,0.0,0.0,-2.2296,-2.2296,-2.2296,-2.2296,-2.2296,-2.2296,-2.2296,-2.2296,-2.2296,-2.2296,-2.2296,-2.2296,-2.2296,-2.2296,-2.2296,-2.2296,-2.2296,-2.2296,-2.2296,-2.2296,-2.2296,-2.2296,-2.2296,-2.2344,-2.281,-2.3435,-2.4215,-2.528,-2.5681,-2.5672,-2.5986,-2.5886,-2.5612,-2.5633,-2.5635,-2.5689,-2.5703,-2.5384,-2.4997,-2.4922,-2.4699,-2.4467,-2.4467,-2.4605,-2.467,-2.4508,-2.4467,-2.4446,-2.4323,-2.4302,-2.4302,-2.4302,-2.4302,-2.4323,-2.4446,-2.4467,-2.4487,-2.4533,-2.4533,-2.4533,-2.4533,-2.4533,-2.4589,-2.469,-2.4706,-2.4706,-2.4706,-2.4706,-2.465,-2.4508,-2.4292,-2.409,-2.3948,-2.3666,-2.3558,-2.3767,-2.3508,-2.3428,-2.3586,-2.3253,-2.3157,-2.3355,-2.336,-2.3147,-2.2728,-2.2894,-2.2857,0.0,-1.1733,0.0,0.0,0.0,0.0,-1.4605,-1.3797,0.0,0.0,0.0,0.0,0.0,0.0,0.0,0.0,0.0,0.0,0.0,0.0,0.0,0.0,0.0,0.0,-2.2296,-2.2296,-2.2296,-2.2296,-2.2296,-2.2296,-2.2296,-2.2296,-2.2296,-2.2296,-2.2296,-2.2296,-2.2296,-2.2296,-2.2296,-2.2296,-2.2296,-2.2296,-2.2296,-2.2296,-2.2296,-2.2296,-2.2296,-2.2282,-2.2237,-2.2237,-2.2704,-2.3543,-2.491,-2.5195,-2.4874,-2.5439,-2.5482,-2.5274,-2.5259,-2.5329,-2.5389,-2.5516,-2.523,-2.4823,-2.4823,-2.4578,-2.4302,-2.4302,-2.4302,-2.4302,-2.4302,-2.4302,-2.4302,-2.4302,-2.4302,-2.4281,-2.424,-2.424,-2.4219,-2.4198,-2.4219,-2.4261,-2.4281,-2.424,-2.4198,-2.424,-2.4219,-2.4198,-2.424,-2.4198,-2.4198,-2.424,-2.4198,-2.4073,-2.3775,-2.3696,-2.3545,-2.3238,-2.2957,-2.3001,-2.3421,-2.2881,-2.2723,-2.3084,-2.2746,-2.2555,-2.2615,-2.3194,-2.3486,-2.3486,-2.3486,-2.326,-1.3353,-1.388,-1.4459,-1.3018,0.0,0.0,-1.189,-1.2001,-1.2518,0.0,0.0,0.0,0.0,0.0,0.0,0.0,0.0,0.0,0.0,0.0,0.0,0.0,0.0,0.0,-2.2296,-2.2296,-2.2296,-2.2296,-2.2296,-2.2296,-2.2296,-2.2296,-2.2296,-2.2296,-2.2296,-2.2296,-2.2296,-2.2296,-2.2296,-2.2296,-2.2296,-2.2296,-2.2296,-2.2296,-2.2296,-2.2296,-2.2296,-2.2152,-2.1901,-2.1901,-2.2482,-2.3441,-2.3729,-2.3796,-2.3792,-2.4436,-2.427,-2.3806,-2.4326,-2.4513,-2.4533,-2.4553,-2.4492,-2.4426,-2.4426,-2.4364,-2.4302,-2.4302,-2.4302,-2.4302,-2.4302,-2.4302,-2.4302,-2.4302,-2.4302,-2.4219,-2.3967,-2.3903,-2.3818,-2.356,-2.3696,-2.3988,-2.424,-2.3861,-2.3603,-2.3861,-2.3668,-2.3603,-2.3846,-2.3668,-2.3603,-2.3882,-2.3668,-2.3473,-2.3407,-2.3091,-2.2889,-2.2822,-2.2518,-2.2379,-2.2472,-2.2347,-2.231,-2.2402,-2.2324,-2.237,-2.2615,-2.2737,-2.2806,-2.2806,-2.2806,-2.2737,0.0,0.0,-1.5428,-1.4721,0.0,0.0,0.0,0.0,-1.2635,-1.3317,0.0,0.0,0.0,0.0,0.0,0.0,0.0,0.0,0.0,0.0,0.0,0.0,0.0,0.0,-2.1701,-2.1752,-2.1904,-2.2262,-2.2296,-2.2296,-2.2296,-2.2296,-2.2296,-2.2296,-2.2296,-2.2296,-2.2296,-2.2296,-2.2296,-2.2296,-2.2296,-2.2296,-2.2296,-2.2296,-2.2296,-2.2296,-2.2296,-2.2123,-2.1812,-2.1812,-2.2011,-2.2391,-2.2756,-2.2785,-2.2685,-2.3391,-2.3295,-2.284,-2.3179,-2.3517,-2.381,-2.381,-2.4025,-2.4302,-2.4302,-2.4302,-2.4302,-2.4302,-2.4302,-2.4302,-2.4302,-2.4302,-2.4302,-2.4302,-2.4177,-2.3994,-2.3839,-2.3668,-2.3516,-2.3341,-2.3282,-2.3377,-2.3754,-2.3523,-2.3363,-2.3538,-2.3407,-2.3363,-2.3538,-2.3407,-2.3363,-2.3523,-2.3407,-2.3216,-2.3016,-2.2822,-2.264,-2.2457,-2.2287,-2.2208,-2.2208,-2.2208,-2.2208,-2.2208,-2.2208,-2.2278,-2.2394,-2.2394,-2.2463,-2.2615,-2.2615,-2.2615,0.0,0.0,0.0,0.0,0.0,-1.4725,0.0,0.0,0.0,-1.4682,0.0,0.0,0.0,0.0,0.0,0.0,0.0,0.0,0.0,0.0,0.0,0.0,0.0,0.0,0.0,-2.0632,-2.0961,-2.1978,-2.1778,-2.1812,-2.2234,-2.2237,-2.2251,-2.2282,-2.2282,-2.2282,-2.2296,-2.2296,-2.2296,-2.2296,-2.2296,-2.2296,-2.2296,-2.2296,-2.2296,-2.2296,-2.224,-2.202,-2.1706,-2.1631,-2.1417,-2.1167,-2.1908,-2.1953,-2.1693,-2.2426,-2.2441,-2.2135,-2.2259,-2.264,-2.3102,-2.3102,-2.3471,-2.3963,-2.4225,-2.421,-2.4133,-2.4271,-2.4302,-2.4302,-2.4302,-2.4302,-2.4302,-2.4302,-2.4051,-2.3782,-2.3732,-2.3436,-2.3187,-2.3098,-2.2822,-2.2754,-2.3216,-2.3187,-2.3105,-2.3172,-2.3127,-2.3105,-2.3187,-2.3127,-2.3105,-2.3172,-2.3127,-2.2971,-2.264,-2.2595,-2.248,-2.2231,-2.2208,-2.2208,-2.2208,-2.2208,-2.2208,-2.2208,-2.2208,-2.2208,-2.2208,-2.2208,-2.2301,-2.2509,-2.2509,-2.2509,0.0,0.0,0.0,0.0,-1.798,0.0,0.0,0.0,-1.4733,-1.3024,0.0,0.0,0.0,0.0,0.0,0.0,0.0,0.0,0.0,0.0,0.0,0.0,0.0,0.0,0.0,-1.8566,-1.9019,-2.1002,-1.9933,-2.0025,-2.1927,-2.2027,-2.2089,-2.2214,-2.2214,-2.2225,-2.2296,-2.2296,-2.2296,-2.2296,-2.2296,-2.2296,-2.2296,-2.2296,-2.2296,-2.2282,-2.1991,-2.1661,-2.1339,-2.1039,-2.0712,-2.0492,-2.1151,-2.1215,-2.1,-2.1678,-2.1702,-2.1504,-2.2086,-2.2351,-2.2394,-2.2394,-2.2474,-2.2748,-2.3948,-2.3887,-2.3533,-2.4133,-2.4302,-2.4302,-2.4302,-2.4302,-2.4302,-2.4302,-2.4051,-2.3732,-2.3429,-2.3061,-2.2686,-2.2379,-2.2301,-2.2472,-2.3187,-2.2746,-2.2426,-2.2731,-2.2518,-2.2426,-2.2731,-2.2518,-2.2449,-2.2731,-2.2518,-2.2324,-2.2263,-2.2263,-2.224,-2.2208,-2.2208,-2.2208,-2.2208,-2.2208,-2.2208,-2.2208,-2.2208,-2.2208,-2.2208,-2.2208,-2.2231,-2.2254,-2.2254,-2.2254,0.0,0.0,0.0,0.0,0.0,0.0,-1.48,0.0,-1.4302,0.0,0.0,0.0,0.0,0.0,0.0,0.0,0.0,0.0,0.0,0.0,0.0,0.0,0.0,0.0,0.0,0.0,0.0,0.0,-1.9009,-1.9123,-2.1309,-2.1426,-2.1611,-2.2058,-2.2075,-2.2135,-2.2225,-2.2225,-2.2152,-2.2005,-2.2005,-2.1901,-2.1721,-2.1721,-2.1721,-2.1706,-2.1569,-2.1323,-2.1007,-2.086,-2.0595,-2.0321,-2.0596,-2.0629,-2.0542,-2.0821,-2.0843,-2.0749,-2.1042,-2.1396,-2.1858,-2.2644,-2.2871,-2.3055,-2.401,-2.4102,-2.3948,-2.4225,-2.4302,-2.4302,-2.4302,-2.4302,-2.4297,-2.4234,-2.4024,-2.3674,-2.326,-2.2822,-2.2374,-2.203,-2.1973,-2.2006,-2.2156,-2.2194,-2.224,-2.2402,-2.2287,-2.224,-2.2402,-2.2301,-2.224,-2.2402,-2.2287,-2.2137,-2.1996,-2.1973,-2.1902,-2.1746,-2.1864,-2.2044,-2.2184,-2.2208,-2.2208,-2.2208,-2.2208,-2.2208,-2.2208,-2.2208,-2.2208,-2.2208,-2.2208,-2.2208,-2.0792,0.0,0.0,0.0,0.0,0.0,0.0,0.0,0.0,0.0,0.0,0.0,0.0,0.0,0.0,0.0,0.0,0.0,0.0,0.0,0.0,0.0,0.0,0.0,0.0,0.0,0.0,0.0,0.0,-1.7969,-2.0772,-2.0905,-2.1237,-2.1936,-2.1969,-2.203,-2.2137,-2.2183,-2.2068,-2.1783,-2.1797,-2.1616,-2.126,-2.1276,-2.1276,-2.1245,-2.1198,-2.1007,-2.0794,-2.0695,-2.051,-2.0304,-2.0304,-2.0304,-2.0304,-2.0304,-2.0304,-2.0304,-2.0304,-2.0628,-2.1211,-2.2382,-2.2748,-2.2902,-2.3763,-2.4025,-2.4071,-2.4256,-2.4302,-2.4302,-2.4302,-2.4302,-2.4281,-2.4208,-2.3982,-2.361,-2.3105,-2.2603,-2.2156,-2.1769,-2.1688,-2.164,-2.1423,-2.1769,-2.2067,-2.1996,-2.2044,-2.2067,-2.1996,-2.2044,-2.2091,-2.2091,-2.202,-2.1926,-2.1793,-2.1722,-2.1616,-2.1423,-2.1592,-2.1769,-2.1973,-2.1996,-2.1996,-2.1996,-2.1996,-2.202,-2.2091,-2.2091,-2.2137,-2.2208,-2.2208,-2.2208,0.0,0.0,0.0,-1.856,0.0,0.0,0.0,0.0,-1.6411,0.0,0.0,0.0,0.0,0.0,0.0,0.0,0.0,0.0,0.0,0.0,0.0,0.0,0.0,0.0,0.0,0.0,0.0,0.0,0.0,0.0,-2.0484,-2.0716,-2.1076,-2.188,-2.1897,-2.1926,-2.2013,-2.2137,-2.2022,-2.1693,-2.1768,-2.1569,-2.1118,-2.1245,-2.1245,-2.1086,-2.0893,-2.0811,-2.0778,-2.0458,-2.0304,-2.0304,-2.0304,-2.0304,-2.0304,-2.0304,-2.0304,-2.0304,-2.0304,-2.032,-2.0458,-2.1134,-2.1365,-2.1612,-2.2932,-2.3332,-2.3471,-2.4117,-2.4302,-2.4302,-2.4302,-2.4302,-2.4281,-2.4208,-2.3903,-2.3443,-2.283,-2.2434,-2.2067,-2.152,-2.1423,-2.1423,-2.1399,-2.164,-2.1722,-2.1471,-2.1664,-2.1722,-2.1471,-2.1664,-2.1793,-2.1793,-2.1592,-2.1544,-2.1769,-2.1568,-2.1423,-2.1399,-2.1423,-2.1423,-2.1423,-2.1423,-2.1423,-2.1423,-2.1423,-2.1544,-2.1793,-2.1793,-2.1949,-2.2208,-2.2208,-2.2208,0.0,0.0,-2.1806,-1.9778,0.0,0.0,0.0,0.0,0.0,0.0,0.0,0.0,0.0,0.0,0.0,0.0,0.0,0.0,0.0,0.0,0.0,0.0,0.0,0.0,0.0,0.0,0.0,0.0,-1.4233,0.0,0.0,-1.9102,-1.9951,-2.0488,-2.1158,-2.1433,-2.1276,-2.1308,-2.123,-2.0974,-2.0942,-2.0763,-2.0447,-2.0444,-2.041,-2.0376,-2.0342,-2.0306,-2.027,-2.0287,-2.0252,-2.0185,-2.027,-2.0252,-2.0185,-2.027,-2.0304,-2.0304,-2.0304,-2.0304,-2.0472,-2.1596,-2.1966,-2.2212,-2.3563,-2.3963,-2.401,-2.4241,-2.4302,-2.424,-2.403,-2.3967,-2.3846,-2.3334,-2.3179,-2.2957,-2.2249,-2.1959,-2.1688,-2.1229,-2.1131,-2.1082,-2.0972,-2.1106,-2.1302,-2.1399,-2.1496,-2.1496,-2.1423,-2.1496,-2.1544,-2.1544,-2.1447,-2.135,-2.1277,-2.1057,-2.0997,-2.1131,-2.1131,-2.1204,-2.1399,-2.1399,-2.1399,-2.1399,-2.1399,-2.1447,-2.1544,-2.1544,-2.1458,-2.1261,-2.1261,-2.1612,-2.2296,-2.2296,0.0,-2.039,-1.9292,0.0,-1.6448,0.0,0.0,0.0,0.0,0.0,0.0,0.0,0.0,0.0,0.0,0.0,0.0,0.0,0.0,0.0,0.0,0.0,0.0,0.0,-1.2638,-1.3751,0.0,0.0,0.0,0.0,-1.9262,-1.9782,-2.0655,-2.1039,-2.0877,-2.0877,-2.0779,-2.053,-2.0514,-2.0311,-1.9977,-1.999,-1.997,-1.9937,-2.001,-2.0043,-2.0005,-2.0131,-2.0148,-2.0063,-2.0166,-2.0148,-2.008,-2.0185,-2.022,-2.022,-2.022,-2.0424,-2.0795,-2.1658,-2.2274,-2.2809,-2.3686,-2.4097,-2.4255,-2.4255,-2.4234,-2.4094,-2.3696,-2.3595,-2.3406,-2.2717,-2.2626,-2.2503,-2.1817,-2.1592,-2.1399,-2.0997,-2.0898,-2.0848,-2.0724,-2.0799,-2.0947,-2.1131,-2.1204,-2.1229,-2.1155,-2.1204,-2.1253,-2.1253,-2.118,-2.1082,-2.0923,-2.0774,-2.0674,-2.0648,-2.0648,-2.0648,-2.0698,-2.0698,-2.0698,-2.0698,-2.0698,-2.0747,-2.0833,-2.0833,-2.0759,-2.0597,-2.0597,-2.0919]},{"header":{"parameterUnit":"m.s-1","parameterCategory":1,"la1":30.6,"la2":29.2853,"lo1":-89.7004,"lo2":-87.6739,"dy":0.0162,"dx":0.0183,"nx":112,"ny":82,"refTime":"2024-07-24T06:00:00:Z","depth":0,"parameterNumber":3,"parameterNumberName":"V-component_of_WINDS"},"data":[0.0,0.0,0.0,0.0,0.0,0.0,0.0,0.0,0.0,0.0,0.0,0.0,0.0,0.0,0.0,0.0,0.0,0.0,0.0,0.0,0.0,0.0,0.0,0.0,0.0,0.0,0.0,0.0,0.0,0.0,0.0,0.0,0.0,0.0,0.0,0.0,0.0,0.0,0.0,0.0,0.0,0.0,0.0,0.0,0.0,0.0,0.0,0.0,0.0,0.0,0.0,0.0,0.0,0.0,0.0,0.0,0.0,0.0,0.0,0.0,0.0,0.0,0.0,0.0,0.0,0.0,0.0,0.0,0.0,0.0,0.0,0.0,0.0,0.0,0.0,0.0,0.0,0.0,0.0,0.0,0.0,0.0,0.0,0.0,0.0,0.0,0.0,0.0,0.0,0.0,0.0,-0.3206,-0.3654,-0.3928,-0.3928,-0.3928,-0.3665,-0.3048,0.0,0.0,0.0,0.0,0.0,0.0,0.0,0.0,0.0,0.0,0.0,0.0,0.0,0.0,0.0,0.0,0.0,0.0,0.0,0.0,0.0,0.0,0.0,0.0,0.0,0.0,0.0,0.0,0.0,0.0,0.0,0.0,0.0,0.0,0.0,0.0,0.0,0.0,0.0,0.0,0.0,0.0,0.0,0.0,0.0,0.0,0.0,0.0,0.0,0.0,0.0,0.0,0.0,0.0,0.0,0.0,0.0,0.0,0.0,0.0,0.0,0.0,0.0,0.0,0.0,0.0,0.0,0.0,0.0,0.0,0.0,0.0,0.0,0.0,0.0,0.0,0.0,0.0,0.0,0.0,0.0,0.0,0.0,0.0,0.0,0.0,0.0,0.0,0.0,0.0,0.0,0.0,0.0,0.0,0.0,0.0,0.0,0.0,0.0,0.0,0.0,0.0,0.0,0.0,-0.3134,-0.3879,-0.4018,-0.4064,-0.4064,-0.4064,-0.3771,-0.3048,0.0,0.0,0.0,0.0,0.0,0.0,0.0,0.0,0.0,0.0,0.0,0.0,0.0,0.0,0.0,0.0,0.0,0.0,0.0,0.0,0.0,0.0,0.0,0.0,0.0,0.0,0.0,0.0,0.0,0.0,0.0,0.0,0.0,0.0,0.0,0.0,0.0,0.0,0.0,0.0,0.0,0.0,0.0,0.0,0.0,0.0,0.0,0.0,0.0,0.0,0.0,0.0,0.0,0.0,0.0,0.0,0.0,0.0,0.0,0.0,0.0,0.0,0.0,0.0,0.0,0.0,0.0,0.0,0.0,0.0,0.0,0.0,0.0,0.0,0.0,0.0,0.0,0.0,0.0,0.0,0.0,0.0,0.0,0.0,0.0,0.0,0.0,0.0,0.0,0.0,0.0,0.0,0.0,0.0,0.0,0.0,0.0,0.0,0.0,0.0,0.0,0.0,0.0,-0.2921,-0.3405,-0.4125,-0.4214,-0.4214,-0.4214,-0.4109,-0.383,-0.3357,-0.3048,0.0,0.0,0.0,0.0,0.0,0.0,0.0,0.0,0.0,0.0,0.0,0.0,0.0,0.0,0.0,0.0,0.0,0.0,0.0,0.0,0.0,0.0,0.0,0.0,0.0,0.0,0.0,0.0,0.0,0.0,0.0,0.0,0.0,0.0,0.0,0.0,0.0,0.0,0.0,0.0,0.0,0.0,0.0,0.0,0.0,0.0,0.0,0.0,0.0,0.0,0.0,0.0,0.0,0.0,0.0,0.0,0.0,0.0,0.0,0.0,0.0,0.0,0.0,0.0,0.0,0.0,0.0,0.0,0.0,0.0,0.0,0.0,0.0,0.0,0.0,0.0,0.0,0.0,0.0,0.0,0.0,0.0,0.0,0.0,0.0,0.0,0.0,0.0,0.0,0.0,0.0,0.0,0.0,0.0,0.0,0.0,0.0,0.0,0.0,0.0,0.0,0.0,-0.3345,-0.3632,-0.4245,-0.4294,-0.4294,-0.4294,-0.414,-0.3913,-0.3617,-0.3173,0.0,0.0,0.0,0.0,0.0,0.0,0.0,0.0,0.0,0.0,0.0,0.0,0.0,0.0,0.0,0.0,0.0,0.0,0.0,0.0,0.0,0.0,0.0,0.0,0.0,0.0,0.0,0.0,0.0,0.0,0.0,0.0,0.0,0.0,0.0,0.0,0.0,0.0,0.0,0.0,0.0,0.0,0.0,0.0,0.0,0.0,0.0,0.0,0.0,0.0,0.0,0.0,0.0,0.0,0.0,0.0,0.0,0.0,0.0,0.0,0.0,0.0,0.0,0.0,0.0,0.0,0.0,0.0,0.0,0.0,0.0,0.0,0.0,0.0,0.0,0.0,0.0,0.0,0.0,0.0,0.0,0.0,0.0,0.0,0.0,0.0,0.0,0.0,0.0,0.0,0.0,0.0,0.0,0.0,0.0,0.0,0.0,0.0,0.0,0.0,0.0,0.0,-0.3481,-0.3822,-0.4253,-0.4294,-0.4294,-0.4294,-0.4178,-0.3948,-0.3629,-0.3396,0.0,0.0,0.0,0.0,0.0,0.0,0.0,0.0,0.0,0.0,0.0,0.0,0.0,0.0,0.0,0.0,0.0,0.0,0.0,0.0,0.0,0.0,0.0,0.0,0.0,0.0,0.0,0.0,0.0,0.0,0.0,0.0,0.0,0.0,0.0,0.0,0.0,0.0,0.0,0.0,0.0,0.0,0.0,0.0,0.0,0.0,0.0,0.0,0.0,0.0,0.0,0.0,0.0,0.0,0.0,0.0,0.0,0.0,0.0,0.0,0.0,0.0,0.0,0.0,0.0,0.0,0.0,0.0,0.0,0.0,0.0,0.0,0.0,0.0,0.0,0.0,0.0,0.0,0.0,0.0,0.0,0.0,0.0,0.0,0.0,0.0,0.0,0.0,0.0,0.0,0.0,0.0,0.0,0.0,0.0,0.0,0.0,0.0,0.0,0.0,0.0,0.0,-0.3427,-0.376,0.0,-0.4294,-0.4253,-0.4122,-0.3942,-0.3773,-0.3609,0.0,0.0,0.0,0.0,0.0,0.0,0.0,0.0,0.0,0.0,0.0,0.0,0.0,0.0,0.0,0.0,0.0,0.0,0.0,0.0,0.0,0.0,0.0,0.0,0.0,0.0,0.0,0.0,0.0,0.0,0.0,0.0,0.0,0.0,0.0,0.0,0.0,0.0,0.0,0.0,0.0,0.0,0.0,0.0,0.0,0.0,0.0,0.0,0.0,0.0,0.0,0.0,0.0,0.0,0.0,0.0,0.0,0.0,0.0,0.0,0.0,0.0,0.0,0.0,0.0,0.0,0.0,0.0,0.0,0.0,0.0,0.0,0.0,0.0,0.0,0.0,0.0,0.0,0.0,0.0,0.0,0.0,0.0,0.0,0.0,0.0,0.0,0.0,0.0,0.0,0.0,0.0,0.0,0.0,0.0,0.0,0.0,0.0,0.0,0.0,0.0,0.0,-0.3022,-0.3383,-0.3728,0.0,-0.4261,-0.4224,-0.4012,-0.3836,-0.3695,-0.3605,0.0,0.0,0.0,0.0,0.0,0.0,0.0,0.0,0.0,0.0,0.0,0.0,0.0,0.0,0.0,0.0,0.0,0.0,0.0,0.0,0.0,0.0,0.0,0.0,0.0,0.0,0.0,0.0,0.0,0.0,0.0,0.0,0.0,0.0,0.0,0.0,0.0,0.0,0.0,0.0,0.0,0.0,0.0,0.0,0.0,0.0,0.0,0.0,0.0,0.0,0.0,0.0,0.0,0.0,0.0,0.0,0.0,0.0,0.0,0.0,0.0,0.0,0.0,0.0,0.0,0.0,0.0,0.0,0.0,0.0,0.0,0.0,0.0,0.0,0.0,0.0,0.0,0.0,0.0,0.0,0.0,0.0,0.0,0.0,0.0,0.0,0.0,0.0,0.0,0.0,0.0,0.0,0.0,0.0,0.0,0.0,0.0,0.0,0.0,0.0,0.0,0.0,-0.2833,-0.3368,-0.377,-0.3975,-0.417,-0.422,-0.4008,-0.3876,-0.3742,0.0,0.0,0.0,0.0,0.0,0.0,0.0,0.0,0.0,0.0,0.0,0.0,0.0,0.0,0.0,0.0,0.0,0.0,0.0,0.0,0.0,0.0,0.0,0.0,0.0,0.0,0.0,0.0,0.0,0.0,0.0,0.0,0.0,0.0,0.0,0.0,0.0,0.0,0.0,0.0,0.0,0.0,0.0,0.0,0.0,0.0,0.0,0.0,0.0,0.0,0.0,0.0,0.0,0.0,0.0,0.0,0.0,0.0,0.0,0.0,0.0,0.0,0.0,0.0,0.0,0.0,0.0,0.0,0.0,0.0,0.0,0.0,0.0,0.0,0.0,0.0,0.0,0.0,0.0,0.0,0.0,0.0,0.0,0.0,0.0,0.0,0.0,0.0,0.0,0.0,0.0,0.0,0.0,0.0,0.0,0.0,0.0,0.0,0.0,0.0,0.0,0.0,0.0,-0.2833,-0.3368,-0.377,-0.3975,-0.4061,-0.4,-0.3798,-0.367,-0.3558,-0.3458,0.0,0.0,0.0,0.0,0.0,0.0,0.0,0.0,0.0,0.0,0.0,0.0,0.0,0.0,0.0,0.0,0.0,0.0,0.0,0.0,0.0,0.0,0.0,0.0,0.0,0.0,0.0,0.0,0.0,0.0,0.0,0.0,0.0,0.0,0.0,0.0,0.0,0.0,0.0,0.0,0.0,0.0,0.0,0.0,0.0,0.0,0.0,0.0,0.0,0.0,0.0,0.0,0.0,0.0,0.0,0.0,0.0,0.0,0.0,0.0,0.0,0.0,0.0,0.0,0.0,0.0,0.0,0.0,0.0,0.0,0.0,0.0,0.0,0.0,0.0,0.0,0.0,0.0,0.0,0.0,0.0,0.0,0.0,0.0,0.0,0.0,0.0,0.0,0.0,0.0,0.0,0.0,0.0,0.0,0.0,0.0,0.0,0.0,0.0,0.0,0.0,0.0,-0.2595,-0.3172,-0.359,-0.3718,-0.389,-0.3923,-0.3718,-0.3486,-0.3282,-0.3174,0.0,0.0,0.0,0.0,0.0,0.0,0.0,0.0,0.0,0.0,0.0,0.0,0.0,0.0,0.0,0.0,0.0,0.0,0.0,0.0,0.0,0.0,0.0,0.0,0.0,0.0,0.0,0.0,0.0,0.0,0.0,0.0,0.0,0.0,0.0,0.0,0.0,0.0,0.0,0.0,0.0,0.0,0.0,0.0,0.0,0.0,0.0,0.0,0.0,0.0,0.0,0.0,0.0,0.0,0.0,0.0,0.0,0.0,0.0,0.0,0.0,0.0,0.0,0.0,0.0,0.0,0.0,0.0,0.0,0.0,0.0,0.0,0.0,0.0,0.0,0.0,0.0,0.0,0.0,0.0,0.0,0.0,0.0,0.0,0.0,0.0,0.0,0.0,0.0,0.0,0.0,0.0,0.0,0.0,0.0,0.0,0.0,0.0,0.0,0.0,0.0,0.0,-0.2263,-0.2863,-0.3269,-0.3322,-0.3682,-0.3862,-0.3679,-0.3305,-0.2979,-0.279,0.0,0.0,0.0,0.0,0.0,0.0,0.0,0.0,0.0,0.0,0.0,0.0,0.0,0.0,0.0,0.0,0.0,0.0,0.0,0.0,0.0,0.0,0.0,0.0,0.0,0.0,0.0,0.0,0.0,0.0,0.0,0.0,0.0,0.0,0.0,0.0,0.0,0.0,0.0,0.0,0.0,0.0,0.0,0.0,0.0,0.0,0.0,0.0,0.0,0.0,0.0,0.0,0.0,0.0,0.0,0.0,0.0,0.0,0.0,0.0,0.2461,0.0,0.0,0.0,0.0,0.0,0.0,0.0,0.0,0.0,0.0,0.0,0.0,0.0,0.0,0.0,0.0,0.0,0.0,0.0,0.0,0.0,0.0,0.0,0.0,0.0,0.0,0.0,0.0,0.0,0.0,0.0,0.0,0.0,0.0,0.0,0.0,0.0,0.0,0.0,0.0,0.0,-0.2335,-0.2688,-0.3057,-0.3415,-0.3405,-0.3376,-0.3378,-0.3061,-0.2785,-0.2583,-0.2084,0.0,0.0,0.0,0.0,0.0,0.0,0.0,0.0,0.0,0.0,0.0,0.0,0.0,0.0,0.0,0.0,0.0,0.0,0.0,0.0,0.0,0.0,0.0,0.0,0.0,0.0,0.0,0.0,0.0,0.0,0.0,0.0,0.0,0.0,0.0,0.0,0.0,0.0,0.0,0.0,0.0,0.0,0.0,0.0,0.0,0.0,0.0,0.0,0.0,0.0,0.0,0.0,0.0,0.0,0.0,0.0,0.0,0.0,0.0,0.0,0.2777,0.0,0.0,0.0,0.0,0.0,0.0,0.0,0.0,0.0,0.0,0.0,0.0,0.0,0.0,0.0,0.0,0.0,0.0,0.0,0.0,0.0,0.0,0.0,0.0,0.0,0.0,0.0,0.0,0.0,0.0,0.0,0.0,0.0,0.0,0.0,0.0,0.0,0.0,0.0,0.0,-0.2175,-0.244,-0.2708,-0.2983,-0.3016,-0.303,-0.305,-0.2658,-0.2356,-0.2218,-0.1861,0.0,0.0,0.0,0.0,0.0,0.0,0.0,0.0,0.0,0.0,0.0,0.0,0.0,0.0,0.0,0.0,0.0,0.0,0.0,0.0,0.0,0.0,0.0,0.0,0.0,0.0,0.0,0.0,0.0,0.0,0.0,0.0,0.0,0.0,0.0,0.0,0.0,0.0,0.0,0.0,0.0,0.0,0.0,0.0,0.0,0.0,0.0,0.0,0.0,0.0,0.0,0.0,0.0,0.2994,0.2994,0.2953,0.2972,0.3184,0.3516,0.319,0.3254,0.3512,0.2867,0.0,0.0,0.0,0.0,0.0,0.0,0.0,0.0,0.0,0.0,0.0,0.0,0.0,0.0,0.0,0.0,0.0,0.0,0.0,0.0,0.0,0.0,0.0,0.0,0.1701,0.1268,0.0,0.0,0.0,0.0,0.0,0.0,0.0,0.0,0.0,0.0,0.0,0.0,-0.197,-0.2198,-0.2377,-0.2511,-0.2648,-0.272,-0.272,-0.2286,-0.1924,-0.177,-0.1589,-0.1267,0.0,0.0,0.0,0.0,0.0,0.0,0.0,0.0,0.0,0.0,0.0,0.0,0.0,0.0,0.0,0.0,0.0,0.0,0.0,0.0,0.0,0.0,0.0,0.0,0.0,0.0,0.0,0.0,0.0,0.0,0.0,0.0,0.3522,0.3795,0.0,0.0,0.0,0.0,0.0,0.0,0.0,0.0,0.0,0.0,0.0,0.0,0.0,0.2954,0.2954,0.3218,0.3278,0.3175,0.3387,0.3379,0.3175,0.3281,0.3306,0.3265,0.3565,0.0,0.3392,0.3077,0.0,0.0,0.0,0.0,0.0,0.0,0.0,0.0,0.0,0.0,0.0,0.0,0.0,0.0,0.0,0.0,0.0,0.0,0.0,0.0,0.0,0.0,0.2781,0.2758,0.2143,0.1537,0.0,0.0764,0.0115,-0.0256,-0.0299,0.0,0.0,0.0,0.0,0.0,0.0,0.0,-0.2003,-0.2036,-0.2202,-0.2629,-0.2491,-0.2384,-0.2443,-0.2177,-0.1776,-0.1232,-0.107,-0.0906,-0.0727,-0.0536,0.0,0.0,0.0,0.0,0.0,0.0,0.0,0.0,0.0,0.0,0.0,0.0,0.0,0.0,0.0,0.0,0.0,0.0,0.0,0.0,0.0,0.0,0.0,0.0,0.0,0.0,0.0,0.0,0.0,0.3325,0.3768,0.393,0.3634,0.3324,0.0,0.0,0.0,0.0,0.0,0.0,0.0,0.0,0.0,0.3047,0.3237,0.3299,0.3223,0.3417,0.3477,0.3425,0.3534,0.3528,0.3425,0.3479,0.3474,0.3425,0.3608,0.3582,0.3395,0.3347,0.311,0.2736,0.0,0.0,0.0,0.0,0.2747,0.3111,0.3686,0.3939,0.0,0.4071,0.0,0.0,0.0,0.0,0.0,0.0,0.0,0.0,0.0,0.0,0.3124,0.3072,0.2587,0.2009,0.163,0.1196,0.0748,0.0,-0.0104,-0.0543,-0.1114,0.0,0.0,0.0,0.0,0.0,-0.2013,-0.2018,-0.2116,-0.2388,-0.2244,-0.2034,-0.1802,-0.1815,-0.1526,-0.0809,-0.0844,-0.0724,-0.0323,-0.0301,-0.0257,0.0,0.0,0.0,0.0,0.0,0.0,0.0,0.0,0.0,0.0,0.0,0.0,0.0,0.0,0.0,0.0,0.0,0.0,0.0,0.0,0.0,0.0,0.0,0.0,0.0,0.0,0.0,0.0,0.3915,0.4268,0.4257,0.4135,0.3838,0.0,0.0,0.0,0.0,0.0,0.0,0.3201,0.3484,0.3571,0.3474,0.3597,0.3607,0.35,0.3567,0.3613,0.3613,0.3613,0.3613,0.3613,0.3613,0.3613,0.3613,0.3613,0.3531,0.3457,0.3515,0.3442,0.3263,0.2811,0.2739,0.2935,0.3031,0.3286,0.3632,0.4307,0.4542,0.46,0.4692,0.0,0.4411,0.3849,0.0,0.0,0.0,0.0,0.3221,0.369,0.3447,0.3112,0.3255,0.2796,0.223,0.1944,0.1544,0.1157,0.0,0.031,-0.0257,-0.0673,0.0,0.0,0.0,0.0,-0.1282,-0.1666,-0.1787,-0.1882,-0.199,-0.2008,-0.1816,-0.1336,-0.1459,-0.1226,-0.0421,-0.0565,-0.0425,0.011,0.0,0.0041,0.0296,0.0,0.0,0.0,0.0,0.0,0.0,0.0,0.0,0.0,0.0,0.0,0.0,0.0,0.0,0.0,0.0,0.0,0.0,0.0,0.0,0.0,0.0,0.0,0.0,0.0,0.0,0.0,0.0,0.0,0.5258,0.5275,0.0,0.0,0.0,0.0,0.3556,0.3673,0.3758,0.3758,0.3902,0.3984,0.3958,0.3854,0.3788,0.3788,0.366,0.3613,0.3613,0.3613,0.3613,0.3613,0.3613,0.3613,0.3613,0.3613,0.361,0.3591,0.3462,0.3246,0.3015,0.2986,0.2861,0.278,0.3345,0.3501,0.3541,0.4542,0.4841,0.4865,0.5442,0.5238,0.4738,0.451,0.4,0.0,0.0,0.3388,0.3146,0.3293,0.288,0.264,0.3389,0.27,0.1981,0.253,0.1682,0.0935,0.0,0.1133,0.0712,0.0063,0.0,-0.0232,-0.0774,-0.0796,-0.0713,-0.0685,-0.1108,-0.1431,-0.1433,-0.1769,-0.1816,-0.1336,-0.1252,-0.0888,-0.0084,-0.0033,0.0117,0.0468,0.0522,0.0473,0.0303,0.0353,0.0,0.0,0.0,0.0,0.0,0.0,0.0,0.0,0.0,0.0,0.0,0.0,0.0,0.0,0.0,0.0,0.0,0.0,0.0,0.0,0.0,0.0,0.0,0.0,0.0,0.0,0.0,0.0,0.547,0.517,0.0,0.4173,0.3955,0.3863,0.3863,0.3974,0.4058,0.4058,0.422,0.425,0.4144,0.3996,0.3882,0.3796,0.3666,0.3613,0.3613,0.3613,0.3613,0.3613,0.3613,0.3613,0.3613,0.3613,0.3613,0.361,0.3536,0.3468,0.3395,0.3395,0.3492,0.3696,0.3902,0.4148,0.4407,0.4779,0.4885,0.4926,0.5327,0.527,0.5037,0.4965,0.4759,0.4553,0.4575,0.4302,0.401,0.4058,0.3618,0.3137,0.3033,0.2683,0.2322,0.2156,0.1778,0.1478,0.1629,0.1047,0.0486,0.0299,0.0391,0.0251,-0.0495,-0.0394,-0.0355,-0.0635,-0.0843,-0.094,-0.094,-0.1082,-0.0968,-0.0494,-0.0687,-0.0468,0.0338,0.0149,0.0143,0.0493,0.0524,0.0526,0.0491,0.052,0.0508,0.0,0.0,0.0,0.0,0.0,0.0,0.0,0.0,0.0,0.0,0.0,0.0,0.0,0.0,0.0,0.0,0.0,0.0,0.0,0.0,0.0,0.0,0.0,0.0,0.0,0.0,0.5221,0.5291,0.5056,0.4701,0.422,0.4216,0.4246,0.4246,0.4314,0.4348,0.4297,0.4436,0.4436,0.4301,0.4207,0.4088,0.3947,0.3809,0.3699,0.3668,0.363,0.3613,0.3613,0.3613,0.3613,0.3613,0.3613,0.3613,0.3613,0.3613,0.3613,0.3613,0.3613,0.3774,0.399,0.399,0.4184,0.4487,0.4622,0.4759,0.4933,0.5224,0.5267,0.5251,0.5306,0.5314,0.5169,0.4714,0.4409,0.4101,0.3685,0.3297,0.2933,0.2736,0.2543,0.235,0.2156,0.1936,0.1797,0.1797,0.1217,0.0672,0.0448,0.0682,0.0553,-0.0518,-0.0142,0.0094,-0.0436,-0.0474,-0.047,-0.047,-0.0604,-0.0506,-0.0042,-0.0363,-0.025,0.0549,0.0217,0.0174,0.0555,0.0553,0.0582,0.0666,0.0862,0.09,0.0774,0.0,0.0,0.0,0.0,0.0,0.0,0.0,0.0,0.0,0.0,0.0,0.0,0.0,0.0,0.0,0.0,0.0,0.0,0.0,0.0,0.0,0.0,0.0,0.5188,0.529,0.5235,0.4767,0.5046,0.5066,0.4553,0.4631,0.4694,0.4697,0.4697,0.4662,0.4511,0.4505,0.4505,0.4505,0.4502,0.4403,0.4206,0.4086,0.3937,0.3815,0.3671,0.3619,0.3619,0.3613,0.3613,0.3613,0.3613,0.3613,0.3613,0.3613,0.3613,0.3613,0.3613,0.3613,0.3613,0.3613,0.3613,0.3666,0.4042,0.4484,0.4924,0.5171,0.5281,0.5308,0.5508,0.5563,0.5312,0.3984,0.3597,0.3322,0.213,0.1825,0.1936,0.2543,0.2212,0.1964,0.2543,0.2212,0.1797,0.1797,0.1685,0.1361,0.0563,0.08,0.0632,-0.0736,0.0049,0.0,0.0,-0.0023,0.0022,0.0,-0.0403,-0.0485,-0.0042,-0.0364,-0.025,0.055,0.0225,0.0218,0.067,0.0634,0.0676,0.0814,0.1399,0.1581,0.133,0.0,0.0,0.0,0.0,0.0,0.0,0.0,0.0,0.0,0.0,0.0,0.0,0.0,0.0,0.0,0.0,0.0,0.0,0.0,0.0,0.0,0.0,0.6257,0.613,0.5609,0.5225,0.5147,0.4899,0.4699,0.4644,0.4667,0.4735,0.485,0.4857,0.484,0.4796,0.4796,0.4796,0.4796,0.468,0.461,0.4553,0.4282,0.4131,0.4098,0.3852,0.3736,0.3734,0.3652,0.3613,0.3613,0.3613,0.3613,0.3613,0.3613,0.3613,0.3613,0.3613,0.3613,0.3613,0.3613,0.3613,0.361,0.3719,0.4045,0.4398,0.4481,0.468,0.4822,0.4649,0.4814,0.4869,0.3876,0.3597,0.343,0.2655,0.213,0.1853,0.2018,0.1908,0.1853,0.2018,0.1908,0.1769,0.1685,0.1628,0.1483,0.1108,0.0995,0.082,0.0448,0.061,0.0,0.0575,0.053,0.0381,0.0045,-0.0112,-0.0134,0.0,-0.0144,0.0,0.0559,0.0444,0.0442,0.0616,0.0654,0.0848,0.1224,0.1637,0.1852,0.0,0.0,0.0,0.0,0.0,0.0,0.0,0.0,0.0,0.0,0.0,0.0,0.0,0.0,0.0,0.0,0.0,0.0,0.0,0.0,0.0,0.0,0.6824,0.6894,0.6926,0.5949,0.5165,0.4995,0.468,0.4576,0.4765,0.4785,0.4847,0.4965,0.4975,0.4951,0.4891,0.4887,0.4887,0.4887,0.4883,0.4851,0.4792,0.451,0.4326,0.4295,0.398,0.3832,0.3809,0.3715,0.3657,0.3613,0.3613,0.3613,0.3613,0.3613,0.3613,0.0,0.0,0.0,0.0,0.0,0.3613,0.3613,0.3613,0.3747,0.399,0.4153,0.4319,0.4491,0.4432,0.4598,0.4625,0.3655,0.3378,0.3239,0.2517,0.2074,0.1797,0.1797,0.1797,0.1797,0.1797,0.1797,0.1769,0.1713,0.1629,0.0,0.1347,0.1122,0.078,0.0218,0.0554,0.0743,0.0502,0.0621,0.0645,0.0368,0.0317,0.0291,0.0291,0.0105,0.0,0.0,0.0,0.0611,0.1043,0.1122,0.0,0.0,0.0,0.0,0.0,0.0,0.0,0.0,0.2486,0.265,0.0,0.0,0.0,0.0,0.0,0.0,0.0,0.0,0.0,0.0,0.0,0.0,0.0,0.0,0.0,0.0,0.7641,0.7433,0.7384,0.6249,0.5226,0.4653,0.4615,0.4688,0.4891,0.4904,0.4972,0.5113,0.5123,0.5069,0.4975,0.0,0.0,0.0,0.0,0.5066,0.4974,0.4746,0.4586,0.4429,0.4108,0.3898,0.3824,0.381,0.3747,0.3623,0.3623,0.3615,0.3632,0.3632,0.3624,0.3613,0.3613,0.3613,0.3613,0.3613,0.3613,0.3613,0.3613,0.0,0.0,0.4018,0.4125,0.4181,0.4436,0.4577,0.4384,0.3297,0.3047,0.291,0.202,0.1797,0.1797,0.1797,0.1797,0.1797,0.1797,0.1797,0.1797,0.1769,0.1685,0.1543,0.1347,0.1178,0.07,-0.0503,0.0217,0.0719,0.016,0.0502,0.0768,0.0717,0.0,0.0,0.0629,0.0345,0.04,0.0948,0.0705,0.0922,0.1762,0.1906,0.2289,0.301,0.3065,0.3143,0.3287,0.3598,0.3625,0.3399,0.3082,0.3111,0.0,0.0,0.0,0.0,0.0,0.0,0.0,0.0,0.0,0.0,0.0,0.0,0.0,0.0,0.0,0.8024,0.8229,0.7949,0.6784,0.6357,0.5928,0.5226,0.5297,0.5267,0.4931,0.4992,0.5152,0.5337,0.5351,0.5337,0.531,0.531,0.531,0.531,0.5337,0.5318,0.5318,0.5117,0.492,0.4725,0.0,0.0,0.4042,0.3944,0.3857,0.3838,0.3838,0.3811,0.375,0.375,0.3695,0.3613,0.3613,0.3613,0.3613,0.3613,0.3613,0.3613,0.3613,0.3613,0.3613,0.3694,0.3719,0.3691,0.3466,0.3744,0.0,0.2713,0.2713,0.291,0.202,0.1797,0.1797,0.1797,0.1797,0.1797,0.1797,0.1797,0.1769,0.1657,0.1628,0.1543,0.1347,0.1178,0.0982,0.0616,0.0762,0.0852,0.0746,0.0769,0.0641,0.0191,0.0142,0.0139,0.0135,0.0409,0.0839,0.1429,0.1847,0.2161,0.2334,0.2717,0.3003,0.3156,0.3422,0.366,0.3841,0.3902,0.4198,0.4648,0.4416,0.4348,0.0,0.0,0.0,0.0,0.0,0.0,0.0,0.0,0.0,0.0,0.0,0.7229,0.7832,0.0,0.812,0.8024,0.8162,0.7933,0.6887,0.6703,0.6251,0.5116,0.5102,0.51,0.5003,0.5056,0.5196,0.5382,0.5395,0.5395,0.5395,0.5395,0.5395,0.5395,0.5395,0.5395,0.5395,0.519,0.499,0.4797,0.4596,0.437,0.4083,0.4021,0.3962,0.3903,0.3903,0.387,0.3841,0.3808,0.3747,0.3693,0.3635,0.3613,0.3613,0.3613,0.3613,0.3613,0.3613,0.3613,0.3613,0.3613,0.3613,0.3555,0.3413,0.3552,0.3635,0.288,0.277,0.2772,0.2158,0.1908,0.1797,0.1797,0.1797,0.1797,0.1797,0.1797,0.1769,0.1713,0.1713,0.1657,0.1487,0.1403,0.1262,0.1038,0.094,0.0902,0.0902,0.0874,0.0746,0.048,0.0421,0.041,0.0394,0.0932,0.1406,0.1776,0.2373,0.2802,0.303,0.3282,0.3509,0.374,0.3926,0.4053,0.4146,0.4146,0.4315,0.4661,0.4798,0.4978,0.0,0.0,0.0,0.0,0.0,0.0,0.0,0.0,0.7021,0.7631,0.7752,0.7899,0.8395,0.8482,0.8416,0.818,0.8102,0.7835,0.7289,0.6925,0.6256,0.4947,0.4876,0.4977,0.507,0.511,0.5226,0.5385,0.5395,0.5395,0.5395,0.5395,0.5395,0.5395,0.5395,0.5395,0.5395,0.5223,0.5057,0.4861,0.4694,0.4474,0.4183,0.4153,0.4067,0.3973,0.3951,0.3938,0.393,0.3838,0.3819,0.3805,0.369,0.3643,0.3641,0.3621,0.3613,0.3613,0.3613,0.3613,0.3613,0.3613,0.3613,0.3613,0.3613,0.3613,0.3527,0.3132,0.2856,0.2607,0.2214,0.1964,0.1797,0.1797,0.1797,0.1797,0.1797,0.1797,0.1797,0.1797,0.1797,0.1769,0.1657,0.1628,0.1487,0.1178,0.1038,0.0982,0.0982,0.0986,0.0966,0.0986,0.0934,0.093,0.1017,0.1623,0.2078,0.2281,0.2843,0.3341,0.3719,0.3741,0.3917,0.4294,0.4294,0.4294,0.4294,0.4294,0.4338,0.4447,0.4855,0.5308,0.6881,0.7065,0.7224,0.7359,0.7143,0.7186,0.0,0.0,0.7925,0.8537,0.8657,0.8677,0.8744,0.8758,0.8825,0.9029,0.8568,0.8017,0.7597,0.6716,0.5864,0.5235,0.5555,0.56,0.4982,0.5182,0.5378,0.5392,0.5395,0.5395,0.5395,0.5395,0.5395,0.5395,0.5395,0.5395,0.5395,0.5395,0.5259,0.5054,0.4861,0.4686,0.4538,0.4345,0.4273,0.4254,0.4145,0.4065,0.4056,0.3932,0.3884,0.3873,0.381,0.3764,0.375,0.3649,0.3613,0.3613,0.3613,0.3613,0.3613,0.3613,0.3613,0.3613,0.3613,0.3613,0.3471,0.2914,0.2719,0.2579,0.1992,0.1825,0.1797,0.1797,0.1797,0.1797,0.1797,0.1797,0.1797,0.1797,0.1797,0.1797,0.1769,0.1685,0.1515,0.1319,0.1262,0.1262,0.1262,0.1258,0.1269,0.1256,0.1247,0.1409,0.1832,0.2361,0.2871,0.3315,0.3838,0.4162,0.4228,0.4228,0.425,0.4294,0.4294,0.4294,0.4294,0.4294,0.4513,0.4927,0.5092,0.5492,0.7116,0.7416,0.0,0.0,0.8053,0.815,0.8484,0.8497,0.8485,0.8758,0.8804,0.8804,0.8804,0.8804,0.8791,0.0,0.8234,0.7691,0.7253,0.6393,0.5666,0.5248,0.5351,0.5357,0.5047,0.5155,0.5264,0.5388,0.5395,0.5395,0.5395,0.5395,0.5395,0.5395,0.5395,0.5395,0.5395,0.5395,0.5292,0.5087,0.5024,0.4858,0.4592,0.4528,0.4398,0.4298,0.4246,0.4224,0.4216,0.4059,0.4011,0.3997,0.3906,0.3846,0.3798,0.3654,0.3613,0.3613,0.3613,0.3613,0.3613,0.3613,0.3613,0.3613,0.3613,0.3613,0.3557,0.3304,0.297,0.2635,0.2383,0.2077,0.1797,0.1797,0.1797,0.1797,0.1797,0.1797,0.1797,0.1797,0.1797,0.1797,0.1797,0.1741,0.1685,0.16,0.1431,0.1291,0.1291,0.1291,0.1311,0.1293,0.1294,0.1403,0.1694,0.2459,0.2986,0.313,0.3938,0.4386,0.4298,0.4294,0.4294,0.4294,0.4574,0.4705,0.4705,0.4777,0.5101,0.5639,0.555,0.6054,0.7406,0.0,0.0,0.8331,0.8616,0.8751,0.8569,0.8657,0.8804,0.8804,0.8804,0.8804,0.8804,0.8804,0.8791,0.8755,0.8253,0.7827,0.7657,0.6625,0.5852,0.5651,0.5239,0.5009,0.5093,0.5137,0.524,0.5385,0.5395,0.5395,0.5395,0.5395,0.5395,0.5395,0.5395,0.5395,0.5395,0.5395,0.5326,0.519,0.512,0.499,0.4725,0.4658,0.4528,0.4364,0.4334,0.43,0.4295,0.4205,0.4167,0.4156,0.4003,0.3931,0.3865,0.3715,0.3638,0.3613,0.3613,0.3666,0.3747,0.3638,0.3666,0.3747,0.3638,0.3613,0.3583,0.3499,0.3135,0.28,0.2719,0.2383,0.202,0.1936,0.1908,0.188,0.1825,0.1797,0.1797,0.1797,0.1797,0.1797,0.1797,0.1797,0.1797,0.1797,0.16,0.1431,0.1431,0.1431,0.1515,0.1681,0.1699,0.1781,0.2051,0.284,0.3299,0.3259,0.4089,0.4537,0.4449,0.4441,0.4509,0.4694,0.5028,0.5271,0.5423,0.5518,0.5774,0.6215,0.6057,0.6532,0.0,0.0,0.8647,0.8525,0.8661,0.8804,0.8798,0.8798,0.8804,0.8804,0.8804,0.8804,0.8804,0.8804,0.8998,0.9573,0.9049,0.8759,0.9338,0.7711,0.6519,0.663,0.5498,0.4816,0.0,0.5267,0.5388,0.5395,0.5395,0.5395,0.5395,0.5395,0.5395,0.5395,0.5395,0.5395,0.5395,0.5395,0.5395,0.5395,0.519,0.5087,0.509,0.4758,0.4592,0.4595,0.4398,0.43,0.43,0.4298,0.4295,0.4281,0.4159,0.4078,0.4077,0.3868,0.3706,0.3613,0.3613,0.3855,0.4125,0.3719,0.3855,0.4098,0.3719,0.3613,0.3527,0.3216,0.3102,0.3021,0.2772,0.2691,0.2577,0.2268,0.2183,0.2128,0.1853,0.1797,0.1797,0.1797,0.1797,0.1797,0.1797,0.1797,0.1797,0.1797,0.1797,0.1797,0.1797,0.1797,0.2018,0.2597,0.2651,0.2899,0.3483,0.391,0.417,0.4167,0.4562,0.4792,0.4788,0.4788,0.5058,0.5644,0.5673,0.5931,0.6446,0.6457,0.6462,0.6486,0.669,0.6784,0.0,0.0,0.8802,0.8918,0.9018,0.9071,0.9071,0.8918,0.8804,0.8804,0.8804,0.8804,0.8804,0.8804,0.8998,0.9586,0.9084,0.8795,0.9293,0.8184,0.709,0.6563,0.6034,0.0,0.0,0.0,0.0,0.5388,0.5395,0.5395,0.5395,0.5395,0.5395,0.5395,0.5395,0.5395,0.5395,0.5395,0.5395,0.5395,0.519,0.5087,0.5087,0.4758,0.4592,0.4592,0.4398,0.43,0.43,0.43,0.43,0.4298,0.4257,0.4189,0.4067,0.3933,0.38,0.3715,0.3638,0.3855,0.4177,0.4042,0.4291,0.4649,0.4515,0.446,0.4377,0.3959,0.371,0.3463,0.3077,0.2828,0.2663,0.2549,0.2352,0.2184,0.2074,0.1936,0.1797,0.1797,0.213,0.2406,0.2406,0.274,0.2991,0.2991,0.2326,0.1936,0.235,0.2406,0.2627,0.3236,0.3292,0.3375,0.3569,0.4084,0.4341,0.4213,0.4706,0.493,0.4808,0.4804,0.5075,0.5687,0.6004,0.6417,0.6972,0.7088,0.7375,0.7765,0.7594,0.7745,0.0,0.8745,0.8951,0.9299,0.9371,0.9344,0.9237,0.9071,0.8904,0.8831,0.8724,0.8684,0.8791,0.8637,0.8758,0.9581,0.9211,0.9048,0.9661,0.8857,0.7944,0.7387,0.7026,0.6485,0.0,0.0,0.0,0.5425,0.5395,0.5395,0.5395,0.5395,0.5395,0.5395,0.5395,0.5395,0.5395,0.5395,0.5395,0.5395,0.5259,0.5223,0.519,0.4924,0.4725,0.4661,0.4498,0.4367,0.43,0.43,0.43,0.43,0.43,0.4251,0.4167,0.4013,0.395,0.3884,0.3682,0.3855,0.4205,0.4205,0.4508,0.4897,0.4897,0.4897,0.4842,0.4536,0.4319,0.4125,0.3821,0.3491,0.3216,0.3105,0.2798,0.2462,0.2238,0.2074,0.1908,0.1825,0.2102,0.2378,0.2378,0.2877,0.3347,0.3569,0.2935,0.2573,0.2959,0.3014,0.3264,0.3849,0.3932,0.3987,0.4184,0.4574,0.4723,0.4588,0.4961,0.5125,0.4977,0.4973,0.5251,0.5863,0.6395,0.6904,0.7455,0.7802,0.8152,0.853,0.8312,0.8421,0.8999,0.903,0.916,0.9623,0.9722,0.9613,0.9297,0.9211,0.9104,0.8818,0.8538,0.8425,0.0,0.0,0.828,0.9444,0.9411,0.9537,1.0472,0.9725,0.906,0.0,0.0,0.0,0.0,0.0,0.0,0.5559,0.0,0.5405,0.5405,0.5405,0.5402,0.5395,0.5395,0.5395,0.5395,0.5395,0.5395,0.5395,0.5395,0.5395,0.5395,0.519,0.499,0.4794,0.4728,0.4561,0.44,0.44,0.4398,0.44,0.44,0.4367,0.435,0.4194,0.415,0.413,0.375,0.3869,0.4218,0.4242,0.4574,0.4952,0.4952,0.4956,0.4956,0.4952,0.4924,0.4928,0.4897,0.4567,0.4177,0.3904,0.3519,0.3019,0.2434,0.2294,0.2184,0.1936,0.1908,0.1908,0.1937,0.2434,0.3014,0.3597,0.3683,0.3683,0.3652,0.3652,0.3876,0.4487,0.4546,0.4739,0.5246,0.5297,0.5297,0.5297,0.5297,0.5297,0.5297,0.5297,0.5595,0.6236,0.681,0.7375,0.7951,0.8533,0.8804,0.8804,0.8811,0.8804,0.9234,0.9559,0.9849,0.9967,0.984,0.9666,0.9586,0.9232,0.8725,0.8101,0.7936,0.7709,0.7184,0.0,0.0,0.8698,0.9245,0.0,1.0499,1.0418,0.0,0.0,0.0,0.884,0.8038,0.7883,0.0,0.0,0.5931,0.5532,0.5532,0.5532,0.5515,0.5399,0.5395,0.5395,0.5395,0.5395,0.5395,0.5395,0.5395,0.5395,0.5395,0.519,0.5087,0.5057,0.5415,0.5547,0.5514,0.5778,0.5877,0.5844,0.5591,0.5495,0.5441,0.4897,0.4938,0.5164,0.4179,0.4048,0.4394,0.4769,0.5113,0.5481,0.5786,0.5868,0.5814,0.5508,0.5426,0.5344,0.4983,0.4814,0.4704,0.4622,0.4377,0.4101,0.3935,0.343,0.2986,0.2931,0.3213,0.3522,0.3769,0.4267,0.4684,0.4849,0.4881,0.4712,0.4322,0.4267,0.4491,0.5046,0.5105,0.516,0.5297,0.5297,0.5297,0.5297,0.5297,0.5297,0.5297,0.5297,0.5786,0.6837,0.7031,0.7595,0.856,0.8725,0.8804,0.8804,0.891,0.8962,0.962,0.9889,1.0147,1.0281,1.0094,0.9806,0.9546,0.9132,0.8554,0.7654,0.7376,0.0,0.6599,0.0,0.0,0.0,0.0,0.0,1.0318,1.0632,1.0659,0.0,1.0329,0.0,0.9095,0.9004,0.8633,0.0,0.675,0.6063,0.5716,0.5684,0.5644,0.559,0.5528,0.5463,0.5395,0.5395,0.5395,0.5395,0.5395,0.5395,0.5395,0.5292,0.5355,0.555,0.0,0.6104,0.6367,0.6531,0.6629,0.6597,0.6243,0.6112,0.6067,0.5517,0.5521,0.5703,0.5008,0.4851,0.4987,0.5188,0.5366,0.5633,0.6274,0.6412,0.6276,0.6049,0.5935,0.5814,0.5536,0.534,0.5203,0.5203,0.4928,0.4653,0.4515,0.4153,0.379,0.3649,0.3766,0.4045,0.4512,0.4794,0.5018,0.527,0.5297,0.5187,0.4881,0.4853,0.4963,0.527,0.5297,0.5297,0.5297,0.5297,0.5297,0.5297,0.5297,0.5297,0.5297,0.554,0.6028,0.6701,0.7182,0.7797,0.8494,0.8692,0.8857,0.8982,0.8982,0.9035,0.995,1.012,1.0227,1.0479,1.0281,0.9877,0.9291,0.8931,0.8423,0.7279,0.0,0.6607,0.6271,0.0,0.6913,0.7814,0.0,0.9286,0.9997,1.0621,1.0943,1.081,1.1286,1.1219,1.0026,1.0098,0.9781,0.8793,0.7893,0.6957,0.6046,0.5866,0.5813,0.5776,0.5654,0.5549,0.5395,0.5395,0.5395,0.5395,0.5395,0.5395,0.5395,0.5395,0.5686,0.6141,0.6239,0.0,0.712,0.7153,0.7186,0.7153,0.6793,0.6662,0.6629,0.6214,0.6119,0.6152,0.5954,0.5893,0.5864,0.5659,0.5555,0.5691,0.6607,0.67,0.6501,0.6501,0.6356,0.6205,0.6205,0.5955,0.5677,0.5677,0.5371,0.5011,0.4767,0.4684,0.4543,0.415,0.4039,0.4153,0.4646,0.4704,0.4822,0.5297,0.5356,0.5352,0.5352,0.5325,0.5297,0.5297,0.5297,0.5297,0.5297,0.5297,0.5297,0.5297,0.5297,0.5325,0.5407,0.5914,0.6285,0.6448,0.7412,0.8025,0.8237,0.8659,0.8982,0.9211,0.9113,0.9106,0.9762,1.0144,1.0472,1.0241,0.9973,0.9606,0.9018,0.8657,0.0,0.0,0.0,0.5909,0.4875,0.5201,0.0,0.7014,0.0,0.0,0.0,0.0,1.1082,0.0,0.0,0.0,0.0,0.0,0.0,0.0,0.0,0.8701,0.7057,0.6319,0.5878,0.5633,0.5603,0.5549,0.5395,0.5395,0.5395,0.5395,0.5395,0.5395,0.5395,0.5395,0.5752,0.6367,0.6924,0.0,0.8231,0.8528,0.8624,0.8592,0.8274,0.8149,0.8052,0.7265,0.7265,0.7461,0.6317,0.6363,0.6919,0.6715,0.6393,0.6211,0.7051,0.6929,0.6501,0.6501,0.6356,0.6205,0.6205,0.615,0.6091,0.6091,0.6037,0.5955,0.5927,0.565,0.5207,0.4543,0.4759,0.5003,0.4897,0.5262,0.5599,0.5713,0.5626,0.554,0.554,0.5407,0.5297,0.5297,0.5297,0.5297,0.5297,0.5297,0.5297,0.5297,0.5297,0.5513,0.6023,0.6154,0.6686,0.7753,0.7972,0.8375,0.9021,0.908,0.9159,0.9211,0.929,0.9335,0.9866,1.0258,1.0519,1.0187,0.99,0.9521,0.8751,0.0,0.0,0.0,0.0,0.5892,0.4854,0.0,0.0,0.0,0.0,0.0,0.0,0.0,0.0,0.0,0.0,0.0,0.0,0.0,0.0,0.0,0.0,0.9285,0.7835,0.694,0.6208,0.5631,0.5589,0.5549,0.5395,0.5395,0.5395,0.5395,0.5395,0.5395,0.5395,0.5395,0.5951,0.6924,0.7256,0.0,0.9017,0.9183,0.9253,0.9221,0.8894,0.8765,0.87,0.8084,0.8052,0.8149,0.7498,0.7531,0.7902,0.7978,0.7523,0.7064,0.757,0.7365,0.6929,0.6729,0.6445,0.6205,0.6205,0.6205,0.6205,0.6205,0.6205,0.6205,0.6205,0.6037,0.5818,0.5458,0.5536,0.5614,0.5504,0.565,0.5795,0.5795,0.5736,0.5709,0.5709,0.5626,0.5494,0.5329,0.5297,0.5297,0.5297,0.5595,0.5782,0.5782,0.6055,0.6404,0.675,0.7036,0.7519,0.8249,0.854,0.8883,0.9316,0.9237,0.9256,0.9413,0.9413,0.9439,0.994,1.0241,1.0425,1.0094,0.9853,0.9467,0.8516,0.8096,0.0,0.0,0.0,0.6054,0.5286,0.0,0.0,0.0,0.0,0.0,0.0,0.0,0.0,0.0,0.0,0.0,0.0,0.0,0.0,0.0,0.0,0.0,0.8382,0.7542,0.6726,0.5831,0.5828,0.5685,0.5395,0.5557,0.5557,0.5395,0.5557,0.5624,0.5624,0.5624,0.6342,0.7647,0.7647,0.0,0.0,0.9516,0.9516,0.9484,0.9215,0.9119,0.9055,0.8738,0.8608,0.8608,0.8517,0.8544,0.8641,0.892,0.8495,0.7907,0.8144,0.7861,0.7409,0.7091,0.6663,0.6309,0.6309,0.6255,0.6205,0.6205,0.6205,0.6205,0.6205,0.6205,0.6205,0.6205,0.6119,0.6032,0.6032,0.5955,0.5877,0.5877,0.585,0.5845,0.5845,0.5822,0.5713,0.5434,0.5411,0.5462,0.5567,0.6023,0.6344,0.6475,0.6912,0.7295,0.753,0.7951,0.8296,0.8606,0.9028,0.9316,0.9439,0.9335,0.9387,0.9588,0.9484,0.9484,0.9639,0.9933,1.0087,0.9793,0.9729,0.9385,0.8212,0.0,0.0,0.0,0.6289,0.6161,0.5717,0.569,0.0,0.0,0.0,0.0,0.0,0.0,0.0,0.0,0.0,0.0,0.0,0.0,0.0,0.0,0.0,0.0,0.8409,0.8,0.7416,0.6543,0.6501,0.615,0.5395,0.6013,0.6009,0.5395,0.6009,0.6301,0.6301,0.6301,0.7083,0.8393,0.8393,0.0,0.0,0.9516,0.9516,0.9484,0.9452,0.9452,0.942,0.9087,0.8952,0.8926,0.8608,0.8705,0.8952,0.8985,0.8732,0.8479,0.8823,0.8359,0.7771,0.7712,0.7195,0.6652,0.6652,0.644,0.6205,0.6205,0.6205,0.6205,0.6205,0.6205,0.6205,0.6205,0.6205,0.6178,0.6178,0.6178,0.615,0.615,0.6064,0.5978,0.5978,0.5873,0.5795,0.5768,0.5768,0.5955,0.6426,0.6534,0.6799,0.7358,0.7439,0.7711,0.8289,0.8342,0.8659,0.9309,0.9361,0.9439,0.9588,0.9562,0.9588,0.9588,0.9588,0.9588,0.9339,0.9633,0.9786,0.9464,0.9391,0.9124,0.8132,0.0,0.7686,0.6884,0.6719,0.6592,0.614,0.6054,0.6153,0.0,0.6585,0.7034,0.0,0.0,0.0,0.0,0.0,0.0,0.0,0.0,0.0,0.0,0.0,0.0,0.9725,0.8936,0.8054,0.7114,0.7076,0.6941,0.6605,0.6863,0.6863,0.6605,0.6863,0.699,0.699,0.699,0.7544,0.849,0.849,0.0,0.0,0.9516,0.9516,0.9516,0.9516,0.9516,0.9484,0.935,0.9318,0.9285,0.9157,0.9189,0.9318,0.9318,0.9221,0.9092,0.9017,0.8683,0.8257,0.7898,0.7496,0.7147,0.6987,0.6734,0.644,0.6255,0.6205,0.6205,0.6205,0.6205,0.6205,0.6205,0.6205,0.6205,0.6205,0.6205,0.6205,0.6205,0.6146,0.6119,0.6119,0.6064,0.6041,0.6041,0.5905,0.6009,0.6561,0.6934,0.7391,0.801,0.8355,0.8672,0.8995,0.8995,0.9178,0.951,0.951,0.9536,0.9588,0.9588,0.9588,0.9588,0.9588,0.9588,0.9005,0.9297,0.9499,0.9264,0.9144,0.8878,0.0,0.0,0.7626,0.7106,0.7,0.6894,0.6571,0.6507,0.6507,0.6507,0.6597,0.6953,0.7785,0.0,0.0,0.0,0.0,0.0,0.0,0.0,0.0,0.0,0.0,0.0,1.0601,0.9749,0.8799,0.7749,0.7712,0.7614,0.7386,0.7614,0.7614,0.7419,0.7614,0.7712,0.7712,0.7712,0.8102,0.8786,0.8786,0.0,0.0,0.9516,0.9516,0.9516,0.9516,0.9516,0.9516,0.9516,0.9516,0.9516,0.9516,0.9516,0.9516,0.9516,0.9516,0.9452,0.9215,0.9003,0.8734,0.8308,0.791,0.7549,0.7198,0.695,0.6734,0.6413,0.6337,0.6309,0.6232,0.6205,0.6205,0.6205,0.6205,0.6205,0.6205,0.6205,0.6205,0.6205,0.6205,0.6205,0.6205,0.6205,0.6205,0.6205,0.62,0.6408,0.6939,0.7358,0.7951,0.8705,0.9099,0.9361,0.9465,0.9465,0.9517,0.9588,0.9588,0.9588,0.9588,0.9588,0.9588,0.9588,0.9588,0.9692,0.8651,0.8998,0.9217,0.9211,0.8998,0.8657,0.0,0.7689,0.7404,0.7066,0.7,0.7,0.7,0.7,0.7,0.7,0.7268,0.7598,0.7866,0.0,0.0,0.0,0.0,0.0,0.0,0.0,0.0,0.0,0.0,0.0,1.0538,1.0307,0.9676,0.8528,0.849,0.8134,0.7419,0.8134,0.8129,0.7419,0.8134,0.849,0.849,0.849,0.885,0.0,0.0,0.0,0.0,0.9516,0.9516,0.9516,0.9516,0.9516,0.9516,0.9516,0.9516,0.9516,0.9516,0.9516,0.9516,0.9516,0.9516,0.9484,0.9484,0.9318,0.9095,0.9095,0.851,0.7773,0.7225,0.7112,0.7031,0.6761,0.6701,0.6598,0.6282,0.6205,0.6205,0.6205,0.6205,0.6205,0.6205,0.6205,0.6205,0.6205,0.6205,0.6205,0.6205,0.6205,0.6205,0.6205,0.6739,0.7295,0.7845,0.7898,0.8375,0.951,0.9588,0.9588,0.9588,0.9588,0.9588,0.9588,0.9588,0.9588,0.9588,0.9588,0.9588,0.9588,0.9588,0.9873,0.7829,0.811,0.8272,0.8083,0.8116,0.8079,0.7702,0.7558,0.7404,0.7066,0.7,0.7,0.7,0.7,0.7066,0.7316,0.7424,0.0,0.0,0.0,0.0,0.0,0.0,0.0,0.0,0.0,0.0,0.0,0.0,0.0,1.0685,1.0282,0.9788,0.9189,0.9183,0.9087,0.8829,0.9055,0.9055,0.8829,0.9087,0.9183,0.9183,0.9183,0.9285,0.0,0.0,0.0,0.0,0.9516,0.9516,0.9516,0.9516,0.9516,0.9516,0.9516,0.9516,0.9516,0.9516,0.9516,0.9516,0.9516,0.9516,0.9516,0.9516,0.9456,0.9306,0.8933,0.8526,0.8058,0.7502,0.7381,0.7381,0.7375,0.7375,0.7423,0.7599,0.7283,0.7052,0.7417,0.6788,0.6337,0.6739,0.6815,0.6815,0.6815,0.7133,0.7369,0.7369,0.7369,0.7369,0.7369,0.753,0.7717,0.7871,0.827,0.8823,0.9562,0.9588,0.9588,0.9588,0.9588,0.9588,0.9588,0.9588,0.9588,0.9588,0.9588,0.9795,1.0164,1.0515,1.077,0.0,0.7574,0.7736,0.7724,0.7765,0.7732,0.7583,0.7455,0.732,0.7061,0.7,0.7,0.7,0.7,0.706,0.7268,0.7417,0.0,0.0,0.0,0.0,0.0,0.0,0.0,0.0,0.0,0.0,0.0,0.0,0.0,1.0581,1.0271,0.9958,0.9612,0.9548,0.9516,0.9516,0.9516,0.9516,0.9516,0.9516,0.9516,0.9516,0.9516,0.9516,0.0,0.0,0.0,0.0,0.9516,0.9516,0.9516,0.9516,0.9516,0.9516,0.9516,0.9516,0.9516,0.9516,0.9516,0.9516,0.9516,0.9516,0.9516,0.9516,0.9516,0.9402,0.886,0.859,0.8323,0.7802,0.7788,0.791,0.7851,0.7984,0.8137,0.8277,0.7966,0.7786,0.8098,0.7545,0.7101,0.7423,0.7477,0.745,0.7396,0.7691,0.7898,0.7898,0.7898,0.7898,0.7898,0.8111,0.8243,0.8243,0.8587,0.9033,0.9562,0.9588,0.9588,0.9588,0.9588,0.9588,0.9588,0.9795,0.9795,0.9588,0.9795,1.019,1.0727,1.1284,1.1535,0.0,0.7261,0.7502,0.7863,0.7734,0.7521,0.7541,0.7359,0.0,0.7042,0.7021,0.7006,0.7026,0.7013,0.7013,0.706,0.0,0.0,0.0,0.0,0.0,0.0,0.0,0.0,0.0,0.0,0.0,0.0,0.0,0.0,1.0352,1.0308,1.0149,0.9836,0.9644,0.9516,0.9516,0.9516,0.9516,0.9516,0.9516,0.9516,0.9516,0.9516,0.9516,0.0,0.0,0.0,0.0,0.9516,0.9516,0.9516,0.9516,0.9516,0.9516,0.9516,0.9516,0.9516,0.9516,0.9516,0.9516,0.9516,0.9516,0.9516,0.9516,0.9516,0.9402,0.886,0.871,0.859,0.8039,0.8235,0.854,0.8237,0.8527,0.8797,0.8521,0.8409,0.8383,0.8435,0.8356,0.8277,0.8184,0.8184,0.8131,0.8004,0.8004,0.8031,0.8031,0.8031,0.8031,0.8031,0.8534,0.8856,0.8856,0.8856,0.9066,0.9562,0.9588,0.9588,0.9588,0.9588,0.9614,0.9666,1.019,1.0216,0.9718,1.0267,1.0778,1.1284,1.1868,1.215,0.6254,0.0,0.6618,0.6392,0.6524,0.6754,0.0,0.7009,0.7003,0.0,0.0,0.7193,0.7365,0.7174,0.7153,0.0,0.0,0.0,0.0,0.0,0.0,0.0,0.0,0.0,0.0,0.0,0.0,0.0,0.0,1.0868,1.0543,1.0364,1.0269,1.018,0.9989,0.983,0.974,0.974,0.974,0.974,0.974,0.9644,0.9516,0.9516,0.9516,0.0,0.0,0.0,0.9516,0.9516,0.9516,0.9516,0.9516,0.9516,0.9516,0.9516,0.9516,0.9516,0.9516,0.9516,0.9516,0.9516,0.9516,0.9516,0.9516,0.9516,0.9402,0.886,0.871,0.859,0.8039,0.8235,0.8653,0.889,0.9276,0.9633,0.9932,0.9536,0.9276,0.9751,0.9,0.8442,0.8856,0.8942,0.8883,0.8764,0.9093,0.9309,0.9216,0.919,0.919,0.919,0.9413,0.9524,0.9432,0.9406,0.9458,0.9588,0.9588,0.9588,0.9588,0.9588,0.9795,1.019,1.0753,1.0947,1.0821,1.141,1.1769,1.1893,1.2446,1.27,0.5877,0.6268,0.6612,0.6591,0.6852,0.7179,0.7369,0.0,0.0,0.0,0.0,0.0,0.7104,0.0,0.0,0.0,0.0,0.0,0.0,0.0,0.0,0.0,0.0,0.0,0.0,0.0,0.0,0.0,0.0,1.076,1.06,1.0498,1.0403,1.0301,1.018,1.0053,0.9894,0.9894,0.9894,0.9894,0.9836,0.974,0.9644,0.9548,0.9516,0.0,0.0,0.0,0.9516,0.9516,0.9516,0.9516,0.9516,0.9516,0.9516,0.9516,0.9516,0.9516,0.9516,0.9676,0.9862,0.9862,1.0015,1.0206,1.0206,1.0206,1.0014,0.9126,0.88,0.8643,0.8453,0.8651,0.8968,0.9387,0.9803,1.0198,1.0445,1.0205,0.9991,1.0342,0.9803,0.9399,0.9655,0.9714,0.9655,0.9491,0.9706,0.987,0.9803,0.9777,0.9777,0.9777,0.9836,0.987,0.9777,0.9777,0.9725,0.9614,0.9647,0.9706,0.9706,0.9976,1.049,1.12,1.1267,1.1543,1.2067,1.2116,1.2314,1.2598,1.29,1.3045,0.5832,0.6428,0.7066,0.724,0.7581,0.7874,0.7874,0.0,0.0,0.0,0.0,0.0,0.0,0.0,0.0,0.0,0.0,0.0,0.0,0.0,0.0,0.0,0.0,0.0,0.0,0.0,0.0,0.0,0.0,1.0593,1.0593,1.0593,1.053,1.0333,1.0333,1.0269,1.0079,1.0047,1.0047,1.0047,0.9926,0.9862,0.9836,0.9644,0.9548,0.9548,0.0,0.0,0.9516,0.9516,0.9516,0.9516,0.9516,0.9516,0.9516,0.9516,0.9516,0.9516,0.9516,0.9862,1.0301,1.0301,1.0611,1.0982,1.0982,1.1045,1.0833,0.9711,0.9149,0.8935,0.9075,0.9254,0.9451,0.9725,1.0211,1.056,1.0504,1.0496,1.0496,1.0496,1.0496,1.047,1.0342,1.0342,1.0265,1.0076,1.0051,1.0025,0.9999,0.9999,0.9999,0.9999,1.0025,1.0025,0.9999,1.0025,0.994,0.9666,0.9758,0.9818,0.9818,1.0523,1.1301,1.2082,1.1823,1.2153,1.3123,1.2608,1.2638,1.3194,1.3194,1.3194,0.6411,0.7047,0.7368,0.6532,0.6828,0.7315,0.7315,0.0,0.0,0.0,0.0,0.0,0.0,0.0,0.0,0.0,0.0,0.0,0.0,0.0,0.0,0.0,0.0,0.0,0.0,0.0,0.0,0.0,0.0,1.0593,1.0593,1.0593,1.0593,1.0561,1.0561,1.053,1.0498,1.0339,1.0244,1.0244,1.0244,1.0149,0.9958,0.983,0.974,0.974,0.0,0.9516,0.9516,0.9516,0.9516,0.9516,0.9516,0.9516,0.9516,0.9516,0.9516,0.9516,0.9516,0.9862,1.0301,1.0301,1.0611,1.0982,1.0982,1.1188,1.1322,1.0826,1.0322,0.9829,0.9639,0.9911,1.0153,0.9855,1.0388,1.0862,1.056,1.0496,1.0496,1.0496,1.0496,1.0496,1.047,1.047,1.0419,1.0265,1.0239,1.0187,1.0025,0.9999,0.9999,0.9999,1.0162,1.0187,0.9999,1.0162,1.0154,0.9947,0.9947,0.9973,0.9973,1.093,1.1526,1.1685,1.2496,1.3016,1.317,1.3098,1.3098,1.3194,1.3194,1.3194,0.5859,0.6545,0.7081,0.6767,0.7495,0.8282,0.8282,0.0,0.0,0.0,0.0,0.0,0.0,0.0,0.0,0.0,0.0,0.0,0.0,0.0,0.0,0.0,0.0,0.0,0.0,0.0,0.0,0.0,0.0,0.0,1.0593,1.0593,1.0593,1.0593,1.0593,1.0593,1.0593,1.0498,1.0466,1.0466,1.0333,1.0244,1.0149,0.9989,0.9868,0.9804,0.0,0.9612,0.9516,0.9612,0.9676,0.9676,0.9734,0.9734,0.9644,0.9548,0.9516,0.9548,0.983,1.0269,1.0737,1.1021,1.1459,1.1895,1.205,1.2197,1.2313,1.2336,1.1398,1.0408,1.053,1.0479,1.0438,1.0678,1.1001,1.1169,1.0854,1.0783,1.0727,1.0528,1.0496,1.0496,1.0496,1.0496,1.047,1.0419,1.0419,1.0368,1.029,1.0257,1.0257,1.0257,1.0342,1.0368,1.029,1.0342,1.0342,1.0162,1.0162,1.0308,1.0684,1.141,1.1934,1.2132,1.2905,1.3314,1.3314,1.3314,1.3348,1.342,1.342,1.342,0.5568,0.61,0.6728,0.7202,0.0,0.8804,0.9031,0.0,0.0,0.0,0.0,0.0,0.0,0.0,0.0,0.0,0.0,0.0,0.0,0.0,0.0,0.0,0.0,0.0,0.0,0.0,0.0,0.0,0.0,0.0,1.0593,1.0593,1.0593,1.0593,1.0593,1.0593,1.0593,1.0593,1.0593,1.0593,1.0428,1.0371,1.0371,1.0149,1.0015,0.9926,0.9862,0.9734,0.9612,0.9951,1.0047,1.0047,1.0351,1.0326,1.0047,0.9919,0.9734,0.9638,1.0263,1.0706,1.1108,1.1709,1.2274,1.2744,1.2928,1.3111,1.3285,1.345,1.2429,1.1339,1.1529,1.1193,1.0905,1.1383,1.1551,1.1503,1.109,1.0995,1.0891,1.0568,1.0496,1.0496,1.0496,1.0496,1.0496,1.0496,1.0496,1.0496,1.0496,1.0496,1.0496,1.0496,1.0496,1.0496,1.0496,1.0624,1.065,1.0547,1.0522,1.0701,1.1099,1.1801,1.227,1.2461,1.3108,1.3443,1.3443,1.3443,1.3491,1.3597,1.3597,1.3597,0.636,0.6475,0.6544,0.7448,0.7501,0.0,0.8516,0.8216,0.0,0.0,0.0,0.0,0.0,0.0,0.0,0.0,0.0,0.0,0.0,0.0,0.0,0.0,0.0,0.0,0.0,0.0,0.0,0.0,0.0,0.0,1.0593,1.0593,1.0593,1.0593,1.0593,1.0593,1.0593,1.0593,1.0593,1.0593,1.0593,1.0593,1.0561,1.0371,1.0269,1.0244,1.0079,0.9894,0.983,1.0591,1.0836,1.0804,1.1547,1.1485,1.0923,1.0892,1.0408,0.9894,1.0685,1.0968,1.1146,1.1988,1.2582,1.2981,1.2981,1.3437,1.386,1.3571,1.3397,1.3151,1.2576,1.2155,1.181,1.1559,1.1741,1.1797,1.1138,1.0995,1.0891,1.0568,1.0496,1.0496,1.0496,1.0496,1.0496,1.0496,1.0496,1.0496,1.0496,1.0496,1.0496,1.0496,1.0496,1.0496,1.0496,1.0972,1.1251,1.1226,1.1226,1.1023,1.0573,1.1965,1.253,1.2049,1.305,1.3597,1.3597,1.3597,1.3586,1.3597,1.3597,1.3597,0.5421,0.5897,0.6419,0.6947,0.7304,0.0,0.0,0.0,0.0,0.0,0.0,0.0,0.0,0.0,0.0,0.0,0.0,0.0,0.0,0.0,0.0,0.0,0.0,0.0,0.0,0.0,0.0,0.0,0.0,0.0,1.0593,1.0593,1.0593,1.0593,1.0593,1.0593,1.0593,1.0593,1.0593,1.0593,1.0593,1.0593,1.0593,1.053,1.0434,1.0301,1.0212,1.0085,0.9989,1.0825,1.1163,1.1195,1.1896,1.2012,1.1795,1.1671,1.143,1.125,1.1896,1.2112,1.2212,1.2842,1.3186,1.3338,1.3558,1.3799,1.401,1.41,1.3963,1.3691,1.3246,1.2721,1.2338,1.2397,1.2408,1.2256,1.1733,1.163,1.1471,1.0934,1.0796,1.0724,1.0536,1.0496,1.0496,1.0496,1.0496,1.0496,1.0496,1.0496,1.0496,1.0496,1.0496,1.0496,1.0496,1.0701,1.0947,1.1276,1.156,1.1635,1.1435,1.231,1.2691,1.2506,1.3218,1.3597,1.3597,1.3597,1.3597,1.3597,1.3597,1.3597,0.5085,0.5693,0.6383,0.0,0.0,0.0,0.0,0.0,0.0,0.0,0.0,0.0,0.0,0.0,0.0,0.0,0.0,0.0,0.0,0.0,0.0,0.0,0.0,0.0,0.0,0.0,0.0,0.0,0.0,0.0,0.0,1.0593,1.0593,1.0593,1.0593,1.0593,1.0593,1.0593,1.0593,1.0593,1.0593,1.0593,1.0593,1.0593,1.053,1.0403,1.0403,1.0276,1.0174,1.1233,1.1919,1.2351,1.2803,1.2856,1.2673,1.2512,1.232,1.2166,1.2795,1.2926,1.2887,1.348,1.367,1.37,1.392,1.407,1.4198,1.4455,1.4327,1.4109,1.3881,1.3331,1.2847,1.2984,1.2867,1.2586,1.2099,1.2078,1.1928,1.1157,1.1102,1.1008,1.0585,1.0496,1.0496,1.0496,1.0496,1.0496,1.0496,1.0496,1.0522,1.0624,1.0539,1.0598,1.0871,1.0947,1.1209,1.1726,1.2221,1.2344,1.1999,1.2677,1.2957,1.2788,1.3338,1.3597,1.3597,1.3597,1.3597,1.3597,1.3597,1.3597,0.57,0.6047,0.6441,0.0,0.0,0.0,0.0,0.0,0.0,0.0,0.0,0.0,0.0,0.0,0.0,0.0,0.0,0.0,0.0,0.0,0.0,0.0,0.0,0.0,0.0,0.0,0.0,0.0,0.0,0.0,0.0,1.0586,1.0586,1.0586,1.0586,1.0624,1.0593,1.0593,1.0593,1.0593,1.0624,1.0624,1.0624,1.0624,1.0624,1.0624,1.0624,1.0498,1.0428,1.1896,1.329,1.4515,1.4515,1.41,1.3511,1.3511,1.3017,1.242,1.323,1.3199,1.2956,1.3761,1.401,1.401,1.401,1.4228,1.4515,1.4515,1.4515,1.4515,1.4515,1.401,1.342,1.3103,1.3019,1.2821,1.2158,1.2292,1.2204,1.1219,1.1282,1.1292,1.0629,1.0496,1.0496,1.0496,1.0496,1.0496,1.0496,1.0496,1.0598,1.0879,1.0675,1.0828,1.1628,1.1893,1.2221,1.2764,1.329,1.3132,1.2058,1.3035,1.3338,1.2812,1.3338,1.3597,1.3597,1.3597,1.3597,1.3597,1.3597,1.3597,0.5129,0.5816,0.0,0.0,0.0,0.0,0.0,0.0,0.0,0.0,0.0,0.0,0.0,0.0,0.0,0.0,0.0,0.0,0.0,0.0,0.0,0.0,0.0,0.0,0.0,0.0,0.0,0.0,0.0,0.0,0.0,1.0588,1.0737,1.0247,1.0878,1.1021,1.0593,1.0593,1.0593,1.0624,1.1021,1.124,1.124,1.124,1.1483,1.1934,1.1934,1.1632,1.1202,1.212,1.329,1.4515,1.4515,1.4387,1.4198,1.4198,1.404,1.3881,1.413,1.4109,1.404,1.4258,1.4357,1.4357,1.4357,1.4417,1.4515,1.4515,1.4515,1.4515,1.4515,1.4357,1.4109,1.3769,1.3519,1.3304,1.3095,1.313,1.2949,1.215,1.1897,1.1616,1.0901,1.0624,1.0496,1.0496,1.0496,1.0496,1.0496,1.0711,1.0968,1.1295,1.1759,1.1997,1.1861,1.2197,1.2494,1.2662,1.2812,1.2967,1.3132,1.342,1.3573,1.3491,1.3573,1.3644,1.3739,1.3644,1.3597,1.3597,1.3597,1.3597,0.5509,0.0,0.0,0.0,0.0,0.0,0.0,0.0,0.0,0.0,0.0,0.0,0.0,0.0,0.0,0.0,0.0,0.0,0.0,0.0,0.0,0.0,0.0,0.0,0.0,0.0,0.0,0.0,0.0,0.0,0.0,1.0537,1.085,1.0823,1.1374,1.1414,1.0965,1.0965,1.0839,1.0624,1.1209,1.1639,1.1911,1.1911,1.212,1.2512,1.2512,1.242,1.2343,1.2734,1.3541,1.4515,1.4515,1.4515,1.4515,1.4515,1.4515,1.4515,1.4515,1.4515,1.4515,1.4515,1.4515,1.4515,1.4515,1.4515,1.4515,1.4515,1.4515,1.4515,1.4515,1.4654,1.4636,1.413,1.4001,1.3932,1.3803,1.4043,1.4033,1.3336,1.3155,1.2931,1.2219,1.1757,1.1482,1.1482,1.126,1.0989,1.0739,1.1178,1.1679,1.2075,1.2598,1.2969,1.3175,1.3126,1.3198,1.3431,1.326,1.3338,1.3739,1.3763,1.3797,1.3868,1.3797,1.3797,1.3868,1.3739,1.3692,1.3692,1.3621,1.3597,0.6375,0.0,0.0,0.0,0.0,0.0,0.0,0.0,0.0,0.0,0.0,0.0,0.0,0.0,0.0,0.0,0.0,0.0,0.0,0.0,0.0,0.0,0.0,0.0,0.0,0.0,0.0,0.0,0.0,0.0,0.0,1.0514,1.0962,1.1823,1.1958,1.1871,1.16,1.1545,1.1272,1.0776,1.1327,1.1934,1.2604,1.2604,1.2634,1.2665,1.2634,1.2978,1.3601,1.3541,1.3881,1.4515,1.4515,1.4515,1.4515,1.4515,1.4515,1.4515,1.4515,1.4515,1.4515,1.4515,1.4515,1.4515,1.4515,1.4515,1.4515,1.4515,1.4515,1.4506,1.4536,1.4872,1.503,1.433,1.4508,1.4736,1.4421,1.4932,1.5245,1.4628,1.47,1.4702,1.4053,1.3466,1.3089,1.3089,1.2575,1.1942,1.1335,1.1981,1.2689,1.3214,1.3369,1.3905,1.5023,1.4476,1.425,1.4666,1.4283,1.4039,1.4044,1.402,1.402,1.402,1.402,1.402,1.402,1.3868,1.3821,1.3821,1.3692,1.3644,0.0,0.6643,0.0,0.0,0.0,0.0,0.0,0.0,0.0,0.0,0.0,0.0,0.0,0.0,0.0,0.0,0.0,0.0,0.0,0.0,0.0,0.0,0.0,0.0,0.0,0.0,0.0,0.0,0.0,0.0,0.9925,1.0647,1.1205,1.1554,1.2303,1.2565,1.2297,1.1756,1.1694,0.0,1.2205,1.2642,1.329,1.329,1.3571,1.404,1.3502,1.3662,1.4228,1.3731,1.3881,1.4515,1.4515,1.4515,1.4515,1.4515,1.4515,1.4515,1.4515,1.4515,1.4515,1.4515,1.4515,1.4515,1.4515,1.4515,1.4515,1.4515,1.4515,1.4595,1.4951,1.5118,1.5255,1.5429,1.5584,1.5613,1.5546,1.5671,1.5657,1.5189,1.4988,1.4757,1.4277,1.3934,1.3717,1.3717,1.3588,1.3427,1.3281,1.3679,1.4089,1.4471,1.5081,1.5431,1.5273,1.5432,1.5253,1.4598,1.4461,1.4371,1.4325,1.4114,1.4057,1.4163,1.4057,1.4057,1.4163,1.4033,1.3973,1.3973,1.3926,1.3915,0.0,0.0,0.0,0.0,0.0,0.0,0.0,0.0,0.0,0.0,0.0,0.0,0.0,0.0,0.0,0.0,0.0,0.0,0.0,0.0,0.0,0.0,0.0,0.0,0.0,0.0,0.0,0.0,0.0,0.9969,1.0635,1.1105,1.159,1.2152,1.2578,1.267,1.2422,1.2254,1.2191,1.2205,1.2544,1.2936,1.3431,1.3803,1.4169,1.4485,1.4139,1.4169,1.4476,1.413,1.4169,1.4515,1.4515,1.4515,1.4515,1.4515,1.4515,1.4515,1.4515,1.4515,1.4515,1.4515,1.4515,1.4515,1.4515,1.4515,1.4515,1.4515,1.4515,1.4625,1.5089,1.5371,1.5642,1.6132,1.6257,1.6257,1.6257,1.64,1.6507,1.6294,1.613,1.5991,1.5769,1.5368,1.4901,1.437,1.4473,1.449,1.4175,1.4665,1.5141,1.5425,1.5979,1.6314,1.6273,1.626,1.6026,1.5485,1.5249,1.5099,1.5058,1.4709,1.4447,1.4303,1.4244,1.4244,1.4303,1.4163,1.4093,1.4104,1.4033,1.3997,0.0,0.0,0.0,0.0,0.0,0.0,0.0,0.0,0.0,0.0,0.0,0.0,0.0,0.0,0.0,0.0,0.0,0.0,0.0,0.0,0.0,0.0,0.0,0.0,0.0,0.0,0.0,0.0,0.0,1.0609,1.1485,1.1544,1.1973,1.2861,1.2793,1.267,1.251,1.2697,1.2592,1.217,1.2708,1.3102,1.3314,1.3992,1.4341,1.4405,1.4478,1.4515,1.4515,1.4515,1.4515,1.4515,1.4515,1.4515,1.4515,1.4515,1.4515,1.4515,1.4515,1.4515,1.4515,1.4515,1.4515,1.4515,1.4515,1.4515,1.4515,1.4515,1.4565,1.4734,1.5206,1.5671,1.6132,1.6599,1.6722,1.6722,1.6722,1.7043,1.7306,1.7306,1.7306,1.7306,1.7306,1.6885,1.6256,1.5282,1.5479,1.5526,1.4972,1.5525,1.6067,1.627,1.656,1.6864,1.7278,1.6885,1.6585,1.6498,1.6138,1.5887,1.5811,1.5418,1.4996,1.4538,1.444,1.4396,1.4396,1.4303,1.4222,1.4222,1.4127,1.4067,0.0,0.0,0.0,0.0,0.0,0.0,0.0,0.0,0.0,0.0,0.0,0.0,0.0,0.0,0.0,0.0,0.0,0.0,0.0,0.0,0.0,0.0,0.0,0.0,0.0,0.0,0.0,0.0,1.0113,1.06,1.1141,1.1603,1.2184,1.2887,1.288,1.3023,1.3341,1.2709,1.268,1.3287,1.3259,1.3259,1.3296,1.3406,1.3644,1.3983,1.4359,1.4515,1.4515,1.4515,1.4515,1.4515,1.4515,1.4515,1.4515,1.4515,1.4515,1.4515,1.4515,1.4515,1.4515,1.4515,1.4515,1.4515,1.4515,1.4515,1.4515,1.4515,1.4784,1.5206,1.5671,1.6161,1.6637,1.7099,1.7211,1.7211,1.7211,1.725,1.7306,1.7306,1.7306,1.7306,1.7306,1.7224,1.713,1.6982,1.6999,1.702,1.6935,1.7002,1.709,1.7145,1.7183,1.7222,1.7306,1.724,1.6983,1.652,1.6432,1.6225,1.5822,1.5745,1.5484,1.5017,1.4615,1.4396,1.4396,1.4373,1.4373,1.4373,1.435,1.4361,0.0,0.0,0.0,0.0,0.0,0.0,0.0,0.0,0.0,0.0,0.0,0.0,0.0,0.0,0.0,0.0,0.0,0.0,0.0,0.0,0.0,0.0,0.0,0.0,0.0,0.0,0.0,0.0,1.1234,1.1569,1.2076,1.2249,1.2482,1.2786,1.272,1.2764,1.2952,1.2819,1.2876,1.3159,1.3106,1.2933,1.2643,1.2952,1.3368,1.392,1.4075,1.4295,1.4515,1.4515,1.4515,1.4515,1.4515,1.4515,1.4515,1.4515,1.4515,1.4515,1.4515,1.4515,1.4515,1.4515,1.4515,1.4536,1.4813,1.4902,1.4961,1.5225,1.5439,1.569,1.6171,1.6457,1.6722,1.7183,1.7306,1.7306,1.7306,1.7306,1.7306,1.7306,1.7306,1.7306,1.7306,1.7306,1.7306,1.7306,1.7306,1.7306,1.7306,1.7306,1.7306,1.7306,1.7306,1.7306,1.7306,1.7306,1.7208,1.6961,1.695,1.6852,1.6656,1.6345,1.6094,1.5902,1.517,1.4646,1.4396,1.4396,1.4396,1.4396,1.4396,1.4396,0.0,0.0,0.0,0.0,0.0,0.0,0.0,0.0,0.0,0.0,0.0,0.0,0.0,0.0,0.0,0.0,0.0,0.0,0.0,0.0,0.0,0.0,0.0,0.0,0.0,0.0,0.0,0.0,1.2002,1.2274,1.2676,1.2725,1.2735,1.27,1.2603,1.2554,1.2554,1.2858,1.2935,1.2807,1.2807,1.2588,1.2218,1.2616,1.3139,1.37,1.3875,1.4085,1.4359,1.4469,1.4515,1.4515,1.4515,1.4515,1.4515,1.4515,1.4515,1.4515,1.4515,1.4515,1.4515,1.4515,1.4595,1.4734,1.5089,1.5284,1.5439,1.5787,1.5989,1.6161,1.6513,1.674,1.6976,1.7323,1.7434,1.7473,1.7334,1.7306,1.7306,1.7306,1.7306,1.7306,1.7306,1.7306,1.7306,1.7306,1.7306,1.7306,1.7306,1.7306,1.7306,1.7306,1.7306,1.7306,1.7306,1.7306,1.7306,1.7306,1.7306,1.7306,1.7306,1.6918,1.6645,1.6487,1.58,1.517,1.4582,1.4582,1.4517,1.4396,1.4396,1.4396,0.0,0.0,0.0,0.0,0.0,0.0,0.0,0.0,0.0,0.0,0.0,0.0,0.0,0.0,0.0,0.0,0.0,0.0,0.0,0.0,0.0,0.0,0.0,0.0,0.0,0.0,0.0,0.0,1.1794,1.2101,1.215,1.2627,1.2832,1.27,1.27,1.2686,1.2686,1.2695,1.2665,1.2508,1.2508,1.2499,1.248,1.2499,1.2745,1.3174,1.3802,1.4043,1.3975,1.435,1.4515,1.4515,1.4515,1.4515,1.4515,1.4515,1.4515,1.4515,1.4515,1.4515,1.4515,1.4515,1.4793,1.5177,1.5206,1.5517,1.5874,1.5902,1.6228,1.657,1.6599,1.7117,1.7656,1.7684,1.7865,1.7931,1.7418,1.7306,1.7306,1.7306,1.7306,1.7306,1.7306,1.7306,1.7306,1.7306,1.7306,1.7306,1.7306,1.7306,1.7306,1.7306,1.7306,1.7306,1.7306,1.7306,1.7306,1.7306,1.7306,1.7306,1.7306,1.7273,1.7005,1.6498,1.6443,1.5989,1.5061,1.5061,1.4832,1.4396,1.4396,1.4396,0.0,0.0,0.0,0.0,0.0,0.0,0.0,0.0,0.0,0.0,0.0,0.0,0.0,0.0,0.0,0.0,0.0,0.0,0.0,0.0,0.0,0.0,0.0,0.0,0.0,0.0,0.0,0.0,0.0,1.2603,1.2603,1.2808,1.2881,1.2832,1.2832,1.2832,1.2832,1.2832,1.2759,1.2627,1.2627,1.2578,1.2505,1.2578,1.2654,1.2751,1.3321,1.3611,1.3673,1.4089,1.4227,1.4275,1.4534,1.4704,1.4803,1.4675,1.4636,1.4606,1.4536,1.4515,1.4506,1.4616,1.5001,1.5536,1.5911,1.6293,1.6662,1.6965,1.706,1.7043,1.7043,1.7379,1.7739,1.7931,1.8127,1.8197,1.7865,1.781,1.7767,1.7601,1.7545,1.749,1.7334,1.7306,1.7306,1.7306,1.7306,1.7306,1.7306,1.7306,1.7306,1.7306,1.7306,1.7306,1.7306,1.7306,1.7306,1.7306,1.7306,1.7306,1.7306,1.7306,1.7219,1.7005,1.7355,1.6718,1.5105,1.5105,1.4854,1.4396,1.4396,1.4771,0.0,0.0,0.0,0.0,0.0,0.0,0.0,0.0,0.0,0.0,0.0,0.0,0.0,0.0,0.0,0.0,0.0,0.0,0.0,0.0,0.0,0.0,0.0,0.0,0.0,0.0,0.0,0.0,0.0,0.0,1.2905,1.2905,1.2905,1.2905,1.2905,1.2905,1.2905,1.2905,1.2856,1.2783,1.2783,1.2725,1.2627,1.2735,1.2725,1.2646,1.3015,1.3227,1.3399,1.3895,1.4147,1.4213,1.4557,1.4813,1.5,1.4951,1.4893,1.4775,1.4764,1.4704,1.4684,1.4686,1.5255,1.5987,1.6368,1.6916,1.7429,1.7755,1.7711,1.7573,1.7573,1.7783,1.8084,1.8356,1.8494,1.8575,1.8437,1.8247,1.8057,1.7865,1.7822,1.7767,1.7518,1.7462,1.7462,1.7462,1.759,1.7645,1.7573,1.7573,1.7573,1.7573,1.7573,1.7573,1.7573,1.7573,1.7573,1.7573,1.7645,1.7617,1.7434,1.7711,1.7783,1.7562,1.8116,1.7662,1.6137,1.595,1.5532,1.4864,1.508,1.5655,0.0,0.0,0.0,0.0,0.0,0.0,0.0,0.0,0.0,0.0,0.0,0.0,0.0,0.0,0.0,0.0,0.0,0.0,0.0,0.0,0.0,0.0,0.0,0.0,0.0,0.0,0.0,0.0,1.2905,1.2905,1.2905,1.2905,1.2905,1.2905,1.2905,1.2905,1.2905,1.2905,1.2905,1.2905,1.2905,1.2905,1.2905,1.2905,1.2905,1.2905,1.2905,1.2957,1.3159,1.3792,1.4167,1.4308,1.4597,1.4824,1.5059,1.5332,1.5274,1.5088,1.5206,1.5157,1.5029,1.4834,1.5575,1.6539,1.6549,1.729,1.8111,1.8111,1.8111,1.8084,1.8111,1.8356,1.8667,1.8934,1.8987,1.8987,1.8987,1.8545,1.8111,1.8111,1.8111,1.8057,1.7854,1.781,1.781,1.781,1.8143,1.8333,1.8139,1.8084,1.8084,1.8084,1.8084,1.8084,1.8084,1.8111,1.8111,1.8111,1.8375,1.8294,1.7755,1.856,1.8735,1.8147,1.8735,1.8775,1.822,1.7707,1.6885,1.5862,1.6485,1.7033,0.4492,0.0,0.0,0.0,0.0,0.0,0.0,0.0,0.0,0.0,0.0,0.0,0.0,0.0,0.0,0.0,0.0,0.0,0.0,0.0,0.0,0.0,0.0,0.0,0.0,0.0,0.0,0.0,1.2905,1.2905,1.2905,1.2905,1.2905,1.2905,1.2905,1.2905,1.2905,1.2905,1.2905,1.2905,1.2905,1.2905,1.2905,1.2905,1.2905,1.2905,1.2905,1.2925,1.2972,1.3348,1.375,1.412,1.4486,1.5165,1.595,1.5902,1.6132,1.6436,1.633,1.6262,1.6244,1.634,1.6877,1.7529,1.7628,1.8023,1.8452,1.8452,1.8302,1.8166,1.8398,1.8533,1.8667,1.8934,1.8987,1.8987,1.8987,1.8854,1.8694,1.8506,1.8452,1.8398,1.8251,1.8224,1.8224,1.8224,1.8321,1.8333,1.8139,1.8084,1.8084,1.8084,1.8084,1.8084,1.8084,1.8375,1.8525,1.8525,1.8924,1.9083,1.8936,1.9174,1.9214,1.9044,1.9475,1.9517,1.9072,1.8324,1.7667,1.7058,1.8007,1.8511,0.0,0.0,0.0,0.0,0.0,0.0,0.0,0.7026,0.0,0.0,0.0,0.0,0.0,0.0,0.0,0.0,0.0,0.0,0.0,0.0,0.0,0.0,0.0,0.0,0.0,1.2905,1.2905,1.2905,1.2905,1.2905,1.2905,1.2905,1.2905,1.2905,1.2905,1.2905,1.2905,1.2905,1.2905,1.2905,1.2905,1.2905,1.2905,1.2905,1.2905,1.2905,1.2905,1.2905,1.29,1.307,1.3394,1.384,1.4376,1.5203,1.6081,1.6317,1.6691,1.7073,1.7006,1.6968,1.6922,1.6972,1.7446,1.7995,1.8066,1.8402,1.8774,1.8774,1.8625,1.8506,1.8721,1.8774,1.8801,1.896,1.8987,1.8987,1.8987,1.8987,1.896,1.8801,1.8774,1.8747,1.8655,1.8655,1.8655,1.8655,1.8655,1.8614,1.8479,1.8491,1.8491,1.8491,1.8491,1.8533,1.8721,1.8936,1.9162,1.9307,1.9683,1.9811,1.9592,1.9901,1.9965,1.9747,2.0169,2.0308,2.008,1.9256,1.8744,1.8487,1.9083,1.9521,0.0,0.6222,0.0,0.0,0.0,0.0,0.7644,0.7375,0.0,0.0,0.0,0.0,0.0,0.0,0.0,0.0,0.0,0.0,0.0,0.0,0.0,0.0,0.0,0.0,1.2905,1.2905,1.2905,1.2905,1.2905,1.2905,1.2905,1.2905,1.2905,1.2905,1.2905,1.2905,1.2905,1.2905,1.2905,1.2905,1.2905,1.2905,1.2905,1.2905,1.2905,1.2905,1.2905,1.2929,1.2968,1.2968,1.3175,1.3558,1.4237,1.4989,1.5808,1.652,1.6987,1.733,1.7523,1.749,1.7368,1.7251,1.7667,1.8201,1.8201,1.8563,1.8987,1.8987,1.8987,1.8987,1.8987,1.8987,1.8987,1.8987,1.8987,1.9013,1.9066,1.9066,1.9093,1.9119,1.9093,1.904,1.9013,1.9066,1.9119,1.9066,1.9093,1.9119,1.9066,1.9119,1.9119,1.9066,1.9119,1.9277,1.9642,1.9708,1.9888,2.0245,2.0535,2.0485,2.0003,2.0648,2.0822,2.0333,2.0797,2.1033,2.0997,2.0296,1.9927,1.9927,1.9927,2.022,0.7613,0.7873,0.8118,0.705,0.0,0.0,0.6091,0.6131,0.6534,0.0,0.0,0.0,0.0,0.0,0.0,0.0,0.0,0.0,0.0,0.0,0.0,0.0,0.0,0.0,1.2905,1.2905,1.2905,1.2905,1.2905,1.2905,1.2905,1.2905,1.2905,1.2905,1.2905,1.2905,1.2905,1.2905,1.2905,1.2905,1.2905,1.2905,1.2905,1.2905,1.2905,1.2905,1.2905,1.3113,1.3454,1.3454,1.3475,1.35,1.3665,1.4547,1.586,1.6443,1.7232,1.8062,1.854,1.8682,1.8655,1.8629,1.8709,1.8827,1.8827,1.8907,1.8987,1.8987,1.8987,1.8987,1.8987,1.8987,1.8987,1.8987,1.8987,1.9093,1.9408,1.9486,1.9591,1.9901,1.9708,1.9382,1.9066,1.9539,1.9849,1.9539,1.9772,1.9849,1.9526,1.9772,1.9849,1.9512,1.9772,2.0003,2.008,2.0384,2.061,2.0684,2.1044,2.1191,2.1093,2.1253,2.1264,2.1166,2.1277,2.1229,2.0997,2.0835,2.0761,2.0761,2.0761,2.0835,0.0,0.0,0.8863,0.8329,0.0,0.0,0.0,0.0,0.6896,0.7439,0.0,0.0,0.0,0.0,0.0,0.0,0.0,0.0,0.0,0.0,0.0,0.0,0.0,0.0,1.2529,1.2559,1.2646,1.2886,1.2905,1.2905,1.2905,1.2905,1.2905,1.2905,1.2905,1.2905,1.2905,1.2905,1.2905,1.2905,1.2905,1.2905,1.2905,1.2905,1.2905,1.2905,1.2905,1.3162,1.3597,1.3597,1.3721,1.3924,1.4151,1.4903,1.5921,1.6378,1.7081,1.7845,1.8109,1.8374,1.8602,1.8602,1.877,1.8987,1.8987,1.8987,1.8987,1.8987,1.8987,1.8987,1.8987,1.8987,1.8987,1.8987,1.9146,1.9344,1.9565,1.9772,1.9952,2.0156,2.0195,2.0055,1.9668,1.9914,2.0131,1.9926,2.008,2.0131,1.9926,2.008,2.0131,1.9914,2.008,2.0271,2.0498,2.0684,2.0883,2.108,2.1288,2.1399,2.1399,2.1399,2.1399,2.1399,2.1399,2.1326,2.1204,2.1204,2.1131,2.0997,2.0997,2.0997,0.0,0.0,0.0,0.0,0.0,0.848,0.0,0.0,0.0,0.8477,0.0,0.0,0.0,0.0,0.0,0.0,0.0,0.0,0.0,0.0,0.0,0.0,0.0,0.0,0.0,1.1882,1.2132,1.2753,1.2669,1.2689,1.2934,1.2968,1.2944,1.2929,1.2929,1.2929,1.2905,1.2905,1.2905,1.2905,1.2905,1.2905,1.2905,1.2905,1.2905,1.2905,1.3002,1.3296,1.3729,1.3847,1.4176,1.4616,1.4777,1.523,1.5797,1.6218,1.6758,1.7255,1.7351,1.7688,1.8049,1.8049,1.8338,1.8722,1.8927,1.8915,1.8855,1.8963,1.8987,1.8987,1.8987,1.8987,1.8987,1.8987,1.9303,1.9604,1.9694,2.0016,2.0334,2.0435,2.0684,2.0759,2.0271,2.0334,2.0397,2.0321,2.0372,2.0397,2.0334,2.0372,2.0397,2.0321,2.0372,2.0548,2.0883,2.0932,2.1055,2.1375,2.1399,2.1399,2.1399,2.1399,2.1399,2.1399,2.1399,2.1399,2.1399,2.1399,2.1302,2.1082,2.1082,2.1082,0.0,0.0,0.0,0.0,1.0381,0.0,0.0,0.0,0.8506,0.752,0.0,0.0,0.0,0.0,0.0,0.0,0.0,0.0,0.0,0.0,0.0,0.0,0.0,0.0,0.0,1.0773,1.1119,1.2371,1.18,1.1914,1.311,1.317,1.3142,1.3085,1.3085,1.3027,1.2905,1.2905,1.2905,1.2905,1.2905,1.2905,1.2905,1.2905,1.2905,1.2929,1.3344,1.38,1.4258,1.4731,1.5221,1.5547,1.4707,1.4717,1.5257,1.5786,1.6279,1.6763,1.7255,1.7423,1.7496,1.7496,1.7519,1.7772,1.871,1.8662,1.8386,1.8855,1.8987,1.8987,1.8987,1.8987,1.8987,1.8987,1.9303,1.9694,2.0054,2.0447,2.0833,2.1191,2.1302,2.1093,2.0334,2.0797,2.1142,2.0784,2.1044,2.1142,2.0784,2.1044,2.1118,2.0784,2.1044,2.1277,2.1313,2.1313,2.1337,2.1399,2.1399,2.1399,2.1399,2.1399,2.1399,2.1399,2.1399,2.1399,2.1399,2.1399,2.1375,2.135,2.135,2.135,0.0,0.0,0.0,0.0,0.0,0.0,0.8545,0.0,0.8236,0.0,0.0,0.0,0.0,0.0,0.0,0.0,0.0,0.0,0.0,0.0,0.0,0.0,0.0,0.0,0.0,0.0,0.0,0.0,1.1253,1.1405,1.2772,1.2842,1.2953,1.3156,1.3166,1.3104,1.3027,1.3027,1.3113,1.332,1.332,1.3454,1.3705,1.3705,1.3705,1.3729,1.3907,1.4281,1.4777,1.5017,1.5379,1.577,1.5345,1.53,1.5514,1.5761,1.5957,1.6175,1.6403,1.6679,1.7039,1.7651,1.7869,1.8013,1.8758,1.8831,1.871,1.8927,1.8987,1.8987,1.8987,1.8987,1.9025,1.9105,1.9368,1.9734,2.022,2.0684,2.114,2.1554,2.164,2.1578,2.1396,2.1385,2.1337,2.1166,2.1288,2.1337,2.1166,2.1302,2.1337,2.1166,2.1288,2.1471,2.1616,2.164,2.1712,2.1841,2.1722,2.1568,2.1423,2.1399,2.1399,2.1399,2.1399,2.1399,2.1399,2.1399,2.1399,2.1399,2.1399,2.1399,1.2034,0.0,0.0,0.0,0.0,0.0,0.0,0.0,0.0,0.0,0.0,0.0,0.0,0.0,0.0,0.0,0.0,0.0,0.0,0.0,0.0,0.0,0.0,0.0,0.0,0.0,0.0,0.0,0.0,1.0823,1.2605,1.2686,1.2855,1.3246,1.3266,1.3204,1.3138,1.3099,1.3292,1.3644,1.3621,1.3871,1.434,1.4317,1.4317,1.4363,1.4467,1.4743,1.5108,1.5244,1.5491,1.5792,1.5792,1.5792,1.5792,1.5792,1.5792,1.5792,1.5792,1.6044,1.6535,1.7447,1.7772,1.7893,1.8566,1.877,1.8806,1.8951,1.8987,1.8987,1.8987,1.8987,1.9013,1.917,1.942,1.9811,2.0397,2.0894,2.1396,2.1817,2.1926,2.1973,2.2184,2.1817,2.1544,2.1616,2.1568,2.1544,2.1616,2.1568,2.152,2.152,2.1592,2.1688,2.1793,2.1864,2.1996,2.2184,2.202,2.1817,2.164,2.1616,2.1616,2.1616,2.1616,2.1592,2.152,2.152,2.1471,2.1399,2.1399,2.1399,0.0,0.0,0.0,1.0743,0.0,0.0,0.0,0.0,0.9427,0.0,0.0,0.0,0.0,0.0,0.0,0.0,0.0,0.0,0.0,0.0,0.0,0.0,0.0,0.0,0.0,0.0,0.0,0.0,0.0,0.0,1.2738,1.2882,1.3042,1.3375,1.3386,1.3338,1.3194,1.3138,1.333,1.3787,1.3668,1.3907,1.448,1.4363,1.4363,1.4526,1.4903,1.5085,1.5131,1.5592,1.5792,1.5792,1.5792,1.5792,1.5792,1.5792,1.5792,1.5792,1.5792,1.5804,1.5912,1.6475,1.6655,1.6847,1.7917,1.8229,1.8338,1.8843,1.8987,1.8987,1.8987,1.8987,1.9013,1.917,1.9486,1.9978,2.0646,2.1104,2.1544,2.2091,2.2184,2.2184,2.2208,2.1973,2.1864,2.2137,2.1949,2.1864,2.2137,2.1949,2.1793,2.1793,2.202,2.2067,2.1817,2.2044,2.2184,2.2208,2.2184,2.2184,2.2184,2.2184,2.2184,2.2184,2.2184,2.2067,2.1793,2.1793,2.1664,2.1399,2.1399,2.1399,0.0,0.0,1.2621,1.1447,0.0,0.0,0.0,0.0,0.0,0.0,0.0,0.0,0.0,0.0,0.0,0.0,0.0,0.0,0.0,0.0,0.0,0.0,0.0,0.0,0.0,0.0,0.0,0.0,0.96,0.0,0.0,1.2613,1.3205,1.3983,1.4037,1.4152,1.4317,1.4305,1.4455,1.4789,1.4801,1.5051,1.5478,1.5546,1.5591,1.5635,1.568,1.5758,1.5836,1.5814,1.5859,1.5913,1.5836,1.5859,1.5913,1.5836,1.5792,1.5792,1.5792,1.5792,1.5958,1.6835,1.7123,1.7315,1.841,1.8722,1.8758,1.8939,1.8987,1.9066,1.933,1.9408,1.9526,2.0105,2.0283,2.0535,2.1299,2.1626,2.1926,2.237,2.2463,2.2509,2.2638,2.2486,2.2301,2.2208,2.2114,2.2114,2.2184,2.2114,2.2067,2.2067,2.2161,2.2254,2.2324,2.2532,2.2615,2.2463,2.2463,2.2394,2.2208,2.2208,2.2208,2.2208,2.2208,2.2161,2.2067,2.2067,2.2123,2.2258,2.2258,2.1945,1.2905,1.2905,0.0,1.1832,1.1194,0.0,0.9401,0.0,0.0,0.0,0.0,0.0,0.0,0.0,0.0,0.0,0.0,0.0,0.0,0.0,0.0,0.0,0.0,0.0,0.0,0.0,0.8188,0.9232,0.0,0.0,0.0,0.0,1.3456,1.4274,1.453,1.4766,1.496,1.4926,1.5062,1.54,1.5389,1.5656,1.6141,1.6188,1.6244,1.6253,1.6132,1.6122,1.62,1.6013,1.5991,1.6066,1.5969,1.5991,1.6044,1.5913,1.5869,1.5869,1.5869,1.5957,1.6211,1.6883,1.7363,1.782,1.8506,1.8869,1.9078,1.9078,1.9105,1.9251,1.9708,1.9798,1.9991,2.0771,2.087,2.1031,2.1769,2.202,2.2208,2.2615,2.2706,2.2752,2.2865,2.2797,2.2661,2.2463,2.2394,2.237,2.244,2.2394,2.2347,2.2347,2.2417,2.2509,2.2684,2.282,2.291,2.2881,2.2881,2.2881,2.2836,2.2836,2.2836,2.2836,2.2836,2.2791,2.2686,2.2686,2.2754,2.2875,2.2875,2.2581]}]]